Darstellungsparameter: Aktuell verwendete Einstellungen:
Skalierung der Graphiken ... ?
xyx+y,   Skalierungsfaktor:      Skalierung: Modus: x, Faktor: 1
Darstellungszeitraum ... ?
Vom - - bis: - -   Zeitraum: 13.12.2010 - 13.01.2011
Min/Max/Avg-Anzeige ... ?
Zeige MMA aktuell
Zeige MMA Monat
Zeige MMA alles
Zeige --A aktuell
Zeige --A Monat
Zeige --A alles
Keine MMA-Anzeige
MMA:
Average (ber die Originaldaten)
MMA-Basis: 13.12.2010 - 13.01.2011
Quicknavigation für Darstellung... ?
Tage:      1T, 2T, 3T, 5T -1T -2T -3T -5T +1T +2T +3T +5T
Wochen: 1W, 2W, 3W -1W -2W -3W +1W +2W +3W
Monate: 1M, 3M, 6M -1M -3M -6M +1M +3M +6M
Jahre:    1J, 3J, 5J, 10J -1J -3J -5J -10J +1J +3J +5J +10J
Nutze für die Darstellung ... ?
Originaldaten oder Mittelwerte auf ...
Stundenbasis Tagesbasis Wochenbasis
Monatsbasis Jahresbasis      Datenbasis: Original-Daten
Darstellen als:
Statistik (Auto) Statistik J:M      Darstellung:
Zur Graphik,    zurück zur Übersicht aller Sensoren.
 
Tabellarische Datenbersicht: ?
 
Sensor: Nr:Datum:Temp:Abs-Feuchte:Windchill:Wind:
Aussen-T/F 1 13-12-2010 00:05:04 -0.4 C 2.59 g/m*3 -0.4 C 0 km/h
2 13-12-2010 00:17:04 -0.4 C 2.59 g/m*3 -0.4 C 0 km/h
3 13-12-2010 00:29:04 -0.5 C 2.53 g/m*3 -0.5 C 0 km/h
4 13-12-2010 00:41:04 -0.6 C 2.37 g/m*3 -0.6 C 0 km/h
5 13-12-2010 00:53:04 -0.7 C 2.4 g/m*3 -0.7 C 0 km/h
6 13-12-2010 01:05:04 -0.7 C 2.35 g/m*3 -0.7 C 0 km/h
7 13-12-2010 01:17:04 -0.7 C 2.45 g/m*3 -0.7 C 0 km/h
8 13-12-2010 01:29:04 -0.9 C 2.46 g/m*3 -0.9 C 0 km/h
9 13-12-2010 01:41:04 -0.9 C 2.46 g/m*3 -0.9 C 0 km/h
10 13-12-2010 01:53:04 -1 C 2.53 g/m*3 -1 C 0 km/h
11 13-12-2010 02:05:04 -1.3 C 2.35 g/m*3 -1.3 C 0 km/h
12 13-12-2010 02:17:04 -2.1 C 2.26 g/m*3 -2.1 C 0 km/h
13 13-12-2010 02:29:04 -2.4 C 2.29 g/m*3 -2.4 C 0 km/h
14 13-12-2010 02:41:04 -2.7 C 2.29 g/m*3 -2.7 C 0 km/h
15 13-12-2010 02:53:04 -2.9 C 2.29 g/m*3 -2.9 C 0 km/h
16 13-12-2010 03:05:04 -2.9 C 2.29 g/m*3 -2.9 C 0 km/h
17 13-12-2010 03:17:04 -3.4 C 2.25 g/m*3 -3.4 C 0 km/h
18 13-12-2010 03:29:04 -3.6 C 2.26 g/m*3 -3.6 C 0 km/h
19 13-12-2010 03:41:04 -3.8 C 2.26 g/m*3 -3.8 C 0 km/h
20 13-12-2010 03:53:05 -3.8 C 2.26 g/m*3 -3.8 C 0 km/h
21 13-12-2010 04:05:05 -4.1 C 2.25 g/m*3 -4.1 C 0 km/h
22 13-12-2010 04:17:05 -4.2 C 2.31 g/m*3 -4.2 C 0 km/h
23 13-12-2010 04:29:05 -4.1 C 2.32 g/m*3 -4.1 C 0 km/h
24 13-12-2010 04:41:05 -4.4 C 2.28 g/m*3 -4.4 C 0 km/h
25 13-12-2010 04:53:05 -4.2 C 2.31 g/m*3 -4.2 C 0 km/h
Sensor: Nr:Datum:Temp:Abs-Feuchte:Windchill:Wind:
Aussen-T/F 26 13-12-2010 05:05:05 -4.7 C 2.26 g/m*3 -4.7 C 0 km/h
27 13-12-2010 05:17:05 -5.2 C 2.25 g/m*3 -5.2 C 0 km/h
28 13-12-2010 05:29:05 -6 C 2.19 g/m*3 -6 C 0 km/h
29 13-12-2010 05:41:05 -6.5 C 2.17 g/m*3 -6.5 C 0 km/h
30 13-12-2010 05:53:05 -6.6 C 2.24 g/m*3 -6.6 C 0 km/h
31 13-12-2010 06:05:05 -6.2 C 2.31 g/m*3 -6.2 C 0 km/h
32 13-12-2010 06:17:05 -6.3 C 2.32 g/m*3 -6.3 C 0 km/h
33 13-12-2010 06:29:05 -7 C 2.18 g/m*3 -7 C 0 km/h
34 13-12-2010 06:41:05 -7.5 C 2.13 g/m*3 -7.5 C 0 km/h
35 13-12-2010 06:53:05 -7.7 C 2.13 g/m*3 -7.7 C 0 km/h
36 13-12-2010 07:05:05 -7.2 C 2.23 g/m*3 -7.2 C 0 km/h
37 13-12-2010 07:17:05 -6.8 C 2.3 g/m*3 -6.8 C 0 km/h
38 13-12-2010 07:29:05 -7.2 C 2.2 g/m*3 -7.2 C 0 km/h
39 13-12-2010 07:41:02 -7.3 C 2.19 g/m*3 -7.3 C 0 km/h
40 13-12-2010 07:53:02 -7.5 C 2.19 g/m*3 -7.5 C 0 km/h
41 13-12-2010 08:05:01 -6.9 C 2.31 g/m*3 -6.9 C 0 km/h
42 13-12-2010 08:17:02 -7.2 C 2.26 g/m*3 -7.2 C 0 km/h
43 13-12-2010 08:29:02 -7.3 C 2.25 g/m*3 -7.3 C 0 km/h
44 13-12-2010 08:41:01 -7.3 C 2.25 g/m*3 -7.3 C 0 km/h
45 13-12-2010 08:53:02 -7.2 C 2.29 g/m*3 -7.2 C 0 km/h
46 13-12-2010 09:05:02 -7.3 C 2.25 g/m*3 -7.3 C 0 km/h
47 13-12-2010 09:17:02 -7.4 C 2.23 g/m*3 -7.4 C 0 km/h
48 13-12-2010 09:29:02 -7.3 C 2.25 g/m*3 -7.3 C 0 km/h
49 13-12-2010 09:41:02 -6.8 C 2.36 g/m*3 -6.8 C 0 km/h
50 13-12-2010 09:53:01 -6.8 C 2.36 g/m*3 -6.8 C 0 km/h
Sensor: Nr:Datum:Temp:Abs-Feuchte:Windchill:Wind:
Aussen-T/F 51 13-12-2010 10:05:02 -7.1 C 2.31 g/m*3 -7.1 C 0 km/h
52 13-12-2010 10:17:01 -7 C 2.33 g/m*3 -7 C 0 km/h
53 13-12-2010 10:29:01 -6.6 C 2.39 g/m*3 -6.6 C 0 km/h
54 13-12-2010 10:41:02 -6.6 C 2.39 g/m*3 -6.6 C 0 km/h
55 13-12-2010 10:53:02 -5.8 C 2.57 g/m*3 -5.8 C 0 km/h
56 13-12-2010 11:05:02 -4.9 C 2.71 g/m*3 -4.9 C 0 km/h
57 13-12-2010 11:17:01 -4.4 C 2.7 g/m*3 -4.4 C 0 km/h
58 13-12-2010 11:29:01 -4 C 2.6 g/m*3 -4 C 0 km/h
59 13-12-2010 11:41:02 -3.5 C 2.58 g/m*3 -3.5 C 0 km/h
60 13-12-2010 11:53:01 -3.2 C 2.56 g/m*3 -3.2 C 0 km/h
61 13-12-2010 12:05:02 -2.8 C 2.59 g/m*3 -2.8 C 0 km/h
62 13-12-2010 12:17:02 -2.8 C 2.51 g/m*3 -2.8 C 0 km/h
63 13-12-2010 12:29:02 -2.9 C 2.49 g/m*3 -2.9 C 0 km/h
64 13-12-2010 12:41:01 -2.8 C 2.51 g/m*3 -2.8 C 0 km/h
65 13-12-2010 12:53:02 -2.6 C 2.51 g/m*3 -2.6 C 0 km/h
66 13-12-2010 13:05:01 -2.5 C 2.56 g/m*3 -2.5 C 0 km/h
67 13-12-2010 13:17:02 -2.5 C 2.52 g/m*3 -2.5 C 0 km/h
68 13-12-2010 13:29:03 -2.3 C 2.52 g/m*3 -2.3 C 0 km/h
69 13-12-2010 13:41:01 -2.3 C 2.44 g/m*3 -2.3 C 0 km/h
70 13-12-2010 13:53:02 -2 C 2.44 g/m*3 -2 C 0 km/h
71 13-12-2010 14:05:02 -1.9 C 2.38 g/m*3 -1.9 C 0 km/h
72 13-12-2010 14:17:02 -2 C 2.36 g/m*3 -2 C 0 km/h
73 13-12-2010 14:29:02 -2.1 C 2.39 g/m*3 -2.1 C 0 km/h
74 13-12-2010 14:41:03 -2.3 C 2.39 g/m*3 -2.3 C 0 km/h
75 13-12-2010 14:53:02 -2.7 C 2.45 g/m*3 -2.7 C 0 km/h
Sensor: Nr:Datum:Temp:Abs-Feuchte:Windchill:Wind:
Aussen-T/F 76 13-12-2010 15:05:02 -2.9 C 2.45 g/m*3 -2.9 C 0 km/h
77 13-12-2010 15:17:01 -3.1 C 2.46 g/m*3 -3.1 C 0 km/h
78 13-12-2010 15:29:01 -3.4 C 2.48 g/m*3 -3.4 C 0 km/h
79 13-12-2010 15:41:02 -4.2 C 2.45 g/m*3 -4.2 C 0 km/h
80 13-12-2010 15:53:02 -4.7 C 2.51 g/m*3 -4.7 C 0 km/h
81 13-12-2010 16:05:03 -4.7 C 2.57 g/m*3 -4.7 C 0 km/h
82 13-12-2010 16:17:02 -4.8 C 2.59 g/m*3 -4.8 C 0 km/h
83 13-12-2010 16:29:02 -5 C 2.59 g/m*3 -5 C 0 km/h
84 13-12-2010 16:41:02 -5.3 C 2.53 g/m*3 -5.3 C 0 km/h
85 13-12-2010 16:53:02 -5.1 C 2.6 g/m*3 -5.1 C 0 km/h
86 13-12-2010 17:05:02 -5.6 C 2.54 g/m*3 -5.6 C 0 km/h
87 13-12-2010 17:17:01 -5.5 C 2.56 g/m*3 -5.5 C 0 km/h
88 13-12-2010 17:29:01 -6 C 2.47 g/m*3 -6 C 0 km/h
89 13-12-2010 17:41:02 -6.1 C 2.48 g/m*3 -6.1 C 0 km/h
90 13-12-2010 17:53:02 -6.2 C 2.43 g/m*3 -6.2 C 0 km/h
91 13-12-2010 18:05:02 -6 C 2.5 g/m*3 -6 C 0 km/h
92 13-12-2010 18:17:02 -6.2 C 2.47 g/m*3 -6.2 C 0 km/h
93 13-12-2010 18:29:02 -6.5 C 2.41 g/m*3 -6.5 C 0 km/h
94 13-12-2010 18:41:02 -6.1 C 2.52 g/m*3 -6.1 C 0 km/h
95 13-12-2010 18:53:02 -6.2 C 2.53 g/m*3 -6.2 C 0 km/h
96 13-12-2010 19:05:02 -6.2 C 2.53 g/m*3 -6.2 C 0 km/h
97 13-12-2010 19:17:02 -5.6 C 2.67 g/m*3 -5.6 C 0 km/h
98 13-12-2010 19:29:02 -5.3 C 2.77 g/m*3 -5.3 C 0 km/h
99 13-12-2010 19:41:02 -5.1 C 2.81 g/m*3 -5.1 C 0 km/h
100 13-12-2010 19:53:02 -5 C 2.83 g/m*3 -5 C 0 km/h
Sensor: Nr:Datum:Temp:Abs-Feuchte:Windchill:Wind:
Aussen-T/F 101 13-12-2010 20:05:02 -4.9 C 2.85 g/m*3 -4.9 C 0 km/h
102 13-12-2010 20:17:02 -5.3 C 2.7 g/m*3 -5.3 C 0 km/h
103 13-12-2010 20:29:02 -5.1 C 2.74 g/m*3 -5.1 C 0 km/h
104 13-12-2010 20:41:02 -4.6 C 2.84 g/m*3 -4.6 C 0 km/h
105 13-12-2010 20:53:02 -4.4 C 2.88 g/m*3 -4.4 C 0 km/h
106 13-12-2010 21:05:02 -4.4 C 2.84 g/m*3 -4.4 C 0 km/h
107 13-12-2010 21:17:02 -4.3 C 2.83 g/m*3 -4.3 C 0 km/h
108 13-12-2010 21:29:03 -4.2 C 2.81 g/m*3 -4.2 C 0 km/h
109 13-12-2010 21:41:02 -4.1 C 2.8 g/m*3 -4.1 C 0 km/h
110 13-12-2010 21:53:02 -4.1 C 2.8 g/m*3 -4.1 C 0 km/h
111 13-12-2010 22:05:01 -3.9 C 2.84 g/m*3 -3.9 C 0 km/h
112 13-12-2010 22:17:02 -3.9 C 2.84 g/m*3 -3.9 C 0 km/h
113 13-12-2010 22:29:02 -3.7 C 2.84 g/m*3 -3.7 C 0 km/h
114 13-12-2010 22:41:02 -4 C 2.85 g/m*3 -4 C 0 km/h
115 13-12-2010 22:53:02 -4.1 C 2.91 g/m*3 -4.1 C 0 km/h
116 13-12-2010 23:05:02 -4.1 C 2.94 g/m*3 -4.1 C 0 km/h
117 13-12-2010 23:17:02 -4.1 C 2.98 g/m*3 -4.1 C 0 km/h
118 13-12-2010 23:29:02 -4.1 C 3.01 g/m*3 -4.1 C 0 km/h
119 13-12-2010 23:41:02 -4.1 C 3.01 g/m*3 -4.1 C 0 km/h
120 13-12-2010 23:53:02 -4.1 C 3.05 g/m*3 -4.1 C 0 km/h
121 14-12-2010 00:05:02 -4.1 C 3.05 g/m*3 -4.1 C 0 km/h
122 14-12-2010 00:17:02 -4.1 C 3.01 g/m*3 -4.1 C 0 km/h
123 14-12-2010 00:29:02 -4.1 C 3.01 g/m*3 -4.1 C 0 km/h
124 14-12-2010 00:41:02 -4.1 C 3.01 g/m*3 -4.1 C 0 km/h
125 14-12-2010 00:53:03 -4.1 C 3.01 g/m*3 -4.1 C 0 km/h
Sensor: Nr:Datum:Temp:Abs-Feuchte:Windchill:Wind:
Aussen-T/F 126 14-12-2010 01:05:03 -4.1 C 3.01 g/m*3 -4.1 C 0 km/h
127 14-12-2010 01:17:03 -4.1 C 3.01 g/m*3 -4.1 C 0 km/h
128 14-12-2010 01:29:03 -4.1 C 3.01 g/m*3 -4.1 C 0 km/h
129 14-12-2010 01:41:03 -4 C 3.07 g/m*3 -4 C 0 km/h
130 14-12-2010 01:53:03 -4 C 3.04 g/m*3 -4 C 0 km/h
131 14-12-2010 02:05:03 -3.9 C 3.06 g/m*3 -3.9 C 0 km/h
132 14-12-2010 02:17:03 -3.9 C 3.06 g/m*3 -3.9 C 0 km/h
133 14-12-2010 02:29:03 -3.9 C 3.06 g/m*3 -3.9 C 0 km/h
134 14-12-2010 02:41:03 -3.8 C 3.08 g/m*3 -3.8 C 0 km/h
135 14-12-2010 02:53:03 -3.7 C 3.1 g/m*3 -3.7 C 0 km/h
136 14-12-2010 03:05:03 -3.7 C 3.1 g/m*3 -3.7 C 0 km/h
137 14-12-2010 03:17:03 -3.7 C 3.1 g/m*3 -3.7 C 0 km/h
138 14-12-2010 03:29:03 -3.7 C 3.1 g/m*3 -3.7 C 0 km/h
139 14-12-2010 03:41:03 -3.7 C 3.1 g/m*3 -3.7 C 0 km/h
140 14-12-2010 03:53:03 -3.5 C 3.15 g/m*3 -3.5 C 0 km/h
141 14-12-2010 04:05:03 -3.7 C 3.1 g/m*3 -3.7 C 0 km/h
142 14-12-2010 04:17:03 -3.5 C 3.11 g/m*3 -3.5 C 0 km/h
143 14-12-2010 04:29:03 -3.5 C 3.11 g/m*3 -3.5 C 0 km/h
144 14-12-2010 04:41:03 -3.7 C 3.06 g/m*3 -3.7 C 0 km/h
145 14-12-2010 04:53:04 -3.7 C 3.06 g/m*3 -3.7 C 0 km/h
146 14-12-2010 05:05:04 -3.7 C 3.06 g/m*3 -3.7 C 0 km/h
147 14-12-2010 05:17:04 -3.7 C 3.06 g/m*3 -3.7 C 0 km/h
148 14-12-2010 05:29:04 -3.8 C 3.04 g/m*3 -3.8 C 0 km/h
149 14-12-2010 05:41:04 -3.8 C 3.04 g/m*3 -3.8 C 0 km/h
150 14-12-2010 05:53:04 -4 C 3 g/m*3 -4 C 0 km/h
Sensor: Nr:Datum:Temp:Abs-Feuchte:Windchill:Wind:
Aussen-T/F 151 14-12-2010 06:05:04 -4.3 C 2.94 g/m*3 -4.3 C 0 km/h
152 14-12-2010 06:17:04 -4.9 C 2.81 g/m*3 -4.9 C 0 km/h
153 14-12-2010 06:29:04 -5 C 2.79 g/m*3 -5 C 0 km/h
154 14-12-2010 06:41:04 -4.7 C 2.89 g/m*3 -4.7 C 0 km/h
155 14-12-2010 06:53:04 -4.6 C 2.94 g/m*3 -4.6 C 0 km/h
156 14-12-2010 07:05:04 -5.3 C 2.77 g/m*3 -5.3 C 0 km/h
157 14-12-2010 07:17:04 -6 C 2.63 g/m*3 -6 C 0 km/h
158 14-12-2010 07:29:04 -6.4 C 2.55 g/m*3 -6.4 C 0 km/h
159 14-12-2010 07:41:04 -6.6 C 2.52 g/m*3 -6.6 C 0 km/h
160 14-12-2010 07:53:01 -6.8 C 2.51 g/m*3 -6.8 C 0 km/h
161 14-12-2010 08:05:01 -6.8 C 2.51 g/m*3 -6.8 C 0 km/h
162 14-12-2010 08:17:01 -6.8 C 2.54 g/m*3 -6.8 C 0 km/h
163 14-12-2010 08:29:01 -6 C 2.72 g/m*3 -6 C 0 km/h
164 14-12-2010 08:41:01 -5.9 C 2.74 g/m*3 -5.9 C 0 km/h
165 14-12-2010 08:53:02 -6.4 C 2.61 g/m*3 -6.4 C 0 km/h
166 14-12-2010 09:05:01 -6.4 C 2.61 g/m*3 -6.4 C 0 km/h
167 14-12-2010 09:17:01 -6.1 C 2.67 g/m*3 -6.1 C 0 km/h
168 14-12-2010 09:29:02 -5.7 C 2.75 g/m*3 -5.7 C 0 km/h
169 14-12-2010 09:41:01 -6 C 2.69 g/m*3 -6 C 0 km/h
170 14-12-2010 09:53:02 -5.8 C 2.73 g/m*3 -5.8 C 0 km/h
171 14-12-2010 10:05:01 -4.9 C 2.92 g/m*3 -4.9 C 0 km/h
172 14-12-2010 10:17:01 -4.3 C 3.04 g/m*3 -4.3 C 0 km/h
173 14-12-2010 10:29:01 -4 C 3.04 g/m*3 -4 C 0 km/h
174 14-12-2010 10:41:02 -3.7 C 3.03 g/m*3 -3.7 C 0 km/h
175 14-12-2010 10:53:01 -3.4 C 2.98 g/m*3 -3.4 C 0 km/h
Sensor: Nr:Datum:Temp:Abs-Feuchte:Windchill:Wind:
Aussen-T/F 176 14-12-2010 11:05:02 -3.3 C 2.85 g/m*3 -3.3 C 0 km/h
177 14-12-2010 11:17:01 -3.2 C 2.75 g/m*3 -3.2 C 0 km/h
178 14-12-2010 11:29:01 -3.6 C 2.63 g/m*3 -3.6 C 0 km/h
179 14-12-2010 11:41:02 -3.2 C 2.79 g/m*3 -3.2 C 0 km/h
180 14-12-2010 11:53:01 -2.9 C 2.73 g/m*3 -2.9 C 0 km/h
181 14-12-2010 12:05:02 -2.8 C 2.67 g/m*3 -2.8 C 0 km/h
182 14-12-2010 12:17:01 -2.4 C 2.66 g/m*3 -2.4 C 0 km/h
183 14-12-2010 12:29:01 -2.5 C 2.6 g/m*3 -2.5 C 0 km/h
184 14-12-2010 12:41:01 -2.3 C 2.68 g/m*3 -2.3 C 0 km/h
185 14-12-2010 12:53:01 -2.1 C 2.68 g/m*3 -2.1 C 0 km/h
186 14-12-2010 13:05:01 -2.3 C 2.68 g/m*3 -2.3 C 0 km/h
187 14-12-2010 13:17:02 -2.3 C 2.64 g/m*3 -2.3 C 0 km/h
188 14-12-2010 13:29:02 -2.2 C 2.62 g/m*3 -2.2 C 0 km/h
189 14-12-2010 13:41:01 -2.1 C 2.6 g/m*3 -2.1 C 0 km/h
190 14-12-2010 13:53:02 -2.1 C 2.64 g/m*3 -2.1 C 0 km/h
191 14-12-2010 14:05:01 -2.3 C 2.64 g/m*3 -2.3 C 0 km/h
192 14-12-2010 14:17:02 -2.5 C 2.65 g/m*3 -2.5 C 0 km/h
193 14-12-2010 14:29:02 -2.4 C 2.7 g/m*3 -2.4 C 0 km/h
194 14-12-2010 14:41:01 -2.4 C 2.66 g/m*3 -2.4 C 0 km/h
195 14-12-2010 14:53:02 -2.6 C 2.63 g/m*3 -2.6 C 0 km/h
196 14-12-2010 15:05:01 -2.7 C 2.65 g/m*3 -2.7 C 0 km/h
197 14-12-2010 15:17:01 -2.7 C 2.69 g/m*3 -2.7 C 0 km/h
198 14-12-2010 15:29:01 -2.8 C 2.71 g/m*3 -2.8 C 0 km/h
199 14-12-2010 15:41:02 -2.8 C 2.71 g/m*3 -2.8 C 0 km/h
200 14-12-2010 15:53:01 -2.8 C 2.75 g/m*3 -2.8 C 0 km/h
Sensor: Nr:Datum:Temp:Abs-Feuchte:Windchill:Wind:
Aussen-T/F 201 14-12-2010 16:05:02 -2.8 C 2.75 g/m*3 -2.8 C 0 km/h
202 14-12-2010 16:17:01 -2.8 C 2.79 g/m*3 -2.8 C 0 km/h
203 14-12-2010 16:29:01 -2.9 C 2.81 g/m*3 -2.9 C 0 km/h
204 14-12-2010 16:41:02 -3 C 2.83 g/m*3 -3 C 0 km/h
205 14-12-2010 16:53:01 -3 C 2.83 g/m*3 -3 C 0 km/h
206 14-12-2010 17:05:02 -3 C 2.87 g/m*3 -3 C 0 km/h
207 14-12-2010 17:17:01 -3 C 2.87 g/m*3 -3 C 0 km/h
208 14-12-2010 17:29:01 -3 C 2.95 g/m*3 -3 C 0 km/h
209 14-12-2010 17:41:01 -3 C 2.95 g/m*3 -3 C 0 km/h
210 14-12-2010 17:53:01 -2.9 C 2.93 g/m*3 -2.9 C 0 km/h
211 14-12-2010 18:05:01 -3.1 C 2.85 g/m*3 -3.1 C 0 km/h
212 14-12-2010 18:17:02 -3 C 2.79 g/m*3 -3 C 0 km/h
213 14-12-2010 18:29:02 -3.2 C 2.71 g/m*3 -3.2 C 0 km/h
214 14-12-2010 18:41:01 -3 C 2.79 g/m*3 -3 C 0 km/h
215 14-12-2010 18:53:02 -3 C 2.79 g/m*3 -3 C 0 km/h
216 14-12-2010 19:05:01 -2.8 C 2.83 g/m*3 -2.8 C 0 km/h
217 14-12-2010 19:17:02 -2.8 C 2.83 g/m*3 -2.8 C 0 km/h
218 14-12-2010 19:29:02 -2.8 C 2.87 g/m*3 -2.8 C 0 km/h
219 14-12-2010 19:41:01 -2.8 C 2.87 g/m*3 -2.8 C 0 km/h
220 14-12-2010 19:53:02 -2.9 C 2.81 g/m*3 -2.9 C 0 km/h
221 14-12-2010 20:05:01 -3 C 2.79 g/m*3 -3 C 0 km/h
222 14-12-2010 20:17:01 -3 C 2.79 g/m*3 -3 C 0 km/h
223 14-12-2010 20:29:01 -3 C 2.75 g/m*3 -3 C 0 km/h
224 14-12-2010 20:41:02 -3.1 C 2.69 g/m*3 -3.1 C 0 km/h
225 14-12-2010 20:53:01 -3.1 C 2.69 g/m*3 -3.1 C 0 km/h
Sensor: Nr:Datum:Temp:Abs-Feuchte:Windchill:Wind:
Aussen-T/F 226 14-12-2010 21:05:02 -3.1 C 2.65 g/m*3 -3.1 C 0 km/h
227 14-12-2010 21:17:01 -3.1 C 2.65 g/m*3 -3.1 C 0 km/h
228 14-12-2010 21:29:01 -3.1 C 2.65 g/m*3 -3.1 C 0 km/h
229 14-12-2010 21:41:02 -3.1 C 2.65 g/m*3 -3.1 C 0 km/h
230 14-12-2010 21:53:02 -3.2 C 2.59 g/m*3 -3.2 C 0 km/h
231 14-12-2010 22:05:02 -3.2 C 2.59 g/m*3 -3.2 C 0 km/h
232 14-12-2010 22:17:02 -3.2 C 2.56 g/m*3 -3.2 C 0 km/h
233 14-12-2010 22:29:02 -3.2 C 2.59 g/m*3 -3.2 C 0 km/h
234 14-12-2010 22:42:04 -3.1 C 2.57 g/m*3 -3.1 C 0 km/h
235 14-12-2010 22:54:04 -3.1 C 2.57 g/m*3 -3.1 C 0 km/h
236 14-12-2010 23:06:04 -3.2 C 2.52 g/m*3 -3.2 C 0 km/h
237 14-12-2010 23:18:04 -3.2 C 2.52 g/m*3 -3.2 C 0 km/h
238 14-12-2010 23:30:05 -3.2 C 2.48 g/m*3 -3.2 C 0 km/h
239 14-12-2010 23:42:05 -3.2 C 2.52 g/m*3 -3.2 C 0 km/h
240 14-12-2010 23:54:05 -3.3 C 2.5 g/m*3 -3.3 C 0 km/h
241 15-12-2010 00:06:05 -3.3 C 2.5 g/m*3 -3.3 C 0 km/h
242 15-12-2010 00:18:05 -3.3 C 2.5 g/m*3 -3.3 C 0 km/h
243 15-12-2010 00:30:05 -3.3 C 2.5 g/m*3 -3.3 C 0 km/h
244 15-12-2010 00:42:05 -3.3 C 2.5 g/m*3 -3.3 C 0 km/h
245 15-12-2010 00:54:05 -3.3 C 2.5 g/m*3 -3.3 C 0 km/h
246 15-12-2010 01:06:05 -3.3 C 2.54 g/m*3 -3.3 C 0 km/h
247 15-12-2010 01:18:05 -3.2 C 2.56 g/m*3 -3.2 C 0 km/h
248 15-12-2010 01:30:05 -3.2 C 2.59 g/m*3 -3.2 C 0 km/h
249 15-12-2010 01:42:05 -3.3 C 2.58 g/m*3 -3.3 C 0 km/h
250 15-12-2010 01:54:05 -3.3 C 2.58 g/m*3 -3.3 C 0 km/h
Sensor: Nr:Datum:Temp:Abs-Feuchte:Windchill:Wind:
Aussen-T/F 251 15-12-2010 02:06:05 -3.7 C 2.54 g/m*3 -3.7 C 0 km/h
252 15-12-2010 02:18:05 -4 C 2.56 g/m*3 -4 C 0 km/h
253 15-12-2010 02:30:05 -3.9 C 2.58 g/m*3 -3.9 C 0 km/h
254 15-12-2010 02:42:05 -4.5 C 2.51 g/m*3 -4.5 C 0 km/h
255 15-12-2010 02:54:05 -4.7 C 2.51 g/m*3 -4.7 C 0 km/h
256 15-12-2010 03:06:05 -4.7 C 2.54 g/m*3 -4.7 C 0 km/h
257 15-12-2010 03:18:05 -5 C 2.45 g/m*3 -5 C 0 km/h
258 15-12-2010 03:30:05 -4.8 C 2.52 g/m*3 -4.8 C 0 km/h
259 15-12-2010 03:42:05 -5.2 C 2.45 g/m*3 -5.2 C 0 km/h
260 15-12-2010 03:54:05 -4.8 C 2.56 g/m*3 -4.8 C 0 km/h
261 15-12-2010 04:06:06 -4.7 C 2.57 g/m*3 -4.7 C 0 km/h
262 15-12-2010 04:18:06 -4.3 C 2.65 g/m*3 -4.3 C 0 km/h
263 15-12-2010 04:30:06 -4.5 C 2.58 g/m*3 -4.5 C 0 km/h
264 15-12-2010 04:42:06 -5.4 C 2.41 g/m*3 -5.4 C 0 km/h
265 15-12-2010 04:54:06 -5.4 C 2.48 g/m*3 -5.4 C 0 km/h
266 15-12-2010 05:06:06 -4.9 C 2.61 g/m*3 -4.9 C 0 km/h
267 15-12-2010 05:18:06 -4.9 C 2.61 g/m*3 -4.9 C 0 km/h
268 15-12-2010 05:30:06 -4.8 C 2.63 g/m*3 -4.8 C 0 km/h
269 15-12-2010 05:42:06 -4.6 C 2.66 g/m*3 -4.6 C 0 km/h
270 15-12-2010 05:54:06 -4.4 C 2.67 g/m*3 -4.4 C 0 km/h
271 15-12-2010 06:06:06 -4 C 2.71 g/m*3 -4 C 0 km/h
272 15-12-2010 06:18:06 -3.8 C 2.71 g/m*3 -3.8 C 0 km/h
273 15-12-2010 06:30:06 -3.8 C 2.67 g/m*3 -3.8 C 0 km/h
274 15-12-2010 06:42:06 -3.8 C 2.71 g/m*3 -3.8 C 0 km/h
275 15-12-2010 06:54:06 -3.5 C 2.77 g/m*3 -3.5 C 0 km/h
Sensor: Nr:Datum:Temp:Abs-Feuchte:Windchill:Wind:
Aussen-T/F 276 15-12-2010 07:06:06 -3.5 C 2.81 g/m*3 -3.5 C 0 km/h
277 15-12-2010 07:18:06 -3.5 C 2.81 g/m*3 -3.5 C 0 km/h
278 15-12-2010 07:30:06 -3.4 C 2.83 g/m*3 -3.4 C 0 km/h
279 15-12-2010 07:42:06 -3.4 C 2.79 g/m*3 -3.4 C 0 km/h
280 15-12-2010 07:54:02 -3.3 C 2.85 g/m*3 -3.3 C 0 km/h
281 15-12-2010 08:06:03 -3.3 C 2.85 g/m*3 -3.3 C 0 km/h
282 15-12-2010 08:18:02 -3.4 C 2.83 g/m*3 -3.4 C 0 km/h
283 15-12-2010 08:30:02 -3.4 C 2.86 g/m*3 -3.4 C 0 km/h
284 15-12-2010 08:42:02 -3.3 C 2.92 g/m*3 -3.3 C 0 km/h
285 15-12-2010 08:54:02 -3.1 C 2.96 g/m*3 -3.1 C 0 km/h
286 15-12-2010 09:06:01 -2.9 C 3.01 g/m*3 -2.9 C 0 km/h
287 15-12-2010 09:18:02 -2.6 C 3.03 g/m*3 -2.6 C 0 km/h
288 15-12-2010 09:30:02 -2.6 C 2.99 g/m*3 -2.6 C 0 km/h
289 15-12-2010 09:42:02 -2.4 C 3.03 g/m*3 -2.4 C 0 km/h
290 15-12-2010 09:54:01 -2.3 C 3.05 g/m*3 -2.3 C 0 km/h
291 15-12-2010 10:06:02 -2.1 C 3.1 g/m*3 -2.1 C 0 km/h
292 15-12-2010 10:18:01 -2 C 3.12 g/m*3 -2 C 0 km/h
293 15-12-2010 10:30:01 -1.8 C 3.21 g/m*3 -1.8 C 0 km/h
294 15-12-2010 10:42:01 -1.5 C 3.32 g/m*3 -1.5 C 0 km/h
295 15-12-2010 10:54:01 -1.4 C 3.39 g/m*3 -1.4 C 0 km/h
296 15-12-2010 11:06:02 -1.2 C 3.43 g/m*3 -1.2 C 0 km/h
297 15-12-2010 11:18:01 -0.8 C 3.53 g/m*3 -0.8 C 0 km/h
298 15-12-2010 11:30:01 -0.5 C 3.56 g/m*3 -0.5 C 0 km/h
299 15-12-2010 11:42:01 -0.5 C 3.51 g/m*3 -0.5 C 0 km/h
300 15-12-2010 11:54:01 -0.4 C 3.53 g/m*3 -0.4 C 0 km/h
Sensor: Nr:Datum:Temp:Abs-Feuchte:Windchill:Wind:
Aussen-T/F 301 15-12-2010 12:06:01 -0.4 C 3.53 g/m*3 -0.4 C 0 km/h
302 15-12-2010 12:18:02 -0.4 C 3.49 g/m*3 -0.4 C 0 km/h
303 15-12-2010 12:30:02 -0.4 C 3.49 g/m*3 -0.4 C 0 km/h
304 15-12-2010 12:42:01 -0.5 C 3.46 g/m*3 -0.5 C 0 km/h
305 15-12-2010 12:54:58 -0.7 C 3.37 g/m*3 -0.7 C 0 km/h
306 15-12-2010 13:06:58 -0.8 C 3.44 g/m*3 -0.8 C 0 km/h
307 15-12-2010 13:18:58 -0.5 C 3.56 g/m*3 -0.5 C 0 km/h
308 15-12-2010 13:30:01 -0.4 C 3.53 g/m*3 -0.4 C 0 km/h
309 15-12-2010 13:42:01 0.1 C 3.71 g/m*3 0.1 C 0 km/h
310 15-12-2010 13:54:02 -0.3 C 3.56 g/m*3 -0.3 C 0 km/h
311 15-12-2010 14:06:01 0 C 3.63 g/m*3 0 C 0 km/h
312 15-12-2010 14:18:01 -0.1 C 3.42 g/m*3 -0.1 C 0 km/h
313 15-12-2010 14:30:01 -0.2 C 3.35 g/m*3 -0.2 C 0 km/h
314 15-12-2010 14:42:02 0 C 3.34 g/m*3 0 C 0 km/h
315 15-12-2010 14:54:02 -0.3 C 3.08 g/m*3 -0.3 C 0 km/h
316 15-12-2010 15:06:02 -0.8 C 2.84 g/m*3 -0.8 C 0 km/h
317 15-12-2010 15:18:02 -1.2 C 2.76 g/m*3 -1.2 C 0 km/h
318 15-12-2010 15:30:02 -1.5 C 2.75 g/m*3 -1.5 C 0 km/h
319 15-12-2010 15:42:02 -1.8 C 2.78 g/m*3 -1.8 C 0 km/h
320 15-12-2010 15:54:01 -1.9 C 2.84 g/m*3 -1.9 C 0 km/h
321 15-12-2010 16:06:01 -2.4 C 2.83 g/m*3 -2.4 C 0 km/h
322 15-12-2010 16:18:01 -2.2 C 2.91 g/m*3 -2.2 C 0 km/h
323 15-12-2010 16:30:01 -2.7 C 2.73 g/m*3 -2.7 C 0 km/h
324 15-12-2010 16:42:01 -4.2 C 2.49 g/m*3 -4.2 C 0 km/h
325 15-12-2010 16:54:01 -4.5 C 2.58 g/m*3 -4.5 C 0 km/h
Sensor: Nr:Datum:Temp:Abs-Feuchte:Windchill:Wind:
Aussen-T/F 326 15-12-2010 17:06:01 -4.5 C 2.68 g/m*3 -4.5 C 0 km/h
327 15-12-2010 17:18:02 -4.3 C 2.76 g/m*3 -4.3 C 0 km/h
328 15-12-2010 17:30:02 -4.3 C 2.76 g/m*3 -4.3 C 0 km/h
329 15-12-2010 17:42:01 -4.3 C 2.76 g/m*3 -4.3 C 0 km/h
330 15-12-2010 17:54:01 -4.3 C 2.76 g/m*3 -4.3 C 0 km/h
331 15-12-2010 18:06:01 -4.8 C 2.76 g/m*3 -4.8 C 0 km/h
332 15-12-2010 18:18:02 -4.8 C 2.76 g/m*3 -4.8 C 0 km/h
333 15-12-2010 18:30:02 -5.3 C 2.67 g/m*3 -5.3 C 0 km/h
334 15-12-2010 18:42:01 -4.9 C 2.78 g/m*3 -4.9 C 0 km/h
335 15-12-2010 18:54:03 -4.5 C 2.89 g/m*3 -4.5 C 0 km/h
336 15-12-2010 19:06:02 -4.5 C 2.89 g/m*3 -4.5 C 0 km/h
337 15-12-2010 19:18:02 -4.5 C 2.86 g/m*3 -4.5 C 0 km/h
338 15-12-2010 19:30:03 -4.2 C 2.92 g/m*3 -4.2 C 0 km/h
339 15-12-2010 19:42:02 -4.2 C 2.89 g/m*3 -4.2 C 0 km/h
340 15-12-2010 19:54:02 -4.7 C 2.75 g/m*3 -4.7 C 0 km/h
341 15-12-2010 20:06:01 -4.6 C 2.73 g/m*3 -4.6 C 0 km/h
342 15-12-2010 20:18:02 -3.4 C 2.98 g/m*3 -3.4 C 0 km/h
343 15-12-2010 20:30:02 -3.5 C 2.84 g/m*3 -3.5 C 0 km/h
344 15-12-2010 20:42:02 -3.3 C 2.81 g/m*3 -3.3 C 0 km/h
345 15-12-2010 20:54:01 -3.3 C 2.77 g/m*3 -3.3 C 0 km/h
346 15-12-2010 21:06:02 -3.2 C 2.79 g/m*3 -3.2 C 0 km/h
347 15-12-2010 21:19:03 -3.1 C 2.77 g/m*3 -3.1 C 0 km/h
348 15-12-2010 21:31:03 -3.1 C 2.77 g/m*3 -3.1 C 0 km/h
349 15-12-2010 21:43:03 -3.2 C 2.75 g/m*3 -3.2 C 0 km/h
350 15-12-2010 21:55:03 -3.3 C 2.77 g/m*3 -3.3 C 0 km/h
Sensor: Nr:Datum:Temp:Abs-Feuchte:Windchill:Wind:
Aussen-T/F 351 15-12-2010 22:07:03 -3.3 C 2.81 g/m*3 -3.3 C 0 km/h
352 15-12-2010 22:19:03 -3.3 C 2.81 g/m*3 -3.3 C 0 km/h
353 15-12-2010 22:31:03 -3.8 C 2.75 g/m*3 -3.8 C 0 km/h
354 15-12-2010 22:43:03 -4.5 C 2.65 g/m*3 -4.5 C 0 km/h
355 15-12-2010 22:55:03 -4 C 2.82 g/m*3 -4 C 0 km/h
356 15-12-2010 23:07:03 -4.2 C 2.78 g/m*3 -4.2 C 0 km/h
357 15-12-2010 23:19:03 -4.5 C 2.75 g/m*3 -4.5 C 0 km/h
358 15-12-2010 23:31:03 -4.2 C 2.85 g/m*3 -4.2 C 0 km/h
359 15-12-2010 23:43:03 -5 C 2.66 g/m*3 -5 C 0 km/h
360 15-12-2010 23:55:03 -4.8 C 2.76 g/m*3 -4.8 C 0 km/h
361 16-12-2010 00:07:04 -4.8 C 2.8 g/m*3 -4.8 C 0 km/h
362 16-12-2010 00:19:04 -4.3 C 2.94 g/m*3 -4.3 C 0 km/h
363 16-12-2010 00:31:04 -4.3 C 2.94 g/m*3 -4.3 C 0 km/h
364 16-12-2010 00:43:04 -4.8 C 2.83 g/m*3 -4.8 C 0 km/h
365 16-12-2010 00:55:04 -5.2 C 2.75 g/m*3 -5.2 C 0 km/h
366 16-12-2010 01:07:04 -5.1 C 2.81 g/m*3 -5.1 C 0 km/h
367 16-12-2010 01:19:04 -5 C 2.83 g/m*3 -5 C 0 km/h
368 16-12-2010 01:31:04 -4.6 C 2.94 g/m*3 -4.6 C 0 km/h
369 16-12-2010 01:43:04 -4.7 C 2.89 g/m*3 -4.7 C 0 km/h
370 16-12-2010 01:55:04 -4.8 C 2.87 g/m*3 -4.8 C 0 km/h
371 16-12-2010 02:07:04 -4.8 C 2.87 g/m*3 -4.8 C 0 km/h
372 16-12-2010 02:19:04 -4.9 C 2.81 g/m*3 -4.9 C 0 km/h
373 16-12-2010 02:31:04 -5.5 C 2.66 g/m*3 -5.5 C 0 km/h
374 16-12-2010 02:43:04 -5.8 C 2.64 g/m*3 -5.8 C 0 km/h
375 16-12-2010 02:55:04 -5.5 C 2.69 g/m*3 -5.5 C 0 km/h
Sensor: Nr:Datum:Temp:Abs-Feuchte:Windchill:Wind:
Aussen-T/F 376 16-12-2010 03:07:04 -5.6 C 2.71 g/m*3 -5.6 C 0 km/h
377 16-12-2010 03:19:04 -5.3 C 2.77 g/m*3 -5.3 C 0 km/h
378 16-12-2010 03:31:04 -5.4 C 2.75 g/m*3 -5.4 C 0 km/h
379 16-12-2010 03:43:04 -5.3 C 2.77 g/m*3 -5.3 C 0 km/h
380 16-12-2010 03:55:04 -5.2 C 2.79 g/m*3 -5.2 C 0 km/h
381 16-12-2010 04:07:05 -5.2 C 2.79 g/m*3 -5.2 C 0 km/h
382 16-12-2010 04:19:05 -5.3 C 2.73 g/m*3 -5.3 C 0 km/h
383 16-12-2010 04:31:05 -5.6 C 2.64 g/m*3 -5.6 C 0 km/h
384 16-12-2010 04:43:05 -5.8 C 2.6 g/m*3 -5.8 C 0 km/h
385 16-12-2010 04:55:05 -6 C 2.53 g/m*3 -6 C 0 km/h
386 16-12-2010 05:07:05 -6.1 C 2.48 g/m*3 -6.1 C 0 km/h
387 16-12-2010 05:19:05 -6.2 C 2.47 g/m*3 -6.2 C 0 km/h
388 16-12-2010 05:31:05 -6.3 C 2.42 g/m*3 -6.3 C 0 km/h
389 16-12-2010 05:43:05 -6.5 C 2.38 g/m*3 -6.5 C 0 km/h
390 16-12-2010 05:55:05 -6.9 C 2.31 g/m*3 -6.9 C 0 km/h
391 16-12-2010 06:07:05 -7.3 C 2.28 g/m*3 -7.3 C 0 km/h
392 16-12-2010 06:19:05 -7.4 C 2.29 g/m*3 -7.4 C 0 km/h
393 16-12-2010 06:31:05 -7.6 C 2.25 g/m*3 -7.6 C 0 km/h
394 16-12-2010 06:43:05 -7.6 C 2.23 g/m*3 -7.6 C 0 km/h
395 16-12-2010 06:55:05 -7.8 C 2.19 g/m*3 -7.8 C 0 km/h
396 16-12-2010 07:07:05 -8.1 C 2.14 g/m*3 -8.1 C 0 km/h
397 16-12-2010 07:19:05 -7.9 C 2.18 g/m*3 -7.9 C 0 km/h
398 16-12-2010 07:31:05 -8.1 C 2.14 g/m*3 -8.1 C 0 km/h
399 16-12-2010 07:43:05 -8.6 C 2.04 g/m*3 -8.6 C 0 km/h
400 16-12-2010 07:55:02 -8.7 C 2.03 g/m*3 -8.7 C 0 km/h
Sensor: Nr:Datum:Temp:Abs-Feuchte:Windchill:Wind:
Aussen-T/F 401 16-12-2010 08:07:01 -8.8 C 2.04 g/m*3 -8.8 C 0 km/h
402 16-12-2010 08:19:01 -8.2 C 2.13 g/m*3 -8.2 C 0 km/h
403 16-12-2010 08:31:02 -7.8 C 2.22 g/m*3 -7.8 C 0 km/h
404 16-12-2010 08:43:02 -7.5 C 2.24 g/m*3 -7.5 C 0 km/h
405 16-12-2010 08:55:02 -7 C 2.3 g/m*3 -7 C 0 km/h
406 16-12-2010 09:07:01 -6.9 C 2.28 g/m*3 -6.9 C 0 km/h
407 16-12-2010 09:19:01 -6.8 C 2.27 g/m*3 -6.8 C 0 km/h
408 16-12-2010 09:31:01 -6.8 C 2.21 g/m*3 -6.8 C 0 km/h
409 16-12-2010 09:43:01 -6.6 C 2.24 g/m*3 -6.6 C 0 km/h
410 16-12-2010 09:55:02 -5.9 C 2.3 g/m*3 -5.9 C 0 km/h
411 16-12-2010 10:07:01 -5.2 C 2.38 g/m*3 -5.2 C 0 km/h
412 16-12-2010 10:19:01 -5.2 C 2.38 g/m*3 -5.2 C 0 km/h
413 16-12-2010 10:31:01 -5 C 2.45 g/m*3 -5 C 0 km/h
414 16-12-2010 10:43:01 -4.7 C 2.51 g/m*3 -4.7 C 0 km/h
415 16-12-2010 10:55:02 -4.1 C 2.62 g/m*3 -4.1 C 0 km/h
416 16-12-2010 11:07:02 -3.7 C 2.65 g/m*3 -3.7 C 0 km/h
417 16-12-2010 11:19:02 -3.5 C 2.65 g/m*3 -3.5 C 0 km/h
418 16-12-2010 11:31:02 -3.3 C 2.69 g/m*3 -3.3 C 0 km/h
419 16-12-2010 11:43:02 -3.3 C 2.65 g/m*3 -3.3 C 0 km/h
420 16-12-2010 11:55:02 -3.3 C 2.61 g/m*3 -3.3 C 0 km/h
421 16-12-2010 12:07:02 -3.1 C 2.69 g/m*3 -3.1 C 0 km/h
422 16-12-2010 12:19:02 -3.1 C 2.73 g/m*3 -3.1 C 0 km/h
423 16-12-2010 12:31:01 -3 C 2.75 g/m*3 -3 C 0 km/h
424 16-12-2010 12:43:01 -2.6 C 2.87 g/m*3 -2.6 C 0 km/h
425 16-12-2010 12:55:02 -2.4 C 2.95 g/m*3 -2.4 C 0 km/h
Sensor: Nr:Datum:Temp:Abs-Feuchte:Windchill:Wind:
Aussen-T/F 426 16-12-2010 13:07:02 -2.2 C 2.95 g/m*3 -2.2 C 0 km/h
427 16-12-2010 13:19:02 -2.2 C 2.95 g/m*3 -2.2 C 0 km/h
428 16-12-2010 13:31:02 -2.1 C 3.01 g/m*3 -2.1 C 0 km/h
429 16-12-2010 13:43:02 -2.1 C 3.01 g/m*3 -2.1 C 0 km/h
430 16-12-2010 13:55:02 -2 C 3.03 g/m*3 -2 C 0 km/h
431 16-12-2010 14:07:02 -1.9 C 3.1 g/m*3 -1.9 C 0 km/h
432 16-12-2010 14:19:01 -1.9 C 3.14 g/m*3 -1.9 C 0 km/h
433 16-12-2010 14:31:02 -1.8 C 3.21 g/m*3 -1.8 C 0 km/h
434 16-12-2010 14:43:02 -1.6 C 3.25 g/m*3 -1.6 C 0 km/h
435 16-12-2010 14:55:02 -1.4 C 3.3 g/m*3 -1.4 C 0 km/h
436 16-12-2010 15:07:02 -1.5 C 3.32 g/m*3 -1.5 C 0 km/h
437 16-12-2010 15:19:01 -1.5 C 3.45 g/m*3 -1.5 C 0 km/h
438 16-12-2010 15:31:02 -1.5 C 3.49 g/m*3 -1.5 C 0 km/h
439 16-12-2010 15:43:02 -1.2 C 3.52 g/m*3 -1.2 C 0 km/h
440 16-12-2010 15:55:02 -1.3 C 3.45 g/m*3 -1.3 C 0 km/h
441 16-12-2010 16:07:02 -1.4 C 3.43 g/m*3 -1.4 C 0 km/h
442 16-12-2010 16:19:02 -1.5 C 3.41 g/m*3 -1.5 C 0 km/h
443 16-12-2010 16:31:02 -1.4 C 3.39 g/m*3 -1.4 C 0 km/h
444 16-12-2010 16:43:02 -1.1 C 3.46 g/m*3 -1.1 C 0 km/h
445 16-12-2010 16:55:01 -1.1 C 3.46 g/m*3 -1.1 C 0 km/h
446 16-12-2010 17:07:02 -1.4 C 3.43 g/m*3 -1.4 C 0 km/h
447 16-12-2010 17:19:02 -1.4 C 3.43 g/m*3 -1.4 C 0 km/h
448 16-12-2010 17:31:02 -1.2 C 3.48 g/m*3 -1.2 C 0 km/h
449 16-12-2010 17:43:02 -1.2 C 3.48 g/m*3 -1.2 C 0 km/h
450 16-12-2010 17:55:02 -1.1 C 3.55 g/m*3 -1.1 C 0 km/h
Sensor: Nr:Datum:Temp:Abs-Feuchte:Windchill:Wind:
Aussen-T/F 451 16-12-2010 18:07:01 -0.9 C 3.6 g/m*3 -0.9 C 0 km/h
452 16-12-2010 18:19:02 -0.7 C 3.65 g/m*3 -0.7 C 0 km/h
453 16-12-2010 18:31:02 -0.6 C 3.63 g/m*3 -0.6 C 0 km/h
454 16-12-2010 18:43:02 -0.6 C 3.58 g/m*3 -0.6 C 0 km/h
455 16-12-2010 18:55:01 -0.7 C 3.6 g/m*3 -0.7 C 0 km/h
456 16-12-2010 19:07:01 -0.4 C 3.68 g/m*3 -0.4 C 0 km/h
457 16-12-2010 19:19:01 -0.5 C 3.6 g/m*3 -0.5 C 0 km/h
458 16-12-2010 19:31:02 -0.2 C 3.73 g/m*3 -0.2 C 0 km/h
459 16-12-2010 19:43:02 -0.3 C 3.65 g/m*3 -0.3 C 0 km/h
460 16-12-2010 19:55:02 0 C 3.68 g/m*3 0 C 0 km/h
461 16-12-2010 20:07:02 0 C 3.68 g/m*3 0 C 0 km/h
462 16-12-2010 20:19:01 0 C 3.68 g/m*3 0 C 0 km/h
463 16-12-2010 20:31:02 0 C 3.68 g/m*3 0 C 0 km/h
464 16-12-2010 20:43:02 0 C 3.68 g/m*3 0 C 0 km/h
465 16-12-2010 20:55:02 0.1 C 3.71 g/m*3 0.1 C 0 km/h
466 16-12-2010 21:08:03 0 C 3.73 g/m*3 0 C 0 km/h
467 16-12-2010 21:20:03 -0.2 C 3.78 g/m*3 -0.2 C 0 km/h
468 16-12-2010 21:32:03 -0.2 C 3.78 g/m*3 -0.2 C 0 km/h
469 16-12-2010 21:44:03 -0.1 C 3.85 g/m*3 -0.1 C 0 km/h
470 16-12-2010 21:56:03 -0.1 C 3.8 g/m*3 -0.1 C 0 km/h
471 16-12-2010 22:08:03 -0.1 C 3.85 g/m*3 -0.1 C 0 km/h
472 16-12-2010 22:20:03 -0.2 C 3.87 g/m*3 -0.2 C 0 km/h
473 16-12-2010 22:32:03 -0.3 C 3.89 g/m*3 -0.3 C 0 km/h
474 16-12-2010 22:44:03 -0.5 C 3.88 g/m*3 -0.5 C 0 km/h
475 16-12-2010 22:56:03 -0.6 C 3.9 g/m*3 -0.6 C 0 km/h
Sensor: Nr:Datum:Temp:Abs-Feuchte:Windchill:Wind:
Aussen-T/F 476 16-12-2010 23:08:03 -0.5 C 3.93 g/m*3 -0.5 C 0 km/h
477 16-12-2010 23:20:03 -0.4 C 3.86 g/m*3 -0.4 C 0 km/h
478 16-12-2010 23:32:03 -0.5 C 3.79 g/m*3 -0.5 C 0 km/h
479 16-12-2010 23:44:03 -0.4 C 3.82 g/m*3 -0.4 C 0 km/h
480 16-12-2010 23:56:03 -0.5 C 3.79 g/m*3 -0.5 C 0 km/h
481 17-12-2010 00:08:03 -0.5 C 3.79 g/m*3 -0.5 C 0 km/h
482 17-12-2010 00:20:03 -0.3 C 3.84 g/m*3 -0.3 C 0 km/h
483 17-12-2010 00:32:03 -0.3 C 3.84 g/m*3 -0.3 C 0 km/h
484 17-12-2010 00:44:03 -0.1 C 3.9 g/m*3 -0.1 C 0 km/h
485 17-12-2010 00:56:04 -0.2 C 3.87 g/m*3 -0.2 C 0 km/h
486 17-12-2010 01:08:04 -0.2 C 3.87 g/m*3 -0.2 C 0 km/h
487 17-12-2010 01:20:04 -0.3 C 3.89 g/m*3 -0.3 C 0 km/h
488 17-12-2010 01:32:04 -0.4 C 3.86 g/m*3 -0.4 C 0 km/h
489 17-12-2010 01:44:04 -0.4 C 3.91 g/m*3 -0.4 C 0 km/h
490 17-12-2010 01:56:04 -0.4 C 3.86 g/m*3 -0.4 C 0 km/h
491 17-12-2010 02:08:04 -0.5 C 3.79 g/m*3 -0.5 C 0 km/h
492 17-12-2010 02:20:04 -0.5 C 3.7 g/m*3 -0.5 C 0 km/h
493 17-12-2010 02:32:04 -0.6 C 3.58 g/m*3 -0.6 C 0 km/h
494 17-12-2010 02:44:04 -0.6 C 3.53 g/m*3 -0.6 C 0 km/h
495 17-12-2010 02:56:04 -0.7 C 3.51 g/m*3 -0.7 C 0 km/h
496 17-12-2010 03:08:04 -1.1 C 3.37 g/m*3 -1.1 C 0 km/h
497 17-12-2010 03:20:04 -1.3 C 3.36 g/m*3 -1.3 C 0 km/h
498 17-12-2010 03:32:04 -1.2 C 3.39 g/m*3 -1.2 C 0 km/h
499 17-12-2010 03:44:04 -1.2 C 3.34 g/m*3 -1.2 C 0 km/h
500 17-12-2010 03:56:04 -1.2 C 3.34 g/m*3 -1.2 C 0 km/h
Sensor: Nr:Datum:Temp:Abs-Feuchte:Windchill:Wind:
Aussen-T/F 501 17-12-2010 04:08:04 -1.1 C 3.23 g/m*3 -1.1 C 0 km/h
502 17-12-2010 04:20:04 -1.2 C 3.12 g/m*3 -1.2 C 0 km/h
503 17-12-2010 04:32:04 -1.3 C 3.14 g/m*3 -1.3 C 0 km/h
504 17-12-2010 04:44:04 -1.3 C 3.14 g/m*3 -1.3 C 0 km/h
505 17-12-2010 04:56:04 -1.5 C 3.14 g/m*3 -1.5 C 0 km/h
506 17-12-2010 05:08:05 -1.3 C 3.28 g/m*3 -1.3 C 0 km/h
507 17-12-2010 05:20:05 -1.5 C 3.27 g/m*3 -1.5 C 0 km/h
508 17-12-2010 05:32:05 -1.7 C 3.27 g/m*3 -1.7 C 0 km/h
509 17-12-2010 05:44:05 -1.8 C 3.25 g/m*3 -1.8 C 0 km/h
510 17-12-2010 05:56:05 -1.8 C 3.21 g/m*3 -1.8 C 0 km/h
511 17-12-2010 06:08:05 -1.9 C 3.14 g/m*3 -1.9 C 0 km/h
512 17-12-2010 06:20:05 -2.2 C 3.08 g/m*3 -2.2 C 0 km/h
513 17-12-2010 06:32:05 -2.3 C 3.01 g/m*3 -2.3 C 0 km/h
514 17-12-2010 06:44:05 -2.6 C 2.83 g/m*3 -2.6 C 0 km/h
515 17-12-2010 06:56:05 -2.2 C 2.78 g/m*3 -2.2 C 0 km/h
516 17-12-2010 07:08:05 -2.2 C 2.62 g/m*3 -2.2 C 0 km/h
517 17-12-2010 07:20:04 -2.1 C 2.64 g/m*3 -2.1 C 0 km/h
518 17-12-2010 07:32:03 -2.3 C 2.64 g/m*3 -2.3 C 0 km/h
519 17-12-2010 07:44:03 -2.6 C 2.63 g/m*3 -2.6 C 0 km/h
520 17-12-2010 07:56:02 -2.2 C 2.74 g/m*3 -2.2 C 0 km/h
521 17-12-2010 08:08:02 -2.4 C 2.83 g/m*3 -2.4 C 0 km/h
522 17-12-2010 08:20:02 -2.4 C 2.99 g/m*3 -2.4 C 0 km/h
523 17-12-2010 08:32:02 -2.1 C 3.1 g/m*3 -2.1 C 0 km/h
524 17-12-2010 08:44:02 -2.1 C 3.06 g/m*3 -2.1 C 0 km/h
525 17-12-2010 08:56:02 -2.1 C 3.01 g/m*3 -2.1 C 0 km/h
Sensor: Nr:Datum:Temp:Abs-Feuchte:Windchill:Wind:
Aussen-T/F 526 17-12-2010 09:08:01 -2 C 2.95 g/m*3 -2 C 0 km/h
527 17-12-2010 09:20:02 -2 C 2.95 g/m*3 -2 C 0 km/h
528 17-12-2010 09:32:02 -1.9 C 3.01 g/m*3 -1.9 C 0 km/h
529 17-12-2010 09:44:02 -1.8 C 3.08 g/m*3 -1.8 C 0 km/h
530 17-12-2010 09:56:02 -1.9 C 3.06 g/m*3 -1.9 C 0 km/h
531 17-12-2010 10:08:02 -1.9 C 3.01 g/m*3 -1.9 C 0 km/h
532 17-12-2010 10:20:02 -1.8 C 2.95 g/m*3 -1.8 C 0 km/h
533 17-12-2010 10:32:02 -1.7 C 2.88 g/m*3 -1.7 C 0 km/h
534 17-12-2010 10:44:02 -1.8 C 2.86 g/m*3 -1.8 C 0 km/h
535 17-12-2010 10:56:01 -1.1 C 3.05 g/m*3 -1.1 C 0 km/h
536 17-12-2010 11:08:01 -1.5 C 2.92 g/m*3 -1.5 C 0 km/h
537 17-12-2010 11:20:01 -1.4 C 2.86 g/m*3 -1.4 C 0 km/h
538 17-12-2010 11:32:01 -1.1 C 2.78 g/m*3 -1.1 C 0 km/h
539 17-12-2010 11:44:01 -1.1 C 2.56 g/m*3 -1.1 C 0 km/h
540 17-12-2010 11:56:01 -0.9 C 2.55 g/m*3 -0.9 C 0 km/h
541 17-12-2010 12:08:01 -0.6 C 2.6 g/m*3 -0.6 C 0 km/h
542 17-12-2010 12:20:02 -1.2 C 2.54 g/m*3 -1.2 C 0 km/h
543 17-12-2010 12:32:01 -1.4 C 2.51 g/m*3 -1.4 C 0 km/h
544 17-12-2010 12:44:01 -1.2 C 2.54 g/m*3 -1.2 C 0 km/h
545 17-12-2010 12:56:03 -1.3 C 2.43 g/m*3 -1.3 C 0 km/h
546 17-12-2010 13:08:02 -1.9 C 2.38 g/m*3 -1.9 C 0 km/h
547 17-12-2010 13:20:02 -1 C 2.44 g/m*3 -1 C 0 km/h
548 17-12-2010 13:32:02 -1 C 2.44 g/m*3 -1 C 0 km/h
549 17-12-2010 13:44:02 -1 C 2.44 g/m*3 -1 C 0 km/h
550 17-12-2010 13:56:02 -1.2 C 2.45 g/m*3 -1.2 C 0 km/h
Sensor: Nr:Datum:Temp:Abs-Feuchte:Windchill:Wind:
Aussen-T/F 551 17-12-2010 14:08:01 -0.6 C 2.56 g/m*3 -0.6 C 0 km/h
552 17-12-2010 14:20:02 -1.1 C 2.51 g/m*3 -1.1 C 0 km/h
553 17-12-2010 14:32:02 -1.6 C 2.6 g/m*3 -1.6 C 0 km/h
554 17-12-2010 14:44:02 -1.8 C 2.74 g/m*3 -1.8 C 0 km/h
555 17-12-2010 14:56:02 -1.9 C 2.84 g/m*3 -1.9 C 0 km/h
556 17-12-2010 15:08:03 -1.9 C 2.93 g/m*3 -1.9 C 0 km/h
557 17-12-2010 15:20:02 -1.8 C 2.99 g/m*3 -1.8 C 0 km/h
558 17-12-2010 15:32:02 -1.7 C 2.97 g/m*3 -1.7 C 0 km/h
559 17-12-2010 15:44:03 -1.9 C 2.97 g/m*3 -1.9 C 0 km/h
560 17-12-2010 15:56:01 -1.8 C 3.04 g/m*3 -1.8 C 0 km/h
561 17-12-2010 16:08:02 -1.8 C 3.04 g/m*3 -1.8 C 0 km/h
562 17-12-2010 16:20:01 -1.9 C 3.01 g/m*3 -1.9 C 0 km/h
563 17-12-2010 16:32:01 -2.1 C 3.01 g/m*3 -2.1 C 0 km/h
564 17-12-2010 16:44:01 -2 C 3.03 g/m*3 -2 C 0 km/h
565 17-12-2010 16:56:01 -2.6 C 2.91 g/m*3 -2.6 C 0 km/h
566 17-12-2010 17:08:01 -3.4 C 2.83 g/m*3 -3.4 C 0 km/h
567 17-12-2010 17:20:01 -4.3 C 2.72 g/m*3 -4.3 C 0 km/h
568 17-12-2010 17:32:01 -4.2 C 2.81 g/m*3 -4.2 C 0 km/h
569 17-12-2010 17:44:01 -4.1 C 2.83 g/m*3 -4.1 C 0 km/h
570 17-12-2010 17:56:01 -4.3 C 2.79 g/m*3 -4.3 C 0 km/h
571 17-12-2010 18:08:02 -4.6 C 2.77 g/m*3 -4.6 C 0 km/h
572 17-12-2010 18:20:01 -4.8 C 2.76 g/m*3 -4.8 C 0 km/h
573 17-12-2010 18:32:01 -5.6 C 2.61 g/m*3 -5.6 C 0 km/h
574 17-12-2010 18:44:01 -5.8 C 2.6 g/m*3 -5.8 C 0 km/h
575 17-12-2010 18:56:01 -5.3 C 2.73 g/m*3 -5.3 C 0 km/h
Sensor: Nr:Datum:Temp:Abs-Feuchte:Windchill:Wind:
Aussen-T/F 576 17-12-2010 19:08:02 -6.2 C 2.53 g/m*3 -6.2 C 0 km/h
577 17-12-2010 19:20:02 -6.5 C 2.5 g/m*3 -6.5 C 0 km/h
578 17-12-2010 19:32:01 -6.1 C 2.61 g/m*3 -6.1 C 0 km/h
579 17-12-2010 19:44:01 -6.7 C 2.47 g/m*3 -6.7 C 0 km/h
580 17-12-2010 19:56:01 -6.9 C 2.43 g/m*3 -6.9 C 0 km/h
581 17-12-2010 20:08:02 -6.6 C 2.52 g/m*3 -6.6 C 0 km/h
582 17-12-2010 20:20:01 -6.6 C 2.52 g/m*3 -6.6 C 0 km/h
583 17-12-2010 20:32:02 -6.6 C 2.52 g/m*3 -6.6 C 0 km/h
584 17-12-2010 20:44:02 -6.5 C 2.53 g/m*3 -6.5 C 0 km/h
585 17-12-2010 20:56:02 -6.6 C 2.52 g/m*3 -6.6 C 0 km/h
586 17-12-2010 21:08:02 -6.8 C 2.48 g/m*3 -6.8 C 0 km/h
587 17-12-2010 21:20:02 -6.8 C 2.48 g/m*3 -6.8 C 0 km/h
588 17-12-2010 21:32:02 -7 C 2.41 g/m*3 -7 C 0 km/h
589 17-12-2010 21:44:02 -7.1 C 2.4 g/m*3 -7.1 C 0 km/h
590 17-12-2010 21:57:02 -7 C 2.41 g/m*3 -7 C 0 km/h
591 17-12-2010 22:09:02 -7.3 C 2.36 g/m*3 -7.3 C 0 km/h
592 17-12-2010 22:21:02 -7.4 C 2.34 g/m*3 -7.4 C 0 km/h
593 17-12-2010 22:33:02 -7.2 C 2.38 g/m*3 -7.2 C 0 km/h
594 17-12-2010 22:45:02 -6.6 C 2.52 g/m*3 -6.6 C 0 km/h
595 17-12-2010 22:57:02 -6.1 C 2.61 g/m*3 -6.1 C 0 km/h
596 17-12-2010 23:09:02 -6.2 C 2.59 g/m*3 -6.2 C 0 km/h
597 17-12-2010 23:21:02 -6 C 2.63 g/m*3 -6 C 0 km/h
598 17-12-2010 23:33:02 -6 C 2.63 g/m*3 -6 C 0 km/h
599 17-12-2010 23:45:02 -5.8 C 2.7 g/m*3 -5.8 C 0 km/h
600 17-12-2010 23:57:03 -5.5 C 2.76 g/m*3 -5.5 C 0 km/h
Sensor: Nr:Datum:Temp:Abs-Feuchte:Windchill:Wind:
Aussen-T/F 601 18-12-2010 00:09:03 -5.2 C 2.82 g/m*3 -5.2 C 0 km/h
602 18-12-2010 00:21:03 -4.9 C 2.92 g/m*3 -4.9 C 0 km/h
603 18-12-2010 00:33:03 -4.7 C 2.96 g/m*3 -4.7 C 0 km/h
604 18-12-2010 00:45:03 -4.5 C 3 g/m*3 -4.5 C 0 km/h
605 18-12-2010 00:57:03 -4.4 C 2.99 g/m*3 -4.4 C 0 km/h
606 18-12-2010 01:09:03 -4.3 C 2.97 g/m*3 -4.3 C 0 km/h
607 18-12-2010 01:21:03 -4.3 C 2.94 g/m*3 -4.3 C 0 km/h
608 18-12-2010 01:33:03 -4.2 C 2.96 g/m*3 -4.2 C 0 km/h
609 18-12-2010 01:45:03 -4.6 C 2.84 g/m*3 -4.6 C 0 km/h
610 18-12-2010 01:57:03 -4.8 C 2.8 g/m*3 -4.8 C 0 km/h
611 18-12-2010 02:09:03 -5.2 C 2.68 g/m*3 -5.2 C 0 km/h
612 18-12-2010 02:21:03 -5.9 C 2.55 g/m*3 -5.9 C 0 km/h
613 18-12-2010 02:33:03 -5.4 C 2.68 g/m*3 -5.4 C 0 km/h
614 18-12-2010 02:45:03 -5.3 C 2.73 g/m*3 -5.3 C 0 km/h
615 18-12-2010 02:57:03 -4.6 C 2.84 g/m*3 -4.6 C 0 km/h
616 18-12-2010 03:09:03 -4.5 C 2.82 g/m*3 -4.5 C 0 km/h
617 18-12-2010 03:21:03 -4.4 C 2.84 g/m*3 -4.4 C 0 km/h
618 18-12-2010 03:33:03 -4.3 C 2.86 g/m*3 -4.3 C 0 km/h
619 18-12-2010 03:45:03 -4.3 C 2.9 g/m*3 -4.3 C 0 km/h
620 18-12-2010 03:57:03 -4.3 C 2.94 g/m*3 -4.3 C 0 km/h
621 18-12-2010 04:09:03 -4.4 C 2.92 g/m*3 -4.4 C 0 km/h
622 18-12-2010 04:21:04 -4.4 C 2.92 g/m*3 -4.4 C 0 km/h
623 18-12-2010 04:33:04 -4.3 C 2.97 g/m*3 -4.3 C 0 km/h
624 18-12-2010 04:45:04 -4.4 C 2.95 g/m*3 -4.4 C 0 km/h
625 18-12-2010 04:57:04 -4.3 C 2.97 g/m*3 -4.3 C 0 km/h
Sensor: Nr:Datum:Temp:Abs-Feuchte:Windchill:Wind:
Aussen-T/F 626 18-12-2010 05:09:04 -4.4 C 2.99 g/m*3 -4.4 C 0 km/h
627 18-12-2010 05:21:04 -4.4 C 2.99 g/m*3 -4.4 C 0 km/h
628 18-12-2010 05:33:04 -4.5 C 2.96 g/m*3 -4.5 C 0 km/h
629 18-12-2010 05:45:04 -4.4 C 2.99 g/m*3 -4.4 C 0 km/h
630 18-12-2010 05:57:04 -4.5 C 2.96 g/m*3 -4.5 C 0 km/h
631 18-12-2010 06:09:04 -4.4 C 2.99 g/m*3 -4.4 C 0 km/h
632 18-12-2010 06:21:04 -4.4 C 2.99 g/m*3 -4.4 C 0 km/h
633 18-12-2010 06:33:04 -4.4 C 2.99 g/m*3 -4.4 C 0 km/h
634 18-12-2010 06:45:04 -4.3 C 3.01 g/m*3 -4.3 C 0 km/h
635 18-12-2010 06:57:04 -4.2 C 3.07 g/m*3 -4.2 C 0 km/h
636 18-12-2010 07:09:04 -4.2 C 3.07 g/m*3 -4.2 C 0 km/h
637 18-12-2010 07:21:04 -4.8 C 2.9 g/m*3 -4.8 C 0 km/h
638 18-12-2010 07:33:04 -5.4 C 2.78 g/m*3 -5.4 C 0 km/h
639 18-12-2010 07:45:04 -6.2 C 2.62 g/m*3 -6.2 C 0 km/h
640 18-12-2010 07:57:04 -5.7 C 2.72 g/m*3 -5.7 C 0 km/h
641 18-12-2010 08:09:04 -5.3 C 2.83 g/m*3 -5.3 C 0 km/h
642 18-12-2010 08:21:04 -5.3 C 2.83 g/m*3 -5.3 C 0 km/h
643 18-12-2010 08:33:04 -5.5 C 2.76 g/m*3 -5.5 C 0 km/h
644 18-12-2010 08:45:05 -5.4 C 2.78 g/m*3 -5.4 C 0 km/h
645 18-12-2010 08:57:05 -5.2 C 2.79 g/m*3 -5.2 C 0 km/h
646 18-12-2010 09:09:02 -5.2 C 2.75 g/m*3 -5.2 C 0 km/h
647 18-12-2010 09:21:02 -5.1 C 2.74 g/m*3 -5.1 C 0 km/h
648 18-12-2010 09:33:02 -4.9 C 2.71 g/m*3 -4.9 C 0 km/h
649 18-12-2010 09:45:02 -4.6 C 2.73 g/m*3 -4.6 C 0 km/h
650 18-12-2010 09:57:02 -4.4 C 2.7 g/m*3 -4.4 C 0 km/h
Sensor: Nr:Datum:Temp:Abs-Feuchte:Windchill:Wind:
Aussen-T/F 651 18-12-2010 10:09:02 -4.2 C 2.67 g/m*3 -4.2 C 0 km/h
652 18-12-2010 10:21:02 -4.1 C 2.65 g/m*3 -4.1 C 0 km/h
653 18-12-2010 10:33:02 -3.8 C 2.71 g/m*3 -3.8 C 0 km/h
654 18-12-2010 10:45:02 -3.5 C 2.73 g/m*3 -3.5 C 0 km/h
655 18-12-2010 10:57:02 -3.5 C 2.65 g/m*3 -3.5 C 0 km/h
656 18-12-2010 11:09:03 -3.5 C 2.62 g/m*3 -3.5 C 0 km/h
657 18-12-2010 11:21:02 -3.9 C 2.62 g/m*3 -3.9 C 0 km/h
658 18-12-2010 11:33:02 -3.5 C 2.69 g/m*3 -3.5 C 0 km/h
659 18-12-2010 11:45:01 -3.2 C 2.59 g/m*3 -3.2 C 0 km/h
660 18-12-2010 11:57:01 -3.3 C 2.42 g/m*3 -3.3 C 0 km/h
661 18-12-2010 12:09:02 -3.6 C 2.41 g/m*3 -3.6 C 0 km/h
662 18-12-2010 12:21:01 -3.8 C 2.49 g/m*3 -3.8 C 0 km/h
663 18-12-2010 12:33:01 -3.3 C 2.5 g/m*3 -3.3 C 0 km/h
664 18-12-2010 12:45:01 -2.9 C 2.49 g/m*3 -2.9 C 0 km/h
665 18-12-2010 12:57:01 -2.8 C 2.43 g/m*3 -2.8 C 0 km/h
666 18-12-2010 13:09:01 -3 C 2.36 g/m*3 -3 C 0 km/h
667 18-12-2010 13:21:02 -3.2 C 2.32 g/m*3 -3.2 C 0 km/h
668 18-12-2010 13:33:01 -3 C 2.36 g/m*3 -3 C 0 km/h
669 18-12-2010 13:45:03 -2.8 C 2.39 g/m*3 -2.8 C 0 km/h
670 18-12-2010 13:57:03 -2.8 C 2.39 g/m*3 -2.8 C 0 km/h
671 18-12-2010 14:09:02 -3.3 C 2.35 g/m*3 -3.3 C 0 km/h
672 18-12-2010 14:21:02 -3.2 C 2.32 g/m*3 -3.2 C 0 km/h
673 18-12-2010 14:33:02 -3.7 C 2.28 g/m*3 -3.7 C 0 km/h
674 18-12-2010 14:45:02 -4.2 C 2.27 g/m*3 -4.2 C 0 km/h
675 18-12-2010 14:57:02 -4.8 C 2.25 g/m*3 -4.8 C 0 km/h
Sensor: Nr:Datum:Temp:Abs-Feuchte:Windchill:Wind:
Aussen-T/F 676 18-12-2010 15:09:01 -4.7 C 2.3 g/m*3 -4.7 C 0 km/h
677 18-12-2010 15:21:02 -5.1 C 2.3 g/m*3 -5.1 C 0 km/h
678 18-12-2010 15:33:02 -5.6 C 2.28 g/m*3 -5.6 C 0 km/h
679 18-12-2010 15:45:02 -5.9 C 2.33 g/m*3 -5.9 C 0 km/h
680 18-12-2010 15:57:02 -6.1 C 2.33 g/m*3 -6.1 C 0 km/h
681 18-12-2010 16:09:03 -6.6 C 2.3 g/m*3 -6.6 C 0 km/h
682 18-12-2010 16:21:02 -6.9 C 2.25 g/m*3 -6.9 C 0 km/h
683 18-12-2010 16:33:02 -7 C 2.3 g/m*3 -7 C 0 km/h
684 18-12-2010 16:45:01 -7.5 C 2.24 g/m*3 -7.5 C 0 km/h
685 18-12-2010 16:57:01 -7.3 C 2.28 g/m*3 -7.3 C 0 km/h
686 18-12-2010 17:09:02 -7.6 C 2.25 g/m*3 -7.6 C 0 km/h
687 18-12-2010 17:21:01 -7.7 C 2.24 g/m*3 -7.7 C 0 km/h
688 18-12-2010 17:33:01 -7.9 C 2.23 g/m*3 -7.9 C 0 km/h
689 18-12-2010 17:45:01 -7.3 C 2.36 g/m*3 -7.3 C 0 km/h
690 18-12-2010 17:57:01 -7.3 C 2.36 g/m*3 -7.3 C 0 km/h
691 18-12-2010 18:09:01 -6.7 C 2.5 g/m*3 -6.7 C 0 km/h
692 18-12-2010 18:21:02 -6.8 C 2.48 g/m*3 -6.8 C 0 km/h
693 18-12-2010 18:33:01 -6.9 C 2.43 g/m*3 -6.9 C 0 km/h
694 18-12-2010 18:45:02 -6.8 C 2.45 g/m*3 -6.8 C 0 km/h
695 18-12-2010 18:57:02 -6.5 C 2.53 g/m*3 -6.5 C 0 km/h
696 18-12-2010 19:09:01 -5.8 C 2.7 g/m*3 -5.8 C 0 km/h
697 18-12-2010 19:21:02 -5.4 C 2.78 g/m*3 -5.4 C 0 km/h
698 18-12-2010 19:33:01 -5.4 C 2.78 g/m*3 -5.4 C 0 km/h
699 18-12-2010 19:45:02 -5.2 C 2.82 g/m*3 -5.2 C 0 km/h
700 18-12-2010 19:57:02 -4.9 C 2.88 g/m*3 -4.9 C 0 km/h
Sensor: Nr:Datum:Temp:Abs-Feuchte:Windchill:Wind:
Aussen-T/F 701 18-12-2010 20:09:02 -4.6 C 2.94 g/m*3 -4.6 C 0 km/h
702 18-12-2010 20:21:02 -4.4 C 2.99 g/m*3 -4.4 C 0 km/h
703 18-12-2010 20:33:02 -4.2 C 2.99 g/m*3 -4.2 C 0 km/h
704 18-12-2010 20:45:01 -4.4 C 2.95 g/m*3 -4.4 C 0 km/h
705 18-12-2010 20:57:01 -4.2 C 2.99 g/m*3 -4.2 C 0 km/h
706 18-12-2010 21:09:02 -4.1 C 3.01 g/m*3 -4.1 C 0 km/h
707 18-12-2010 21:21:01 -4.1 C 3.01 g/m*3 -4.1 C 0 km/h
708 18-12-2010 21:33:02 -3.9 C 3.06 g/m*3 -3.9 C 0 km/h
709 18-12-2010 21:46:03 -4 C 3.04 g/m*3 -4 C 0 km/h
710 18-12-2010 21:58:03 -3.8 C 3.12 g/m*3 -3.8 C 0 km/h
711 18-12-2010 22:10:03 -3.5 C 3.18 g/m*3 -3.5 C 0 km/h
712 18-12-2010 22:22:03 -3.5 C 3.18 g/m*3 -3.5 C 0 km/h
713 18-12-2010 22:34:03 -3.4 C 3.21 g/m*3 -3.4 C 0 km/h
714 18-12-2010 22:46:03 -3.4 C 3.21 g/m*3 -3.4 C 0 km/h
715 18-12-2010 22:58:03 -3.3 C 3.23 g/m*3 -3.3 C 0 km/h
716 18-12-2010 23:10:03 -3.2 C 3.25 g/m*3 -3.2 C 0 km/h
717 18-12-2010 23:22:03 -3.1 C 3.28 g/m*3 -3.1 C 0 km/h
718 18-12-2010 23:34:03 -3.1 C 3.28 g/m*3 -3.1 C 0 km/h
719 18-12-2010 23:46:03 -3.1 C 3.28 g/m*3 -3.1 C 0 km/h
720 18-12-2010 23:58:03 -2.9 C 3.32 g/m*3 -2.9 C 0 km/h
721 19-12-2010 00:10:03 -2.7 C 3.37 g/m*3 -2.7 C 0 km/h
722 19-12-2010 00:22:03 -2.7 C 3.37 g/m*3 -2.7 C 0 km/h
723 19-12-2010 00:34:04 -2.6 C 3.39 g/m*3 -2.6 C 0 km/h
724 19-12-2010 00:46:04 -2.4 C 3.44 g/m*3 -2.4 C 0 km/h
725 19-12-2010 00:58:04 -2.4 C 3.48 g/m*3 -2.4 C 0 km/h
Sensor: Nr:Datum:Temp:Abs-Feuchte:Windchill:Wind:
Aussen-T/F 726 19-12-2010 01:10:04 -2.4 C 3.52 g/m*3 -2.4 C 0 km/h
727 19-12-2010 01:22:04 -2.4 C 3.52 g/m*3 -2.4 C 0 km/h
728 19-12-2010 01:34:04 -2.4 C 3.52 g/m*3 -2.4 C 0 km/h
729 19-12-2010 01:46:04 -2.5 C 3.54 g/m*3 -2.5 C 0 km/h
730 19-12-2010 01:58:04 -2.5 C 3.54 g/m*3 -2.5 C 0 km/h
731 19-12-2010 02:10:04 -2.4 C 3.57 g/m*3 -2.4 C 0 km/h
732 19-12-2010 02:22:04 -2.5 C 3.54 g/m*3 -2.5 C 0 km/h
733 19-12-2010 02:34:04 -2.5 C 3.54 g/m*3 -2.5 C 0 km/h
734 19-12-2010 02:46:04 -2.5 C 3.54 g/m*3 -2.5 C 0 km/h
735 19-12-2010 02:58:04 -2.6 C 3.52 g/m*3 -2.6 C 0 km/h
736 19-12-2010 03:10:04 -2.7 C 3.49 g/m*3 -2.7 C 0 km/h
737 19-12-2010 03:22:04 -2.7 C 3.49 g/m*3 -2.7 C 0 km/h
738 19-12-2010 03:34:04 -2.7 C 3.49 g/m*3 -2.7 C 0 km/h
739 19-12-2010 03:46:04 -2.7 C 3.49 g/m*3 -2.7 C 0 km/h
740 19-12-2010 03:58:04 -2.7 C 3.49 g/m*3 -2.7 C 0 km/h
741 19-12-2010 04:10:04 -2.6 C 3.52 g/m*3 -2.6 C 0 km/h
742 19-12-2010 04:22:04 -2.5 C 3.54 g/m*3 -2.5 C 0 km/h
743 19-12-2010 04:34:04 -2.5 C 3.54 g/m*3 -2.5 C 0 km/h
744 19-12-2010 04:46:04 -2.4 C 3.57 g/m*3 -2.4 C 0 km/h
745 19-12-2010 04:58:05 -2.3 C 3.59 g/m*3 -2.3 C 0 km/h
746 19-12-2010 05:10:05 -1.6 C 3.77 g/m*3 -1.6 C 0 km/h
747 19-12-2010 05:22:05 -1.1 C 3.82 g/m*3 -1.1 C 0 km/h
748 19-12-2010 05:34:05 -0.9 C 3.69 g/m*3 -0.9 C 0 km/h
749 19-12-2010 05:46:05 -0.6 C 3.58 g/m*3 -0.6 C 0 km/h
750 19-12-2010 05:58:05 -0.9 C 3.46 g/m*3 -0.9 C 0 km/h
Sensor: Nr:Datum:Temp:Abs-Feuchte:Windchill:Wind:
Aussen-T/F 751 19-12-2010 06:10:05 -1.1 C 3.41 g/m*3 -1.1 C 0 km/h
752 19-12-2010 06:22:05 -1.4 C 3.3 g/m*3 -1.4 C 0 km/h
753 19-12-2010 06:34:05 -1.4 C 3.25 g/m*3 -1.4 C 0 km/h
754 19-12-2010 06:46:05 -1.7 C 3.19 g/m*3 -1.7 C 0 km/h
755 19-12-2010 06:58:05 -2.6 C 3.07 g/m*3 -2.6 C 0 km/h
756 19-12-2010 07:10:05 -2.8 C 3.03 g/m*3 -2.8 C 0 km/h
757 19-12-2010 07:22:05 -3.3 C 3.04 g/m*3 -3.3 C 0 km/h
758 19-12-2010 07:34:05 -2.7 C 3.21 g/m*3 -2.7 C 0 km/h
759 19-12-2010 07:46:05 -2 C 3.37 g/m*3 -2 C 0 km/h
760 19-12-2010 07:58:05 -2.1 C 3.31 g/m*3 -2.1 C 0 km/h
761 19-12-2010 08:10:05 -1.7 C 3.31 g/m*3 -1.7 C 0 km/h
762 19-12-2010 08:22:05 -2.7 C 3.09 g/m*3 -2.7 C 0 km/h
763 19-12-2010 08:34:05 -2.9 C 3.13 g/m*3 -2.9 C 0 km/h
764 19-12-2010 08:46:02 -2.9 C 3.16 g/m*3 -2.9 C 0 km/h
765 19-12-2010 08:58:02 -2.3 C 3.3 g/m*3 -2.3 C 0 km/h
766 19-12-2010 09:10:02 -2.1 C 3.31 g/m*3 -2.1 C 0 km/h
767 19-12-2010 09:22:02 -2.5 C 3.26 g/m*3 -2.5 C 0 km/h
768 19-12-2010 09:34:02 -2.4 C 3.32 g/m*3 -2.4 C 0 km/h
769 19-12-2010 09:46:02 -2 C 3.41 g/m*3 -2 C 0 km/h
770 19-12-2010 09:58:02 -1.2 C 3.57 g/m*3 -1.2 C 0 km/h
771 19-12-2010 10:10:02 -1.1 C 3.5 g/m*3 -1.1 C 0 km/h
772 19-12-2010 10:22:02 -1.1 C 3.41 g/m*3 -1.1 C 0 km/h
773 19-12-2010 10:34:02 -0.8 C 3.44 g/m*3 -0.8 C 0 km/h
774 19-12-2010 10:46:02 -0.9 C 3.37 g/m*3 -0.9 C 0 km/h
775 19-12-2010 10:58:02 -0.8 C 3.35 g/m*3 -0.8 C 0 km/h
Sensor: Nr:Datum:Temp:Abs-Feuchte:Windchill:Wind:
Aussen-T/F 776 19-12-2010 11:10:01 -0.7 C 3.37 g/m*3 -0.7 C 0 km/h
777 19-12-2010 11:22:02 -0.6 C 3.44 g/m*3 -0.6 C 0 km/h
778 19-12-2010 11:34:02 -0.4 C 3.58 g/m*3 -0.4 C 0 km/h
779 19-12-2010 11:46:02 -0.2 C 3.68 g/m*3 -0.2 C 0 km/h
780 19-12-2010 11:58:02 0 C 3.73 g/m*3 0 C 0 km/h
781 19-12-2010 12:10:02 0 C 3.59 g/m*3 0 C 0 km/h
782 19-12-2010 12:22:02 0.2 C 3.64 g/m*3 0.2 C 0 km/h
783 19-12-2010 12:34:02 0.6 C 3.69 g/m*3 0.6 C 0 km/h
784 19-12-2010 12:46:01 0.5 C 3.56 g/m*3 0.5 C 0 km/h
785 19-12-2010 12:58:01 0.2 C 3.54 g/m*3 0.2 C 0 km/h
786 19-12-2010 13:10:02 0.2 C 3.59 g/m*3 0.2 C 0 km/h
787 19-12-2010 13:22:01 0.2 C 3.68 g/m*3 0.2 C 0 km/h
788 19-12-2010 13:34:02 0.2 C 3.73 g/m*3 0.2 C 0 km/h
789 19-12-2010 13:46:01 0.1 C 3.76 g/m*3 0.1 C 0 km/h
790 19-12-2010 13:58:01 0 C 3.78 g/m*3 0 C 0 km/h
791 19-12-2010 14:10:02 -0.2 C 3.82 g/m*3 -0.2 C 0 km/h
792 19-12-2010 14:22:01 -0.2 C 3.92 g/m*3 -0.2 C 0 km/h
793 19-12-2010 14:34:02 -0.2 C 3.97 g/m*3 -0.2 C 0 km/h
794 19-12-2010 14:46:01 -0.1 C 3.99 g/m*3 -0.1 C 0 km/h
795 19-12-2010 14:58:01 -0.2 C 4.01 g/m*3 -0.2 C 0 km/h
796 19-12-2010 15:10:02 -0.4 C 4.01 g/m*3 -0.4 C 0 km/h
797 19-12-2010 15:22:02 -0.4 C 4.05 g/m*3 -0.4 C 0 km/h
798 19-12-2010 15:34:01 -0.4 C 4.1 g/m*3 -0.4 C 0 km/h
799 19-12-2010 15:46:02 -0.4 C 4.1 g/m*3 -0.4 C 0 km/h
800 19-12-2010 15:58:02 -0.4 C 4.15 g/m*3 -0.4 C 0 km/h
Sensor: Nr:Datum:Temp:Abs-Feuchte:Windchill:Wind:
Aussen-T/F 801 19-12-2010 16:10:01 -0.4 C 4.19 g/m*3 -0.4 C 0 km/h
802 19-12-2010 16:22:02 -0.3 C 4.22 g/m*3 -0.3 C 0 km/h
803 19-12-2010 16:34:01 -0.3 C 4.22 g/m*3 -0.3 C 0 km/h
804 19-12-2010 16:46:02 -0.2 C 4.25 g/m*3 -0.2 C 0 km/h
805 19-12-2010 16:58:02 -0.3 C 4.27 g/m*3 -0.3 C 0 km/h
806 19-12-2010 17:10:02 -0.2 C 4.3 g/m*3 -0.2 C 0 km/h
807 19-12-2010 17:22:02 -0.2 C 4.3 g/m*3 -0.2 C 0 km/h
808 19-12-2010 17:34:03 -0.2 C 4.35 g/m*3 -0.2 C 0 km/h
809 19-12-2010 17:46:02 -0.2 C 4.35 g/m*3 -0.2 C 0 km/h
810 19-12-2010 17:58:03 -0.2 C 4.35 g/m*3 -0.2 C 0 km/h
811 19-12-2010 18:10:01 -0.2 C 4.35 g/m*3 -0.2 C 0 km/h
812 19-12-2010 18:22:02 -0.2 C 4.35 g/m*3 -0.2 C 0 km/h
813 19-12-2010 18:34:02 -0.2 C 4.35 g/m*3 -0.2 C 0 km/h
814 19-12-2010 18:46:02 -0.2 C 4.35 g/m*3 -0.2 C 0 km/h
815 19-12-2010 18:58:02 -0.1 C 4.43 g/m*3 -0.1 C 0 km/h
816 19-12-2010 19:10:02 -0.1 C 4.43 g/m*3 -0.1 C 0 km/h
817 19-12-2010 19:22:02 -0.1 C 4.43 g/m*3 -0.1 C 0 km/h
818 19-12-2010 19:34:02 0 C 4.46 g/m*3 0 C 0 km/h
819 19-12-2010 19:46:02 0 C 4.46 g/m*3 0 C 0 km/h
820 19-12-2010 19:58:02 0 C 4.46 g/m*3 0 C 0 km/h
821 19-12-2010 20:10:02 0 C 4.46 g/m*3 0 C 0 km/h
822 19-12-2010 20:22:02 0 C 4.46 g/m*3 0 C 0 km/h
823 19-12-2010 20:34:02 0.1 C 4.49 g/m*3 0.1 C 0 km/h
824 19-12-2010 20:46:02 0.1 C 4.49 g/m*3 0.1 C 0 km/h
825 19-12-2010 20:58:02 0.2 C 4.57 g/m*3 0.2 C 0 km/h
Sensor: Nr:Datum:Temp:Abs-Feuchte:Windchill:Wind:
Aussen-T/F 826 19-12-2010 21:10:02 0.3 C 4.6 g/m*3 0.3 C 0 km/h
827 19-12-2010 21:22:03 0.4 C 4.63 g/m*3 0.4 C 0 km/h
828 19-12-2010 21:34:02 1 C 4.78 g/m*3 1 C 0 km/h
829 19-12-2010 21:46:03 1.8 C 5.1 g/m*3 1.8 C 0 km/h
830 19-12-2010 21:58:03 2 C 5.11 g/m*3 2 C 0 km/h
831 19-12-2010 22:10:03 1.9 C 5.08 g/m*3 1.9 C 0 km/h
832 19-12-2010 22:22:02 1.7 C 5.01 g/m*3 1.7 C 0 km/h
833 19-12-2010 22:34:02 1.5 C 4.94 g/m*3 1.5 C 0 km/h
834 19-12-2010 22:46:01 1.6 C 4.92 g/m*3 1.6 C 0 km/h
835 19-12-2010 22:58:01 2.9 C 5.37 g/m*3 2.9 C 0 km/h
836 19-12-2010 23:10:02 3.6 C 5.45 g/m*3 3.6 C 0 km/h
837 19-12-2010 23:22:01 4.2 C 5.28 g/m*3 4.2 C 0 km/h
838 19-12-2010 23:34:02 4.5 C 5 g/m*3 4.5 C 0 km/h
839 19-12-2010 23:46:01 5.1 C 4.79 g/m*3 5.1 C 0 km/h
840 19-12-2010 23:58:01 4.7 C 4.66 g/m*3 4.7 C 0 km/h
841 20-12-2010 00:10:02 4.3 C 4.61 g/m*3 4.3 C 0 km/h
842 20-12-2010 00:22:01 4.2 C 4.64 g/m*3 4.2 C 0 km/h
843 20-12-2010 00:34:02 4 C 4.64 g/m*3 4 C 0 km/h
844 20-12-2010 00:46:01 4 C 4.64 g/m*3 4 C 0 km/h
845 20-12-2010 00:58:01 3.6 C 4.58 g/m*3 3.6 C 0 km/h
846 20-12-2010 01:10:02 2.9 C 4.67 g/m*3 2.9 C 0 km/h
847 20-12-2010 01:22:02 2.7 C 4.66 g/m*3 2.7 C 0 km/h
848 20-12-2010 01:34:01 1.3 C 4.29 g/m*3 1.3 C 0 km/h
849 20-12-2010 01:46:02 0.7 C 4.27 g/m*3 0.7 C 0 km/h
850 20-12-2010 01:58:02 0.8 C 4.25 g/m*3 0.8 C 0 km/h
Sensor: Nr:Datum:Temp:Abs-Feuchte:Windchill:Wind:
Aussen-T/F 851 20-12-2010 02:10:01 0.7 C 3.97 g/m*3 0.7 C 0 km/h
852 20-12-2010 02:22:02 0.6 C 3.64 g/m*3 0.6 C 0 km/h
853 20-12-2010 02:34:01 0.4 C 3.64 g/m*3 0.4 C 0 km/h
854 20-12-2010 02:46:02 0.3 C 3.61 g/m*3 0.3 C 0 km/h
855 20-12-2010 02:58:02 0.1 C 3.66 g/m*3 0.1 C 0 km/h
856 20-12-2010 03:10:01 0 C 3.73 g/m*3 0 C 0 km/h
857 20-12-2010 03:22:01 -0.1 C 3.66 g/m*3 -0.1 C 0 km/h
858 20-12-2010 03:34:02 0 C 3.59 g/m*3 0 C 0 km/h
859 20-12-2010 03:46:02 -0.3 C 3.56 g/m*3 -0.3 C 0 km/h
860 20-12-2010 03:58:02 0 C 3.63 g/m*3 0 C 0 km/h
861 20-12-2010 04:10:01 -0.2 C 3.58 g/m*3 -0.2 C 0 km/h
862 20-12-2010 04:22:02 -0.6 C 3.63 g/m*3 -0.6 C 0 km/h
863 20-12-2010 04:34:01 -0.5 C 3.74 g/m*3 -0.5 C 0 km/h
864 20-12-2010 04:46:02 -0.4 C 3.72 g/m*3 -0.4 C 0 km/h
865 20-12-2010 04:58:02 -0.5 C 3.65 g/m*3 -0.5 C 0 km/h
866 20-12-2010 05:10:01 -0.7 C 3.6 g/m*3 -0.7 C 0 km/h
867 20-12-2010 05:22:01 -1 C 3.57 g/m*3 -1 C 0 km/h
868 20-12-2010 05:34:02 -1.1 C 3.55 g/m*3 -1.1 C 0 km/h
869 20-12-2010 05:46:01 -1.1 C 3.55 g/m*3 -1.1 C 0 km/h
870 20-12-2010 05:58:01 -1.2 C 3.52 g/m*3 -1.2 C 0 km/h
871 20-12-2010 06:10:02 -1.3 C 3.54 g/m*3 -1.3 C 0 km/h
872 20-12-2010 06:22:01 -1.3 C 3.54 g/m*3 -1.3 C 0 km/h
873 20-12-2010 06:34:02 -1.5 C 3.49 g/m*3 -1.5 C 0 km/h
874 20-12-2010 06:46:01 -1.9 C 3.4 g/m*3 -1.9 C 0 km/h
875 20-12-2010 06:58:01 -2.3 C 3.34 g/m*3 -2.3 C 0 km/h
Sensor: Nr:Datum:Temp:Abs-Feuchte:Windchill:Wind:
Aussen-T/F 876 20-12-2010 07:10:02 -2.5 C 3.34 g/m*3 -2.5 C 0 km/h
877 20-12-2010 07:22:01 -2.7 C 3.33 g/m*3 -2.7 C 0 km/h
878 20-12-2010 07:34:01 -2.4 C 3.44 g/m*3 -2.4 C 0 km/h
879 20-12-2010 07:46:01 -2.7 C 3.37 g/m*3 -2.7 C 0 km/h
880 20-12-2010 07:58:01 -2.7 C 3.41 g/m*3 -2.7 C 0 km/h
881 20-12-2010 08:10:02 -2.5 C 3.5 g/m*3 -2.5 C 0 km/h
882 20-12-2010 08:22:01 -2.5 C 3.5 g/m*3 -2.5 C 0 km/h
883 20-12-2010 08:34:01 -2.5 C 3.54 g/m*3 -2.5 C 0 km/h
884 20-12-2010 08:46:01 -2.4 C 3.57 g/m*3 -2.4 C 0 km/h
885 20-12-2010 08:58:01 -2.2 C 3.62 g/m*3 -2.2 C 0 km/h
886 20-12-2010 09:10:02 -2 C 3.67 g/m*3 -2 C 0 km/h
887 20-12-2010 09:22:01 -1.8 C 3.72 g/m*3 -1.8 C 0 km/h
888 20-12-2010 09:34:01 -1.9 C 3.61 g/m*3 -1.9 C 0 km/h
889 20-12-2010 09:46:01 -1.7 C 3.53 g/m*3 -1.7 C 0 km/h
890 20-12-2010 09:58:01 -1.6 C 3.42 g/m*3 -1.6 C 0 km/h
891 20-12-2010 10:10:01 -1.6 C 3.34 g/m*3 -1.6 C 0 km/h
892 20-12-2010 10:22:02 -1.3 C 3.36 g/m*3 -1.3 C 0 km/h
893 20-12-2010 10:34:01 -1.1 C 3.37 g/m*3 -1.1 C 0 km/h
894 20-12-2010 10:46:02 -1.1 C 3.28 g/m*3 -1.1 C 0 km/h
895 20-12-2010 10:58:02 -1 C 3.3 g/m*3 -1 C 0 km/h
896 20-12-2010 11:10:01 -0.9 C 3.28 g/m*3 -0.9 C 0 km/h
897 20-12-2010 11:22:02 -0.9 C 3.28 g/m*3 -0.9 C 0 km/h
898 20-12-2010 11:34:01 -0.8 C 3.25 g/m*3 -0.8 C 0 km/h
899 20-12-2010 11:46:02 -0.7 C 3.32 g/m*3 -0.7 C 0 km/h
900 20-12-2010 11:58:02 -0.7 C 3.28 g/m*3 -0.7 C 0 km/h
Sensor: Nr:Datum:Temp:Abs-Feuchte:Windchill:Wind:
Aussen-T/F 901 20-12-2010 12:10:01 -1 C 3.21 g/m*3 -1 C 0 km/h
902 20-12-2010 12:22:01 -1.1 C 3.28 g/m*3 -1.1 C 0 km/h
903 20-12-2010 12:34:02 -1.1 C 3.28 g/m*3 -1.1 C 0 km/h
904 20-12-2010 12:46:01 -1.1 C 3.28 g/m*3 -1.1 C 0 km/h
905 20-12-2010 12:58:01 -1 C 3.3 g/m*3 -1 C 0 km/h
906 20-12-2010 13:10:02 -0.9 C 3.28 g/m*3 -0.9 C 0 km/h
907 20-12-2010 13:22:01 -1 C 3.25 g/m*3 -1 C 0 km/h
908 20-12-2010 13:34:02 -0.9 C 3.28 g/m*3 -0.9 C 0 km/h
909 20-12-2010 13:46:01 -0.8 C 3.35 g/m*3 -0.8 C 0 km/h
910 20-12-2010 13:58:01 -1 C 3.25 g/m*3 -1 C 0 km/h
911 20-12-2010 14:10:02 -1 C 3.25 g/m*3 -1 C 0 km/h
912 20-12-2010 14:22:01 -0.9 C 3.28 g/m*3 -0.9 C 0 km/h
913 20-12-2010 14:34:01 -1 C 3.25 g/m*3 -1 C 0 km/h
914 20-12-2010 14:46:01 -1 C 3.25 g/m*3 -1 C 0 km/h
915 20-12-2010 14:58:01 -1 C 3.25 g/m*3 -1 C 0 km/h
916 20-12-2010 15:10:01 -1.1 C 3.23 g/m*3 -1.1 C 0 km/h
917 20-12-2010 15:22:01 -1 C 3.25 g/m*3 -1 C 0 km/h
918 20-12-2010 15:34:01 -1 C 3.25 g/m*3 -1 C 0 km/h
919 20-12-2010 15:46:01 -1 C 3.3 g/m*3 -1 C 0 km/h
920 20-12-2010 15:58:01 -1.3 C 3.28 g/m*3 -1.3 C 0 km/h
921 20-12-2010 16:10:01 -1.6 C 3.25 g/m*3 -1.6 C 0 km/h
922 20-12-2010 16:22:02 -2.9 C 2.93 g/m*3 -2.9 C 0 km/h
923 20-12-2010 16:34:01 -3.3 C 3 g/m*3 -3.3 C 0 km/h
924 20-12-2010 16:46:02 -3.5 C 3.03 g/m*3 -3.5 C 0 km/h
925 20-12-2010 16:58:02 -3.9 C 3.02 g/m*3 -3.9 C 0 km/h
Sensor: Nr:Datum:Temp:Abs-Feuchte:Windchill:Wind:
Aussen-T/F 926 20-12-2010 17:10:01 -4.2 C 2.99 g/m*3 -4.2 C 0 km/h
927 20-12-2010 17:22:01 -3.8 C 3.12 g/m*3 -3.8 C 0 km/h
928 20-12-2010 17:34:01 -3.4 C 3.28 g/m*3 -3.4 C 0 km/h
929 20-12-2010 17:46:01 -3.2 C 3.33 g/m*3 -3.2 C 0 km/h
930 20-12-2010 17:58:02 -3 C 3.42 g/m*3 -3 C 0 km/h
931 20-12-2010 18:10:01 -3 C 3.42 g/m*3 -3 C 0 km/h
932 20-12-2010 18:22:01 -3.1 C 3.39 g/m*3 -3.1 C 0 km/h
933 20-12-2010 18:34:02 -3.1 C 3.39 g/m*3 -3.1 C 0 km/h
934 20-12-2010 18:46:01 -3.1 C 3.39 g/m*3 -3.1 C 0 km/h
935 20-12-2010 18:58:01 -2.9 C 3.48 g/m*3 -2.9 C 0 km/h
936 20-12-2010 19:10:02 -2.9 C 3.48 g/m*3 -2.9 C 0 km/h
937 20-12-2010 19:22:01 -2.9 C 3.48 g/m*3 -2.9 C 0 km/h
938 20-12-2010 19:34:01 -3 C 3.46 g/m*3 -3 C 0 km/h
939 20-12-2010 19:46:01 -3 C 3.46 g/m*3 -3 C 0 km/h
940 20-12-2010 19:58:01 -3.2 C 3.37 g/m*3 -3.2 C 0 km/h
941 20-12-2010 20:10:02 -3.1 C 3.43 g/m*3 -3.1 C 0 km/h
942 20-12-2010 20:22:01 -2.8 C 3.51 g/m*3 -2.8 C 0 km/h
943 20-12-2010 20:34:01 -2.9 C 3.48 g/m*3 -2.9 C 0 km/h
944 20-12-2010 20:46:01 -2.9 C 3.48 g/m*3 -2.9 C 0 km/h
945 20-12-2010 20:58:01 -2.9 C 3.48 g/m*3 -2.9 C 0 km/h
946 20-12-2010 21:10:01 -3.2 C 3.37 g/m*3 -3.2 C 0 km/h
947 20-12-2010 21:23:04 -3.3 C 3.35 g/m*3 -3.3 C 0 km/h
948 20-12-2010 21:35:04 -3.6 C 3.27 g/m*3 -3.6 C 0 km/h
949 20-12-2010 21:47:05 -3.8 C 3.23 g/m*3 -3.8 C 0 km/h
950 20-12-2010 21:59:05 -4.3 C 3.08 g/m*3 -4.3 C 0 km/h
Sensor: Nr:Datum:Temp:Abs-Feuchte:Windchill:Wind:
Aussen-T/F 951 20-12-2010 22:11:05 -4.5 C 3.04 g/m*3 -4.5 C 0 km/h
952 20-12-2010 22:23:05 -4.5 C 3.04 g/m*3 -4.5 C 0 km/h
953 20-12-2010 22:35:05 -4.4 C 3.09 g/m*3 -4.4 C 0 km/h
954 20-12-2010 22:47:05 -4.2 C 3.14 g/m*3 -4.2 C 0 km/h
955 20-12-2010 22:59:05 -3.9 C 3.24 g/m*3 -3.9 C 0 km/h
956 20-12-2010 23:11:05 -3.6 C 3.31 g/m*3 -3.6 C 0 km/h
957 20-12-2010 23:23:05 -3.4 C 3.4 g/m*3 -3.4 C 0 km/h
958 20-12-2010 23:35:05 -3.5 C 3.34 g/m*3 -3.5 C 0 km/h
959 20-12-2010 23:47:05 -3.4 C 3.4 g/m*3 -3.4 C 0 km/h
960 20-12-2010 23:59:05 -3.4 C 3.4 g/m*3 -3.4 C 0 km/h
961 21-12-2010 00:11:05 -3.7 C 3.29 g/m*3 -3.7 C 0 km/h
962 21-12-2010 00:23:05 -3.8 C 3.27 g/m*3 -3.8 C 0 km/h
963 21-12-2010 00:35:05 -3.7 C 3.33 g/m*3 -3.7 C 0 km/h
964 21-12-2010 00:47:05 -3.6 C 3.35 g/m*3 -3.6 C 0 km/h
965 21-12-2010 00:59:05 -3.3 C 3.42 g/m*3 -3.3 C 0 km/h
966 21-12-2010 01:11:05 -3.1 C 3.47 g/m*3 -3.1 C 0 km/h
967 21-12-2010 01:23:05 -3 C 3.5 g/m*3 -3 C 0 km/h
968 21-12-2010 01:35:05 -2.8 C 3.55 g/m*3 -2.8 C 0 km/h
969 21-12-2010 01:47:05 -2.8 C 3.55 g/m*3 -2.8 C 0 km/h
970 21-12-2010 01:59:06 -2.7 C 3.57 g/m*3 -2.7 C 0 km/h
971 21-12-2010 02:11:06 -2.7 C 3.57 g/m*3 -2.7 C 0 km/h
972 21-12-2010 02:23:06 -2.5 C 3.62 g/m*3 -2.5 C 0 km/h
973 21-12-2010 02:35:06 -2.7 C 3.57 g/m*3 -2.7 C 0 km/h
974 21-12-2010 02:47:06 -2.6 C 3.6 g/m*3 -2.6 C 0 km/h
975 21-12-2010 02:59:06 -2.5 C 3.62 g/m*3 -2.5 C 0 km/h
Sensor: Nr:Datum:Temp:Abs-Feuchte:Windchill:Wind:
Aussen-T/F 976 21-12-2010 03:11:06 -2.6 C 3.56 g/m*3 -2.6 C 0 km/h
977 21-12-2010 03:23:06 -2.6 C 3.56 g/m*3 -2.6 C 0 km/h
978 21-12-2010 03:35:06 -2.6 C 3.56 g/m*3 -2.6 C 0 km/h
979 21-12-2010 03:47:06 -2.5 C 3.58 g/m*3 -2.5 C 0 km/h
980 21-12-2010 03:59:06 -2.4 C 3.61 g/m*3 -2.4 C 0 km/h
981 21-12-2010 04:11:06 -2.3 C 3.63 g/m*3 -2.3 C 0 km/h
982 21-12-2010 04:23:06 -2.2 C 3.66 g/m*3 -2.2 C 0 km/h
983 21-12-2010 04:35:06 -2.1 C 3.68 g/m*3 -2.1 C 0 km/h
984 21-12-2010 04:47:06 -2.1 C 3.68 g/m*3 -2.1 C 0 km/h
985 21-12-2010 04:59:06 -2 C 3.71 g/m*3 -2 C 0 km/h
986 21-12-2010 05:11:06 -2 C 3.71 g/m*3 -2 C 0 km/h
987 21-12-2010 05:23:06 -1.9 C 3.74 g/m*3 -1.9 C 0 km/h
988 21-12-2010 05:35:06 -1.9 C 3.74 g/m*3 -1.9 C 0 km/h
989 21-12-2010 05:47:06 -1.8 C 3.8 g/m*3 -1.8 C 0 km/h
990 21-12-2010 05:59:07 -1.8 C 3.8 g/m*3 -1.8 C 0 km/h
991 21-12-2010 06:11:07 -1.8 C 3.8 g/m*3 -1.8 C 0 km/h
992 21-12-2010 06:23:07 -1.8 C 3.8 g/m*3 -1.8 C 0 km/h
993 21-12-2010 06:35:07 -1.8 C 3.8 g/m*3 -1.8 C 0 km/h
994 21-12-2010 06:47:07 -1.8 C 3.8 g/m*3 -1.8 C 0 km/h
995 21-12-2010 06:59:07 -1.7 C 3.83 g/m*3 -1.7 C 0 km/h
996 21-12-2010 07:11:07 -1.7 C 3.83 g/m*3 -1.7 C 0 km/h
997 21-12-2010 07:23:07 -1.4 C 3.91 g/m*3 -1.4 C 0 km/h
998 21-12-2010 07:35:05 -1.8 C 3.8 g/m*3 -1.8 C 0 km/h
999 21-12-2010 07:47:02 -1.8 C 3.8 g/m*3 -1.8 C 0 km/h
1000 21-12-2010 07:59:02 -1.8 C 3.8 g/m*3 -1.8 C 0 km/h
Sensor: Nr:Datum:Temp:Abs-Feuchte:Windchill:Wind:
Aussen-T/F 1001 21-12-2010 08:11:02 -1.7 C 3.83 g/m*3 -1.7 C 0 km/h
1002 21-12-2010 08:23:01 -1.6 C 3.86 g/m*3 -1.6 C 0 km/h
1003 21-12-2010 08:35:02 -1.6 C 3.86 g/m*3 -1.6 C 0 km/h
1004 21-12-2010 08:47:02 -1.7 C 3.83 g/m*3 -1.7 C 0 km/h
1005 21-12-2010 08:59:02 -1.6 C 3.86 g/m*3 -1.6 C 0 km/h
1006 21-12-2010 09:11:02 -1.4 C 3.91 g/m*3 -1.4 C 0 km/h
1007 21-12-2010 09:23:02 -1.3 C 3.94 g/m*3 -1.3 C 0 km/h
1008 21-12-2010 09:35:02 -1.2 C 3.92 g/m*3 -1.2 C 0 km/h
1009 21-12-2010 09:47:02 -1.1 C 3.91 g/m*3 -1.1 C 0 km/h
1010 21-12-2010 09:59:02 -1.2 C 3.88 g/m*3 -1.2 C 0 km/h
1011 21-12-2010 10:11:02 -0.7 C 3.97 g/m*3 -0.7 C 0 km/h
1012 21-12-2010 10:23:02 -0.8 C 3.9 g/m*3 -0.8 C 0 km/h
1013 21-12-2010 10:35:02 -0.9 C 3.82 g/m*3 -0.9 C 0 km/h
1014 21-12-2010 10:47:02 -0.3 C 3.99 g/m*3 -0.3 C 0 km/h
1015 21-12-2010 10:59:02 -0.3 C 3.89 g/m*3 -0.3 C 0 km/h
1016 21-12-2010 11:11:02 0.1 C 3.95 g/m*3 0.1 C 0 km/h
1017 21-12-2010 11:23:02 0.4 C 4.03 g/m*3 0.4 C 0 km/h
1018 21-12-2010 11:35:01 0.6 C 3.99 g/m*3 0.6 C 0 km/h
1019 21-12-2010 11:47:02 0.8 C 4.04 g/m*3 0.8 C 0 km/h
1020 21-12-2010 11:59:02 0.6 C 3.89 g/m*3 0.6 C 0 km/h
1021 21-12-2010 12:11:01 0.9 C 3.92 g/m*3 0.9 C 0 km/h
1022 21-12-2010 12:23:02 1.2 C 3.95 g/m*3 1.2 C 0 km/h
1023 21-12-2010 12:35:02 1.3 C 4.03 g/m*3 1.3 C 0 km/h
1024 21-12-2010 12:47:02 1.4 C 4.05 g/m*3 1.4 C 0 km/h
1025 21-12-2010 12:59:02 0.9 C 3.92 g/m*3 0.9 C 0 km/h
Sensor: Nr:Datum:Temp:Abs-Feuchte:Windchill:Wind:
Aussen-T/F 1026 21-12-2010 13:11:02 1.3 C 4.08 g/m*3 1.3 C 0 km/h
1027 21-12-2010 13:23:02 1.4 C 4.11 g/m*3 1.4 C 0 km/h
1028 21-12-2010 13:35:02 1.5 C 4.14 g/m*3 1.5 C 0 km/h
1029 21-12-2010 13:47:01 1.5 C 4.14 g/m*3 1.5 C 0 km/h
1030 21-12-2010 13:59:01 1.5 C 4.14 g/m*3 1.5 C 0 km/h
1031 21-12-2010 14:11:02 1.4 C 4.11 g/m*3 1.4 C 0 km/h
1032 21-12-2010 14:23:01 1.2 C 4.05 g/m*3 1.2 C 0 km/h
1033 21-12-2010 14:35:01 1.2 C 4.05 g/m*3 1.2 C 0 km/h
1034 21-12-2010 14:47:01 1.2 C 4.05 g/m*3 1.2 C 0 km/h
1035 21-12-2010 14:59:01 1.2 C 4.05 g/m*3 1.2 C 0 km/h
1036 21-12-2010 15:11:02 1.2 C 4.05 g/m*3 1.2 C 0 km/h
1037 21-12-2010 15:23:01 1.3 C 4.19 g/m*3 1.3 C 0 km/h
1038 21-12-2010 15:35:01 1.2 C 4.21 g/m*3 1.2 C 0 km/h
1039 21-12-2010 15:47:01 1.1 C 4.23 g/m*3 1.1 C 0 km/h
1040 21-12-2010 15:59:01 1.1 C 4.23 g/m*3 1.1 C 0 km/h
1041 21-12-2010 16:11:02 1.1 C 4.23 g/m*3 1.1 C 0 km/h
1042 21-12-2010 16:23:02 0.6 C 4.19 g/m*3 0.6 C 0 km/h
1043 21-12-2010 16:35:01 0.6 C 4.19 g/m*3 0.6 C 0 km/h
1044 21-12-2010 16:47:02 0.3 C 4.16 g/m*3 0.3 C 0 km/h
1045 21-12-2010 16:59:02 0.3 C 4.2 g/m*3 0.3 C 0 km/h
1046 21-12-2010 17:11:01 0.3 C 4.25 g/m*3 0.3 C 0 km/h
1047 21-12-2010 17:23:02 0.3 C 4.3 g/m*3 0.3 C 0 km/h
1048 21-12-2010 17:35:01 0.1 C 4.29 g/m*3 0.1 C 0 km/h
1049 21-12-2010 17:47:02 0.1 C 4.29 g/m*3 0.1 C 0 km/h
1050 21-12-2010 17:59:02 0 C 4.26 g/m*3 0 C 0 km/h
Sensor: Nr:Datum:Temp:Abs-Feuchte:Windchill:Wind:
Aussen-T/F 1051 21-12-2010 18:11:02 0.1 C 4.34 g/m*3 0.1 C 0 km/h
1052 21-12-2010 18:23:02 0.2 C 4.37 g/m*3 0.2 C 0 km/h
1053 21-12-2010 18:35:02 0.2 C 4.37 g/m*3 0.2 C 0 km/h
1054 21-12-2010 18:47:02 0.2 C 4.37 g/m*3 0.2 C 0 km/h
1055 21-12-2010 18:59:02 0.2 C 4.42 g/m*3 0.2 C 0 km/h
1056 21-12-2010 19:11:02 0.2 C 4.42 g/m*3 0.2 C 0 km/h
1057 21-12-2010 19:23:01 0.1 C 4.39 g/m*3 0.1 C 0 km/h
1058 21-12-2010 19:35:02 0.1 C 4.39 g/m*3 0.1 C 0 km/h
1059 21-12-2010 19:47:02 0.1 C 4.39 g/m*3 0.1 C 0 km/h
1060 21-12-2010 19:59:02 0.1 C 4.39 g/m*3 0.1 C 0 km/h
1061 21-12-2010 20:11:02 0.1 C 4.39 g/m*3 0.1 C 0 km/h
1062 21-12-2010 20:23:01 0.1 C 4.39 g/m*3 0.1 C 0 km/h
1063 21-12-2010 20:35:02 0.1 C 4.39 g/m*3 0.1 C 0 km/h
1064 21-12-2010 20:47:02 0.1 C 4.39 g/m*3 0.1 C 0 km/h
1065 21-12-2010 20:59:02 0.2 C 4.42 g/m*3 0.2 C 0 km/h
1066 21-12-2010 21:11:02 0.1 C 4.44 g/m*3 0.1 C 0 km/h
1067 21-12-2010 21:23:01 0.1 C 4.44 g/m*3 0.1 C 0 km/h
1068 21-12-2010 21:35:02 0.2 C 4.47 g/m*3 0.2 C 0 km/h
1069 21-12-2010 21:47:01 0.1 C 4.44 g/m*3 0.1 C 0 km/h
1070 21-12-2010 21:59:01 0.1 C 4.44 g/m*3 0.1 C 0 km/h
1071 21-12-2010 22:11:02 0.1 C 4.44 g/m*3 0.1 C 0 km/h
1072 21-12-2010 22:24:04 0.1 C 4.44 g/m*3 0.1 C 0 km/h
1073 21-12-2010 22:36:04 0.2 C 4.47 g/m*3 0.2 C 0 km/h
1074 21-12-2010 22:48:04 0.2 C 4.47 g/m*3 0.2 C 0 km/h
1075 21-12-2010 23:00:04 0.2 C 4.47 g/m*3 0.2 C 0 km/h
Sensor: Nr:Datum:Temp:Abs-Feuchte:Windchill:Wind:
Aussen-T/F 1076 21-12-2010 23:12:04 0.1 C 4.44 g/m*3 0.1 C 0 km/h
1077 21-12-2010 23:24:04 0.1 C 4.44 g/m*3 0.1 C 0 km/h
1078 21-12-2010 23:36:04 0.1 C 4.44 g/m*3 0.1 C 0 km/h
1079 21-12-2010 23:48:04 0.1 C 4.44 g/m*3 0.1 C 0 km/h
1080 22-12-2010 00:00:04 0.1 C 4.44 g/m*3 0.1 C 0 km/h
1081 22-12-2010 00:12:04 0.1 C 4.49 g/m*3 0.1 C 0 km/h
1082 22-12-2010 00:24:04 0.1 C 4.49 g/m*3 0.1 C 0 km/h
1083 22-12-2010 00:36:04 0.1 C 4.49 g/m*3 0.1 C 0 km/h
1084 22-12-2010 00:48:04 0.1 C 4.49 g/m*3 0.1 C 0 km/h
1085 22-12-2010 01:00:04 0.1 C 4.49 g/m*3 0.1 C 0 km/h
1086 22-12-2010 01:12:04 0.1 C 4.49 g/m*3 0.1 C 0 km/h
1087 22-12-2010 01:24:04 0.2 C 4.52 g/m*3 0.2 C 0 km/h
1088 22-12-2010 01:36:04 0.2 C 4.52 g/m*3 0.2 C 0 km/h
1089 22-12-2010 01:48:04 0.2 C 4.52 g/m*3 0.2 C 0 km/h
1090 22-12-2010 02:00:04 0.2 C 4.52 g/m*3 0.2 C 0 km/h
1091 22-12-2010 02:12:05 0.2 C 4.52 g/m*3 0.2 C 0 km/h
1092 22-12-2010 02:24:05 0.2 C 4.52 g/m*3 0.2 C 0 km/h
1093 22-12-2010 02:36:05 0.2 C 4.52 g/m*3 0.2 C 0 km/h
1094 22-12-2010 02:48:05 0.2 C 4.52 g/m*3 0.2 C 0 km/h
1095 22-12-2010 03:00:05 0.2 C 4.52 g/m*3 0.2 C 0 km/h
1096 22-12-2010 03:12:05 0.2 C 4.52 g/m*3 0.2 C 0 km/h
1097 22-12-2010 03:24:05 0.1 C 4.49 g/m*3 0.1 C 0 km/h
1098 22-12-2010 03:36:05 0.1 C 4.49 g/m*3 0.1 C 0 km/h
1099 22-12-2010 03:48:05 0.2 C 4.52 g/m*3 0.2 C 0 km/h
1100 22-12-2010 04:00:05 0.2 C 4.52 g/m*3 0.2 C 0 km/h
Sensor: Nr:Datum:Temp:Abs-Feuchte:Windchill:Wind:
Aussen-T/F 1101 22-12-2010 04:12:05 0.3 C 4.55 g/m*3 0.3 C 0 km/h
1102 22-12-2010 04:24:05 0.3 C 4.55 g/m*3 0.3 C 0 km/h
1103 22-12-2010 04:36:05 0.3 C 4.55 g/m*3 0.3 C 0 km/h
1104 22-12-2010 04:48:05 0.3 C 4.55 g/m*3 0.3 C 0 km/h
1105 22-12-2010 05:00:05 0.3 C 4.55 g/m*3 0.3 C 0 km/h
1106 22-12-2010 05:12:05 0.3 C 4.55 g/m*3 0.3 C 0 km/h
1107 22-12-2010 05:24:05 0.3 C 4.55 g/m*3 0.3 C 0 km/h
1108 22-12-2010 05:36:05 0.3 C 4.55 g/m*3 0.3 C 0 km/h
1109 22-12-2010 05:48:05 0.3 C 4.55 g/m*3 0.3 C 0 km/h
1110 22-12-2010 06:00:05 0.3 C 4.55 g/m*3 0.3 C 0 km/h
1111 22-12-2010 06:12:06 0.3 C 4.55 g/m*3 0.3 C 0 km/h
1112 22-12-2010 06:24:06 0.3 C 4.55 g/m*3 0.3 C 0 km/h
1113 22-12-2010 06:36:06 0.3 C 4.55 g/m*3 0.3 C 0 km/h
1114 22-12-2010 06:48:06 0.3 C 4.55 g/m*3 0.3 C 0 km/h
1115 22-12-2010 07:00:06 0.3 C 4.55 g/m*3 0.3 C 0 km/h
1116 22-12-2010 07:12:06 0.3 C 4.55 g/m*3 0.3 C 0 km/h
1117 22-12-2010 07:24:06 0.3 C 4.55 g/m*3 0.3 C 0 km/h
1118 22-12-2010 07:36:03 0.3 C 4.6 g/m*3 0.3 C 0 km/h
1119 22-12-2010 07:48:02 0.3 C 4.6 g/m*3 0.3 C 0 km/h
1120 22-12-2010 08:00:02 0.3 C 4.6 g/m*3 0.3 C 0 km/h
1121 22-12-2010 08:12:02 0.3 C 4.6 g/m*3 0.3 C 0 km/h
1122 22-12-2010 08:24:01 0.3 C 4.6 g/m*3 0.3 C 0 km/h
1123 22-12-2010 08:36:02 0.4 C 4.63 g/m*3 0.4 C 0 km/h
1124 22-12-2010 08:48:02 0.4 C 4.63 g/m*3 0.4 C 0 km/h
1125 22-12-2010 09:00:02 0.4 C 4.63 g/m*3 0.4 C 0 km/h
Sensor: Nr:Datum:Temp:Abs-Feuchte:Windchill:Wind:
Aussen-T/F 1126 22-12-2010 09:12:02 0.6 C 4.7 g/m*3 0.6 C 0 km/h
1127 22-12-2010 09:24:01 0.7 C 4.73 g/m*3 0.7 C 0 km/h
1128 22-12-2010 09:36:02 0.9 C 4.79 g/m*3 0.9 C 0 km/h
1129 22-12-2010 09:48:01 0.9 C 4.79 g/m*3 0.9 C 0 km/h
1130 22-12-2010 10:00:01 1.1 C 4.81 g/m*3 1.1 C 0 km/h
1131 22-12-2010 10:12:02 1.2 C 4.84 g/m*3 1.2 C 0 km/h
1132 22-12-2010 10:24:02 1.2 C 4.84 g/m*3 1.2 C 0 km/h
1133 22-12-2010 10:36:02 1.7 C 5.01 g/m*3 1.7 C 0 km/h
1134 22-12-2010 10:48:02 1.7 C 5.01 g/m*3 1.7 C 0 km/h
1135 22-12-2010 11:00:02 2 C 5 g/m*3 2 C 0 km/h
1136 22-12-2010 11:12:02 1.9 C 4.97 g/m*3 1.9 C 0 km/h
1137 22-12-2010 11:24:02 2.3 C 5.05 g/m*3 2.3 C 0 km/h
1138 22-12-2010 11:36:01 2.7 C 5.13 g/m*3 2.7 C 0 km/h
1139 22-12-2010 11:48:02 2.6 C 4.98 g/m*3 2.6 C 0 km/h
1140 22-12-2010 12:00:02 2.7 C 4.95 g/m*3 2.7 C 0 km/h
1141 22-12-2010 12:12:01 2.7 C 4.89 g/m*3 2.7 C 0 km/h
1142 22-12-2010 12:24:01 2.9 C 4.9 g/m*3 2.9 C 0 km/h
1143 22-12-2010 12:36:02 2.9 C 4.9 g/m*3 2.9 C 0 km/h
1144 22-12-2010 12:48:02 2.6 C 4.8 g/m*3 2.6 C 0 km/h
1145 22-12-2010 13:00:02 2.6 C 4.8 g/m*3 2.6 C 0 km/h
1146 22-12-2010 13:12:02 2.3 C 4.71 g/m*3 2.3 C 0 km/h
1147 22-12-2010 13:24:02 2.6 C 4.8 g/m*3 2.6 C 0 km/h
1148 22-12-2010 13:36:02 2.3 C 4.71 g/m*3 2.3 C 0 km/h
1149 22-12-2010 13:48:02 2.1 C 4.64 g/m*3 2.1 C 0 km/h
1150 22-12-2010 14:00:02 2.1 C 4.7 g/m*3 2.1 C 0 km/h
Sensor: Nr:Datum:Temp:Abs-Feuchte:Windchill:Wind:
Aussen-T/F 1151 22-12-2010 14:12:02 2.3 C 4.76 g/m*3 2.3 C 0 km/h
1152 22-12-2010 14:24:02 2.6 C 4.86 g/m*3 2.6 C 0 km/h
1153 22-12-2010 14:36:02 2.6 C 4.8 g/m*3 2.6 C 0 km/h
1154 22-12-2010 14:48:02 2.4 C 4.68 g/m*3 2.4 C 0 km/h
1155 22-12-2010 15:00:02 2 C 4.61 g/m*3 2 C 0 km/h
1156 22-12-2010 15:12:02 1.7 C 4.57 g/m*3 1.7 C 0 km/h
1157 22-12-2010 15:24:02 1.6 C 4.6 g/m*3 1.6 C 0 km/h
1158 22-12-2010 15:36:02 1.6 C 4.6 g/m*3 1.6 C 0 km/h
1159 22-12-2010 15:48:02 1.4 C 4.59 g/m*3 1.4 C 0 km/h
1160 22-12-2010 16:00:02 1.4 C 4.64 g/m*3 1.4 C 0 km/h
1161 22-12-2010 16:12:02 1.2 C 4.58 g/m*3 1.2 C 0 km/h
1162 22-12-2010 16:24:02 1.2 C 4.63 g/m*3 1.2 C 0 km/h
1163 22-12-2010 16:36:02 1 C 4.57 g/m*3 1 C 0 km/h
1164 22-12-2010 16:48:02 1 C 4.57 g/m*3 1 C 0 km/h
1165 22-12-2010 17:00:02 0.9 C 4.59 g/m*3 0.9 C 0 km/h
1166 22-12-2010 17:12:02 0.8 C 4.56 g/m*3 0.8 C 0 km/h
1167 22-12-2010 17:24:02 0.7 C 4.58 g/m*3 0.7 C 0 km/h
1168 22-12-2010 17:36:01 0.8 C 4.61 g/m*3 0.8 C 0 km/h
1169 22-12-2010 17:48:02 0.8 C 4.66 g/m*3 0.8 C 0 km/h
1170 22-12-2010 18:00:02 0.7 C 4.63 g/m*3 0.7 C 0 km/h
1171 22-12-2010 18:12:01 0.7 C 4.63 g/m*3 0.7 C 0 km/h
1172 22-12-2010 18:24:01 0.6 C 4.6 g/m*3 0.6 C 0 km/h
1173 22-12-2010 18:36:02 0.8 C 4.66 g/m*3 0.8 C 0 km/h
1174 22-12-2010 18:48:02 0.7 C 4.63 g/m*3 0.7 C 0 km/h
1175 22-12-2010 19:00:02 0.7 C 4.68 g/m*3 0.7 C 0 km/h
Sensor: Nr:Datum:Temp:Abs-Feuchte:Windchill:Wind:
Aussen-T/F 1176 22-12-2010 19:12:02 0.8 C 4.71 g/m*3 0.8 C 0 km/h
1177 22-12-2010 19:24:02 0.8 C 4.71 g/m*3 0.8 C 0 km/h
1178 22-12-2010 19:36:02 0.8 C 4.71 g/m*3 0.8 C 0 km/h
1179 22-12-2010 19:48:02 0.8 C 4.71 g/m*3 0.8 C 0 km/h
1180 22-12-2010 20:00:02 0.7 C 4.68 g/m*3 0.7 C 0 km/h
1181 22-12-2010 20:12:03 0.8 C 4.71 g/m*3 0.8 C 0 km/h
1182 22-12-2010 20:24:02 0.8 C 4.71 g/m*3 0.8 C 0 km/h
1183 22-12-2010 20:36:02 0.8 C 4.71 g/m*3 0.8 C 0 km/h
1184 22-12-2010 20:48:01 0.8 C 4.71 g/m*3 0.8 C 0 km/h
1185 22-12-2010 21:00:01 0.8 C 4.71 g/m*3 0.8 C 0 km/h
1186 22-12-2010 21:12:01 0.8 C 4.71 g/m*3 0.8 C 0 km/h
1187 22-12-2010 21:24:01 0.8 C 4.71 g/m*3 0.8 C 0 km/h
1188 22-12-2010 21:36:01 0.8 C 4.71 g/m*3 0.8 C 0 km/h
1189 22-12-2010 21:48:01 0.8 C 4.71 g/m*3 0.8 C 0 km/h
1190 22-12-2010 22:00:01 0.7 C 4.68 g/m*3 0.7 C 0 km/h
1191 22-12-2010 22:13:03 0.7 C 4.68 g/m*3 0.7 C 0 km/h
1192 22-12-2010 22:25:03 0.7 C 4.68 g/m*3 0.7 C 0 km/h
1193 22-12-2010 22:37:03 0.7 C 4.68 g/m*3 0.7 C 0 km/h
1194 22-12-2010 22:49:03 0.7 C 4.68 g/m*3 0.7 C 0 km/h
1195 22-12-2010 23:01:03 0.7 C 4.68 g/m*3 0.7 C 0 km/h
1196 22-12-2010 23:13:03 0.7 C 4.68 g/m*3 0.7 C 0 km/h
1197 22-12-2010 23:25:03 0.7 C 4.68 g/m*3 0.7 C 0 km/h
1198 22-12-2010 23:37:03 0.7 C 4.68 g/m*3 0.7 C 0 km/h
1199 22-12-2010 23:49:03 0.7 C 4.68 g/m*3 0.7 C 0 km/h
1200 23-12-2010 00:01:03 0.7 C 4.68 g/m*3 0.7 C 0 km/h
Sensor: Nr:Datum:Temp:Abs-Feuchte:Windchill:Wind:
Aussen-T/F 1201 23-12-2010 00:13:03 0.8 C 4.76 g/m*3 0.8 C 0 km/h
1202 23-12-2010 00:25:03 0.8 C 4.76 g/m*3 0.8 C 0 km/h
1203 23-12-2010 00:37:03 0.8 C 4.76 g/m*3 0.8 C 0 km/h
1204 23-12-2010 00:49:03 0.7 C 4.73 g/m*3 0.7 C 0 km/h
1205 23-12-2010 01:01:04 0.7 C 4.73 g/m*3 0.7 C 0 km/h
1206 23-12-2010 01:13:04 0.7 C 4.73 g/m*3 0.7 C 0 km/h
1207 23-12-2010 01:25:04 0.7 C 4.73 g/m*3 0.7 C 0 km/h
1208 23-12-2010 01:37:04 0.7 C 4.73 g/m*3 0.7 C 0 km/h
1209 23-12-2010 01:49:04 0.7 C 4.73 g/m*3 0.7 C 0 km/h
1210 23-12-2010 02:01:04 0.7 C 4.73 g/m*3 0.7 C 0 km/h
1211 23-12-2010 02:13:04 0.7 C 4.73 g/m*3 0.7 C 0 km/h
1212 23-12-2010 02:25:04 0.7 C 4.73 g/m*3 0.7 C 0 km/h
1213 23-12-2010 02:37:04 0.7 C 4.73 g/m*3 0.7 C 0 km/h
1214 23-12-2010 02:49:04 0.7 C 4.73 g/m*3 0.7 C 0 km/h
1215 23-12-2010 03:01:04 0.7 C 4.73 g/m*3 0.7 C 0 km/h
1216 23-12-2010 03:13:04 0.7 C 4.73 g/m*3 0.7 C 0 km/h
1217 23-12-2010 03:25:04 0.7 C 4.73 g/m*3 0.7 C 0 km/h
1218 23-12-2010 03:37:04 0.7 C 4.73 g/m*3 0.7 C 0 km/h
1219 23-12-2010 03:49:04 0.7 C 4.73 g/m*3 0.7 C 0 km/h
1220 23-12-2010 04:01:04 0.7 C 4.73 g/m*3 0.7 C 0 km/h
1221 23-12-2010 04:13:04 0.7 C 4.73 g/m*3 0.7 C 0 km/h
1222 23-12-2010 04:25:04 0.7 C 4.73 g/m*3 0.7 C 0 km/h
1223 23-12-2010 04:37:04 0.6 C 4.7 g/m*3 0.6 C 0 km/h
1224 23-12-2010 04:49:04 0.6 C 4.7 g/m*3 0.6 C 0 km/h
1225 23-12-2010 05:01:04 0.6 C 4.7 g/m*3 0.6 C 0 km/h
Sensor: Nr:Datum:Temp:Abs-Feuchte:Windchill:Wind:
Aussen-T/F 1226 23-12-2010 05:13:05 0.6 C 4.7 g/m*3 0.6 C 0 km/h
1227 23-12-2010 05:25:05 0.4 C 4.63 g/m*3 0.4 C 0 km/h
1228 23-12-2010 05:37:05 0.4 C 4.63 g/m*3 0.4 C 0 km/h
1229 23-12-2010 05:49:05 0.4 C 4.63 g/m*3 0.4 C 0 km/h
1230 23-12-2010 06:01:05 0.4 C 4.63 g/m*3 0.4 C 0 km/h
1231 23-12-2010 06:13:05 0.4 C 4.63 g/m*3 0.4 C 0 km/h
1232 23-12-2010 06:25:05 0.4 C 4.63 g/m*3 0.4 C 0 km/h
1233 23-12-2010 06:37:05 0.4 C 4.63 g/m*3 0.4 C 0 km/h
1234 23-12-2010 06:49:05 0.1 C 4.54 g/m*3 0.1 C 0 km/h
1235 23-12-2010 07:01:05 0.1 C 4.54 g/m*3 0.1 C 0 km/h
1236 23-12-2010 07:13:05 0.1 C 4.54 g/m*3 0.1 C 0 km/h
1237 23-12-2010 07:25:03 0 C 4.51 g/m*3 0 C 0 km/h
1238 23-12-2010 07:37:03 -0.1 C 4.47 g/m*3 -0.1 C 0 km/h
1239 23-12-2010 07:49:02 -0.1 C 4.47 g/m*3 -0.1 C 0 km/h
1240 23-12-2010 08:01:02 -0.2 C 4.44 g/m*3 -0.2 C 0 km/h
1241 23-12-2010 08:13:03 -0.2 C 4.44 g/m*3 -0.2 C 0 km/h
1242 23-12-2010 08:25:02 -0.3 C 4.41 g/m*3 -0.3 C 0 km/h
1243 23-12-2010 08:37:02 -0.4 C 4.34 g/m*3 -0.4 C 0 km/h
1244 23-12-2010 08:49:01 -0.5 C 4.31 g/m*3 -0.5 C 0 km/h
1245 23-12-2010 09:01:01 -0.5 C 4.31 g/m*3 -0.5 C 0 km/h
1246 23-12-2010 09:13:01 -0.5 C 4.31 g/m*3 -0.5 C 0 km/h
1247 23-12-2010 09:25:02 -0.6 C 4.28 g/m*3 -0.6 C 0 km/h
1248 23-12-2010 09:37:01 -0.5 C 4.31 g/m*3 -0.5 C 0 km/h
1249 23-12-2010 09:49:03 -0.4 C 4.34 g/m*3 -0.4 C 0 km/h
1250 23-12-2010 10:01:02 -0.4 C 4.34 g/m*3 -0.4 C 0 km/h
Sensor: Nr:Datum:Temp:Abs-Feuchte:Windchill:Wind:
Aussen-T/F 1251 23-12-2010 10:13:02 -0.4 C 4.34 g/m*3 -0.4 C 0 km/h
1252 23-12-2010 10:25:02 -0.5 C 4.31 g/m*3 -0.5 C 0 km/h
1253 23-12-2010 10:37:02 -0.7 C 4.2 g/m*3 -0.7 C 0 km/h
1254 23-12-2010 10:49:02 -0.7 C 4.15 g/m*3 -0.7 C 0 km/h
1255 23-12-2010 11:01:01 -0.8 C 4.13 g/m*3 -0.8 C 0 km/h
1256 23-12-2010 11:13:01 -0.6 C 4.18 g/m*3 -0.6 C 0 km/h
1257 23-12-2010 11:25:02 -0.5 C 4.21 g/m*3 -0.5 C 0 km/h
1258 23-12-2010 11:37:02 -0.5 C 4.21 g/m*3 -0.5 C 0 km/h
1259 23-12-2010 11:49:01 -0.5 C 4.21 g/m*3 -0.5 C 0 km/h
1260 23-12-2010 12:01:01 -0.5 C 4.21 g/m*3 -0.5 C 0 km/h
1261 23-12-2010 12:13:01 -0.8 C 4.03 g/m*3 -0.8 C 0 km/h
1262 23-12-2010 12:25:01 -0.7 C 4.02 g/m*3 -0.7 C 0 km/h
1263 23-12-2010 12:37:02 -0.7 C 4.02 g/m*3 -0.7 C 0 km/h
1264 23-12-2010 12:49:02 -0.7 C 4.02 g/m*3 -0.7 C 0 km/h
1265 23-12-2010 13:01:02 -0.7 C 4.02 g/m*3 -0.7 C 0 km/h
1266 23-12-2010 13:13:02 -0.6 C 4.04 g/m*3 -0.6 C 0 km/h
1267 23-12-2010 13:25:01 -0.6 C 4 g/m*3 -0.6 C 0 km/h
1268 23-12-2010 13:37:02 -0.7 C 3.97 g/m*3 -0.7 C 0 km/h
1269 23-12-2010 13:49:02 -0.7 C 3.97 g/m*3 -0.7 C 0 km/h
1270 23-12-2010 14:01:02 -0.5 C 4.03 g/m*3 -0.5 C 0 km/h
1271 23-12-2010 14:13:03 -0.6 C 4 g/m*3 -0.6 C 0 km/h
1272 23-12-2010 14:25:01 -0.6 C 4 g/m*3 -0.6 C 0 km/h
1273 23-12-2010 14:37:02 -0.6 C 4 g/m*3 -0.6 C 0 km/h
1274 23-12-2010 14:49:01 -0.8 C 3.94 g/m*3 -0.8 C 0 km/h
1275 23-12-2010 15:01:02 -0.8 C 3.94 g/m*3 -0.8 C 0 km/h
Sensor: Nr:Datum:Temp:Abs-Feuchte:Windchill:Wind:
Aussen-T/F 1276 23-12-2010 15:13:02 -0.8 C 3.94 g/m*3 -0.8 C 0 km/h
1277 23-12-2010 15:25:02 -0.9 C 3.91 g/m*3 -0.9 C 0 km/h
1278 23-12-2010 15:37:01 -0.9 C 3.91 g/m*3 -0.9 C 0 km/h
1279 23-12-2010 15:49:02 -0.9 C 3.96 g/m*3 -0.9 C 0 km/h
1280 23-12-2010 16:01:01 -0.9 C 3.96 g/m*3 -0.9 C 0 km/h
1281 23-12-2010 16:13:01 -0.8 C 3.99 g/m*3 -0.8 C 0 km/h
1282 23-12-2010 16:25:02 -0.9 C 3.96 g/m*3 -0.9 C 0 km/h
1283 23-12-2010 16:37:01 -0.9 C 3.96 g/m*3 -0.9 C 0 km/h
1284 23-12-2010 16:49:02 -1 C 3.93 g/m*3 -1 C 0 km/h
1285 23-12-2010 17:01:02 -1 C 3.93 g/m*3 -1 C 0 km/h
1286 23-12-2010 17:13:02 -1 C 3.93 g/m*3 -1 C 0 km/h
1287 23-12-2010 17:25:02 -1 C 3.93 g/m*3 -1 C 0 km/h
1288 23-12-2010 17:37:03 -1 C 3.93 g/m*3 -1 C 0 km/h
1289 23-12-2010 17:49:02 -1.1 C 3.91 g/m*3 -1.1 C 0 km/h
1290 23-12-2010 18:01:02 -1.1 C 3.91 g/m*3 -1.1 C 0 km/h
1291 23-12-2010 18:13:02 -1.1 C 3.91 g/m*3 -1.1 C 0 km/h
1292 23-12-2010 18:25:01 -1.1 C 3.91 g/m*3 -1.1 C 0 km/h
1293 23-12-2010 18:37:02 -1.2 C 3.88 g/m*3 -1.2 C 0 km/h
1294 23-12-2010 18:49:02 -1.2 C 3.88 g/m*3 -1.2 C 0 km/h
1295 23-12-2010 19:01:02 -1.2 C 3.88 g/m*3 -1.2 C 0 km/h
1296 23-12-2010 19:13:02 -1.2 C 3.88 g/m*3 -1.2 C 0 km/h
1297 23-12-2010 19:25:01 -1.3 C 3.85 g/m*3 -1.3 C 0 km/h
1298 23-12-2010 19:37:02 -1.3 C 3.81 g/m*3 -1.3 C 0 km/h
1299 23-12-2010 19:49:02 -1.3 C 3.81 g/m*3 -1.3 C 0 km/h
1300 23-12-2010 20:01:02 -1.4 C 3.78 g/m*3 -1.4 C 0 km/h
Sensor: Nr:Datum:Temp:Abs-Feuchte:Windchill:Wind:
Aussen-T/F 1301 23-12-2010 20:13:02 -1.3 C 3.85 g/m*3 -1.3 C 0 km/h
1302 23-12-2010 20:25:02 -1.2 C 3.88 g/m*3 -1.2 C 0 km/h
1303 23-12-2010 20:37:02 -1.2 C 3.83 g/m*3 -1.2 C 0 km/h
1304 23-12-2010 20:49:02 -1.2 C 3.83 g/m*3 -1.2 C 0 km/h
1305 23-12-2010 21:01:02 -1.2 C 3.83 g/m*3 -1.2 C 0 km/h
1306 23-12-2010 21:13:02 -1.2 C 3.83 g/m*3 -1.2 C 0 km/h
1307 23-12-2010 21:25:02 -1.1 C 3.86 g/m*3 -1.1 C 0 km/h
1308 23-12-2010 21:37:01 -1 C 3.89 g/m*3 -1 C 0 km/h
1309 23-12-2010 21:50:02 -1 C 3.89 g/m*3 -1 C 0 km/h
1310 23-12-2010 22:02:02 -0.9 C 3.91 g/m*3 -0.9 C 0 km/h
1311 23-12-2010 22:14:02 -1 C 3.89 g/m*3 -1 C 0 km/h
1312 23-12-2010 22:26:02 -1 C 3.89 g/m*3 -1 C 0 km/h
1313 23-12-2010 22:38:02 -0.9 C 3.96 g/m*3 -0.9 C 0 km/h
1314 23-12-2010 22:50:02 -0.9 C 3.96 g/m*3 -0.9 C 0 km/h
1315 23-12-2010 23:02:02 -0.9 C 3.96 g/m*3 -0.9 C 0 km/h
1316 23-12-2010 23:14:02 -0.8 C 3.99 g/m*3 -0.8 C 0 km/h
1317 23-12-2010 23:26:03 -0.7 C 4.02 g/m*3 -0.7 C 0 km/h
1318 23-12-2010 23:38:03 -0.8 C 3.94 g/m*3 -0.8 C 0 km/h
1319 23-12-2010 23:50:03 -0.8 C 3.99 g/m*3 -0.8 C 0 km/h
1320 24-12-2010 00:02:03 -0.9 C 3.91 g/m*3 -0.9 C 0 km/h
1321 24-12-2010 00:14:03 -0.9 C 3.91 g/m*3 -0.9 C 0 km/h
1322 24-12-2010 00:26:03 -0.9 C 3.91 g/m*3 -0.9 C 0 km/h
1323 24-12-2010 00:38:03 -0.9 C 3.91 g/m*3 -0.9 C 0 km/h
1324 24-12-2010 00:50:03 -0.9 C 3.91 g/m*3 -0.9 C 0 km/h
1325 24-12-2010 01:02:03 -0.9 C 3.91 g/m*3 -0.9 C 0 km/h
Sensor: Nr:Datum:Temp:Abs-Feuchte:Windchill:Wind:
Aussen-T/F 1326 24-12-2010 01:14:03 -0.9 C 3.96 g/m*3 -0.9 C 0 km/h
1327 24-12-2010 01:26:03 -0.7 C 4.02 g/m*3 -0.7 C 0 km/h
1328 24-12-2010 01:38:03 -0.7 C 3.97 g/m*3 -0.7 C 0 km/h
1329 24-12-2010 01:50:03 -0.5 C 4.03 g/m*3 -0.5 C 0 km/h
1330 24-12-2010 02:02:03 -0.6 C 4 g/m*3 -0.6 C 0 km/h
1331 24-12-2010 02:14:03 -0.6 C 4 g/m*3 -0.6 C 0 km/h
1332 24-12-2010 02:26:03 -0.5 C 4.03 g/m*3 -0.5 C 0 km/h
1333 24-12-2010 02:38:03 -0.4 C 4.05 g/m*3 -0.4 C 0 km/h
1334 24-12-2010 02:50:03 -0.4 C 4.05 g/m*3 -0.4 C 0 km/h
1335 24-12-2010 03:02:03 -0.4 C 4.05 g/m*3 -0.4 C 0 km/h
1336 24-12-2010 03:14:03 -0.5 C 4.03 g/m*3 -0.5 C 0 km/h
1337 24-12-2010 03:26:03 -0.5 C 4.03 g/m*3 -0.5 C 0 km/h
1338 24-12-2010 03:38:04 -0.5 C 4.03 g/m*3 -0.5 C 0 km/h
1339 24-12-2010 03:50:04 -0.5 C 4.03 g/m*3 -0.5 C 0 km/h
1340 24-12-2010 04:02:04 -0.5 C 4.03 g/m*3 -0.5 C 0 km/h
1341 24-12-2010 04:14:04 -0.5 C 4.03 g/m*3 -0.5 C 0 km/h
1342 24-12-2010 04:26:04 -0.5 C 4.03 g/m*3 -0.5 C 0 km/h
1343 24-12-2010 04:38:04 -0.5 C 4.03 g/m*3 -0.5 C 0 km/h
1344 24-12-2010 04:50:04 -0.5 C 4.03 g/m*3 -0.5 C 0 km/h
1345 24-12-2010 05:02:04 -0.5 C 3.98 g/m*3 -0.5 C 0 km/h
1346 24-12-2010 05:14:04 -0.7 C 3.92 g/m*3 -0.7 C 0 km/h
1347 24-12-2010 05:26:04 -0.7 C 3.92 g/m*3 -0.7 C 0 km/h
1348 24-12-2010 05:38:04 -0.9 C 3.87 g/m*3 -0.9 C 0 km/h
1349 24-12-2010 05:50:04 -0.9 C 3.87 g/m*3 -0.9 C 0 km/h
1350 24-12-2010 06:02:04 -0.9 C 3.87 g/m*3 -0.9 C 0 km/h
Sensor: Nr:Datum:Temp:Abs-Feuchte:Windchill:Wind:
Aussen-T/F 1351 24-12-2010 06:14:04 -1 C 3.8 g/m*3 -1 C 0 km/h
1352 24-12-2010 06:26:04 -1 C 3.8 g/m*3 -1 C 0 km/h
1353 24-12-2010 06:38:04 -0.9 C 3.78 g/m*3 -0.9 C 0 km/h
1354 24-12-2010 06:50:04 -1 C 3.71 g/m*3 -1 C 0 km/h
1355 24-12-2010 07:02:04 -1.1 C 3.68 g/m*3 -1.1 C 0 km/h
1356 24-12-2010 07:14:04 -1.2 C 3.66 g/m*3 -1.2 C 0 km/h
1357 24-12-2010 07:26:04 -1.2 C 3.61 g/m*3 -1.2 C 0 km/h
1358 24-12-2010 07:38:04 -1.2 C 3.61 g/m*3 -1.2 C 0 km/h
1359 24-12-2010 07:50:04 -1.3 C 3.63 g/m*3 -1.3 C 0 km/h
1360 24-12-2010 08:02:05 -1.3 C 3.63 g/m*3 -1.3 C 0 km/h
1361 24-12-2010 08:14:05 -1.4 C 3.65 g/m*3 -1.4 C 0 km/h
1362 24-12-2010 08:26:05 -1.5 C 3.62 g/m*3 -1.5 C 0 km/h
1363 24-12-2010 08:38:05 -1.6 C 3.64 g/m*3 -1.6 C 0 km/h
1364 24-12-2010 08:50:05 -1.6 C 3.64 g/m*3 -1.6 C 0 km/h
1365 24-12-2010 09:02:02 -1.7 C 3.66 g/m*3 -1.7 C 0 km/h
1366 24-12-2010 09:14:02 -1.7 C 3.66 g/m*3 -1.7 C 0 km/h
1367 24-12-2010 09:26:02 -1.7 C 3.66 g/m*3 -1.7 C 0 km/h
1368 24-12-2010 09:38:02 -1.7 C 3.66 g/m*3 -1.7 C 0 km/h
1369 24-12-2010 09:50:02 -1.7 C 3.66 g/m*3 -1.7 C 0 km/h
1370 24-12-2010 10:02:02 -1.7 C 3.66 g/m*3 -1.7 C 0 km/h
1371 24-12-2010 10:14:02 -1.6 C 3.68 g/m*3 -1.6 C 0 km/h
1372 24-12-2010 10:26:02 -1.6 C 3.68 g/m*3 -1.6 C 0 km/h
1373 24-12-2010 10:38:02 -1.5 C 3.67 g/m*3 -1.5 C 0 km/h
1374 24-12-2010 10:50:01 -1.3 C 3.72 g/m*3 -1.3 C 0 km/h
1375 24-12-2010 11:02:02 -1.5 C 3.67 g/m*3 -1.5 C 0 km/h
Sensor: Nr:Datum:Temp:Abs-Feuchte:Windchill:Wind:
Aussen-T/F 1376 24-12-2010 11:14:02 -1.3 C 3.72 g/m*3 -1.3 C 0 km/h
1377 24-12-2010 11:26:01 -1.3 C 3.67 g/m*3 -1.3 C 0 km/h
1378 24-12-2010 11:38:02 -1.2 C 3.66 g/m*3 -1.2 C 0 km/h
1379 24-12-2010 11:50:03 -1.3 C 3.63 g/m*3 -1.3 C 0 km/h
1380 24-12-2010 12:02:02 -1.3 C 3.59 g/m*3 -1.3 C 0 km/h
1381 24-12-2010 12:14:02 -1.3 C 3.59 g/m*3 -1.3 C 0 km/h
1382 24-12-2010 12:26:02 -1.6 C 3.51 g/m*3 -1.6 C 0 km/h
1383 24-12-2010 12:38:02 -1.4 C 3.56 g/m*3 -1.4 C 0 km/h
1384 24-12-2010 12:50:02 -1.1 C 3.64 g/m*3 -1.1 C 0 km/h
1385 24-12-2010 13:02:02 -1.3 C 3.54 g/m*3 -1.3 C 0 km/h
1386 24-12-2010 13:14:02 -1.4 C 3.52 g/m*3 -1.4 C 0 km/h
1387 24-12-2010 13:26:01 -1.4 C 3.52 g/m*3 -1.4 C 0 km/h
1388 24-12-2010 13:38:02 -1.4 C 3.52 g/m*3 -1.4 C 0 km/h
1389 24-12-2010 13:50:02 -1.4 C 3.52 g/m*3 -1.4 C 0 km/h
1390 24-12-2010 14:02:02 -1.4 C 3.52 g/m*3 -1.4 C 0 km/h
1391 24-12-2010 14:14:02 -1.4 C 3.52 g/m*3 -1.4 C 0 km/h
1392 24-12-2010 14:26:02 -1.4 C 3.52 g/m*3 -1.4 C 0 km/h
1393 24-12-2010 14:38:02 -1.4 C 3.52 g/m*3 -1.4 C 0 km/h
1394 24-12-2010 14:50:02 -1.4 C 3.52 g/m*3 -1.4 C 0 km/h
1395 24-12-2010 15:02:02 -1.4 C 3.52 g/m*3 -1.4 C 0 km/h
1396 24-12-2010 15:14:02 -1.4 C 3.52 g/m*3 -1.4 C 0 km/h
1397 24-12-2010 15:26:02 -2 C 3.46 g/m*3 -2 C 0 km/h
1398 24-12-2010 15:38:02 -2.2 C 3.41 g/m*3 -2.2 C 0 km/h
1399 24-12-2010 15:50:01 -2.2 C 3.41 g/m*3 -2.2 C 0 km/h
1400 24-12-2010 16:02:02 -2.2 C 3.41 g/m*3 -2.2 C 0 km/h
Sensor: Nr:Datum:Temp:Abs-Feuchte:Windchill:Wind:
Aussen-T/F 1401 24-12-2010 16:14:02 -2.4 C 3.36 g/m*3 -2.4 C 0 km/h
1402 24-12-2010 16:26:01 -2.5 C 3.34 g/m*3 -2.5 C 0 km/h
1403 24-12-2010 16:38:01 -2.5 C 3.34 g/m*3 -2.5 C 0 km/h
1404 24-12-2010 16:50:01 -2.5 C 3.3 g/m*3 -2.5 C 0 km/h
1405 24-12-2010 17:02:01 -2.5 C 3.26 g/m*3 -2.5 C 0 km/h
1406 24-12-2010 17:14:01 -2.5 C 3.26 g/m*3 -2.5 C 0 km/h
1407 24-12-2010 17:26:02 -2.5 C 3.21 g/m*3 -2.5 C 0 km/h
1408 24-12-2010 17:38:02 -2.6 C 3.19 g/m*3 -2.6 C 0 km/h
1409 24-12-2010 17:50:02 -2.7 C 3.17 g/m*3 -2.7 C 0 km/h
1410 24-12-2010 18:02:02 -2.7 C 3.25 g/m*3 -2.7 C 0 km/h
1411 24-12-2010 18:14:02 -2.8 C 3.23 g/m*3 -2.8 C 0 km/h
1412 24-12-2010 18:26:02 -2.8 C 3.23 g/m*3 -2.8 C 0 km/h
1413 24-12-2010 18:38:02 -2.9 C 3.2 g/m*3 -2.9 C 0 km/h
1414 24-12-2010 18:50:02 -2.8 C 3.23 g/m*3 -2.8 C 0 km/h
1415 24-12-2010 19:02:02 -2.9 C 3.16 g/m*3 -2.9 C 0 km/h
1416 24-12-2010 19:14:03 -2.9 C 3.16 g/m*3 -2.9 C 0 km/h
1417 24-12-2010 19:26:02 -2.9 C 3.13 g/m*3 -2.9 C 0 km/h
1418 24-12-2010 19:38:02 -3 C 3.1 g/m*3 -3 C 0 km/h
1419 24-12-2010 19:50:01 -3 C 3.1 g/m*3 -3 C 0 km/h
1420 24-12-2010 20:02:01 -3 C 3.1 g/m*3 -3 C 0 km/h
1421 24-12-2010 20:14:01 -3 C 3.14 g/m*3 -3 C 0 km/h
1422 24-12-2010 20:26:02 -3 C 3.1 g/m*3 -3 C 0 km/h
1423 24-12-2010 20:38:01 -3 C 3.1 g/m*3 -3 C 0 km/h
1424 24-12-2010 20:50:01 -3.1 C 3.08 g/m*3 -3.1 C 0 km/h
1425 24-12-2010 21:02:01 -3.1 C 3.08 g/m*3 -3.1 C 0 km/h
Sensor: Nr:Datum:Temp:Abs-Feuchte:Windchill:Wind:
Aussen-T/F 1426 24-12-2010 21:14:01 -3.2 C 3.06 g/m*3 -3.2 C 0 km/h
1427 24-12-2010 21:19:02 -3.2 C 3.06 g/m*3 -3.2 C 0 km/h
1428 24-12-2010 21:31:01 -3.3 C 3.04 g/m*3 -3.3 C 0 km/h
1429 24-12-2010 21:43:01 -3.3 C 3.04 g/m*3 -3.3 C 0 km/h
1430 24-12-2010 21:55:02 -3.3 C 3.08 g/m*3 -3.3 C 0 km/h
1431 24-12-2010 22:07:01 -3.4 C 3.05 g/m*3 -3.4 C 0 km/h
1432 24-12-2010 22:19:01 -3.5 C 3.03 g/m*3 -3.5 C 0 km/h
1433 24-12-2010 22:31:02 -3.6 C 3.01 g/m*3 -3.6 C 0 km/h
1434 24-12-2010 22:43:02 -3.6 C 3.01 g/m*3 -3.6 C 0 km/h
1435 24-12-2010 22:55:02 -3.7 C 2.99 g/m*3 -3.7 C 0 km/h
1436 24-12-2010 23:07:02 -3.7 C 2.99 g/m*3 -3.7 C 0 km/h
1437 24-12-2010 23:19:02 -3.7 C 2.99 g/m*3 -3.7 C 0 km/h
1438 24-12-2010 23:31:02 -3.7 C 2.99 g/m*3 -3.7 C 0 km/h
1439 24-12-2010 23:43:02 -3.8 C 2.97 g/m*3 -3.8 C 0 km/h
1440 24-12-2010 23:56:02 -3.8 C 2.97 g/m*3 -3.8 C 0 km/h
1441 25-12-2010 00:08:02 -3.8 C 2.97 g/m*3 -3.8 C 0 km/h
1442 25-12-2010 00:20:02 -3.8 C 2.97 g/m*3 -3.8 C 0 km/h
1443 25-12-2010 00:32:02 -3.8 C 2.97 g/m*3 -3.8 C 0 km/h
1444 25-12-2010 00:44:03 -3.8 C 2.93 g/m*3 -3.8 C 0 km/h
1445 25-12-2010 00:56:03 -3.9 C 2.87 g/m*3 -3.9 C 0 km/h
1446 25-12-2010 01:08:03 -3.9 C 2.87 g/m*3 -3.9 C 0 km/h
1447 25-12-2010 01:20:03 -3.9 C 2.87 g/m*3 -3.9 C 0 km/h
1448 25-12-2010 01:32:03 -3.9 C 2.87 g/m*3 -3.9 C 0 km/h
1449 25-12-2010 01:44:03 -3.9 C 2.87 g/m*3 -3.9 C 0 km/h
1450 25-12-2010 01:56:03 -4 C 2.89 g/m*3 -4 C 0 km/h
Sensor: Nr:Datum:Temp:Abs-Feuchte:Windchill:Wind:
Aussen-T/F 1451 25-12-2010 02:08:03 -4.1 C 2.87 g/m*3 -4.1 C 0 km/h
1452 25-12-2010 02:20:03 -4.1 C 2.91 g/m*3 -4.1 C 0 km/h
1453 25-12-2010 02:32:03 -4.1 C 2.87 g/m*3 -4.1 C 0 km/h
1454 25-12-2010 02:44:03 -4.1 C 2.87 g/m*3 -4.1 C 0 km/h
1455 25-12-2010 02:56:03 -4 C 2.85 g/m*3 -4 C 0 km/h
1456 25-12-2010 03:08:03 -4.1 C 2.83 g/m*3 -4.1 C 0 km/h
1457 25-12-2010 03:20:03 -4.1 C 2.83 g/m*3 -4.1 C 0 km/h
1458 25-12-2010 03:32:03 -4.2 C 2.81 g/m*3 -4.2 C 0 km/h
1459 25-12-2010 03:44:03 -4.2 C 2.81 g/m*3 -4.2 C 0 km/h
1460 25-12-2010 03:56:03 -4.2 C 2.78 g/m*3 -4.2 C 0 km/h
1461 25-12-2010 04:08:03 -4.2 C 2.74 g/m*3 -4.2 C 0 km/h
1462 25-12-2010 04:20:03 -4.2 C 2.7 g/m*3 -4.2 C 0 km/h
1463 25-12-2010 04:32:03 -4.2 C 2.67 g/m*3 -4.2 C 0 km/h
1464 25-12-2010 04:44:03 -4.3 C 2.65 g/m*3 -4.3 C 0 km/h
1465 25-12-2010 04:56:04 -4.4 C 2.63 g/m*3 -4.4 C 0 km/h
1466 25-12-2010 05:08:04 -4.4 C 2.63 g/m*3 -4.4 C 0 km/h
1467 25-12-2010 05:20:04 -4.4 C 2.6 g/m*3 -4.4 C 0 km/h
1468 25-12-2010 05:32:04 -4.5 C 2.58 g/m*3 -4.5 C 0 km/h
1469 25-12-2010 05:44:04 -4.5 C 2.58 g/m*3 -4.5 C 0 km/h
1470 25-12-2010 05:56:04 -4.5 C 2.54 g/m*3 -4.5 C 0 km/h
1471 25-12-2010 06:08:04 -4.6 C 2.52 g/m*3 -4.6 C 0 km/h
1472 25-12-2010 06:20:04 -4.6 C 2.52 g/m*3 -4.6 C 0 km/h
1473 25-12-2010 06:32:04 -4.6 C 2.52 g/m*3 -4.6 C 0 km/h
1474 25-12-2010 06:44:04 -4.6 C 2.52 g/m*3 -4.6 C 0 km/h
1475 25-12-2010 06:56:04 -4.7 C 2.47 g/m*3 -4.7 C 0 km/h
Sensor: Nr:Datum:Temp:Abs-Feuchte:Windchill:Wind:
Aussen-T/F 1476 25-12-2010 07:08:04 -4.7 C 2.44 g/m*3 -4.7 C 0 km/h
1477 25-12-2010 07:20:04 -4.7 C 2.44 g/m*3 -4.7 C 0 km/h
1478 25-12-2010 07:32:04 -4.7 C 2.44 g/m*3 -4.7 C 0 km/h
1479 25-12-2010 07:44:04 -4.7 C 2.47 g/m*3 -4.7 C 0 km/h
1480 25-12-2010 07:56:04 -4.8 C 2.45 g/m*3 -4.8 C 0 km/h
1481 25-12-2010 08:08:04 -4.7 C 2.47 g/m*3 -4.7 C 0 km/h
1482 25-12-2010 08:20:04 -4.7 C 2.47 g/m*3 -4.7 C 0 km/h
1483 25-12-2010 08:32:04 -4.8 C 2.49 g/m*3 -4.8 C 0 km/h
1484 25-12-2010 08:44:04 -4.9 C 2.47 g/m*3 -4.9 C 0 km/h
1485 25-12-2010 08:56:05 -4.9 C 2.47 g/m*3 -4.9 C 0 km/h
1486 25-12-2010 09:08:05 -4.9 C 2.43 g/m*3 -4.9 C 0 km/h
1487 25-12-2010 09:20:05 -4.8 C 2.45 g/m*3 -4.8 C 0 km/h
1488 25-12-2010 09:32:02 -4.9 C 2.43 g/m*3 -4.9 C 0 km/h
1489 25-12-2010 09:44:02 -4.8 C 2.42 g/m*3 -4.8 C 0 km/h
1490 25-12-2010 09:56:02 -4.7 C 2.44 g/m*3 -4.7 C 0 km/h
1491 25-12-2010 10:08:02 -4.7 C 2.4 g/m*3 -4.7 C 0 km/h
1492 25-12-2010 10:20:02 -4.7 C 2.37 g/m*3 -4.7 C 0 km/h
1493 25-12-2010 10:32:02 -4.7 C 2.33 g/m*3 -4.7 C 0 km/h
1494 25-12-2010 10:44:02 -4.6 C 2.31 g/m*3 -4.6 C 0 km/h
1495 25-12-2010 10:56:02 -4.2 C 2.38 g/m*3 -4.2 C 0 km/h
1496 25-12-2010 11:08:02 -4.5 C 2.29 g/m*3 -4.5 C 0 km/h
1497 25-12-2010 11:20:03 -4.1 C 2.29 g/m*3 -4.1 C 0 km/h
1498 25-12-2010 11:32:02 -4.3 C 2.18 g/m*3 -4.3 C 0 km/h
1499 25-12-2010 11:44:02 -4.9 C 2.06 g/m*3 -4.9 C 0 km/h
1500 25-12-2010 11:56:03 -4.7 C 2.09 g/m*3 -4.7 C 0 km/h
Sensor: Nr:Datum:Temp:Abs-Feuchte:Windchill:Wind:
Aussen-T/F 1501 25-12-2010 12:08:02 -4.9 C 2.06 g/m*3 -4.9 C 0 km/h
1502 25-12-2010 12:20:02 -5.2 C 2.01 g/m*3 -5.2 C 0 km/h
1503 25-12-2010 12:32:02 -4.9 C 2.09 g/m*3 -4.9 C 0 km/h
1504 25-12-2010 12:44:02 -4.9 C 2.09 g/m*3 -4.9 C 0 km/h
1505 25-12-2010 12:56:02 -5 C 2.08 g/m*3 -5 C 0 km/h
1506 25-12-2010 13:08:02 -4.6 C 2.17 g/m*3 -4.6 C 0 km/h
1507 25-12-2010 13:20:02 -4.5 C 2.19 g/m*3 -4.5 C 0 km/h
1508 25-12-2010 13:32:02 -4.7 C 2.19 g/m*3 -4.7 C 0 km/h
1509 25-12-2010 13:44:02 -5.1 C 2.13 g/m*3 -5.1 C 0 km/h
1510 25-12-2010 13:56:02 -4.7 C 2.23 g/m*3 -4.7 C 0 km/h
1511 25-12-2010 14:08:01 -5 C 2.11 g/m*3 -5 C 0 km/h
1512 25-12-2010 14:20:02 -4.9 C 2.13 g/m*3 -4.9 C 0 km/h
1513 25-12-2010 14:32:02 -4.9 C 2.09 g/m*3 -4.9 C 0 km/h
1514 25-12-2010 14:44:02 -4.8 C 2.11 g/m*3 -4.8 C 0 km/h
1515 25-12-2010 14:56:02 -5 C 2.08 g/m*3 -5 C 0 km/h
1516 25-12-2010 15:08:02 -5 C 2.11 g/m*3 -5 C 0 km/h
1517 25-12-2010 15:20:02 -5.4 C 2.05 g/m*3 -5.4 C 0 km/h
1518 25-12-2010 15:32:02 -5.6 C 2.05 g/m*3 -5.6 C 0 km/h
1519 25-12-2010 15:44:02 -5.7 C 2.1 g/m*3 -5.7 C 0 km/h
1520 25-12-2010 15:56:01 -6 C 2.12 g/m*3 -6 C 0 km/h
1521 25-12-2010 16:08:02 -6.4 C 2.12 g/m*3 -6.4 C 0 km/h
1522 25-12-2010 16:20:01 -6.7 C 2.11 g/m*3 -6.7 C 0 km/h
1523 25-12-2010 16:32:01 -6.8 C 2.12 g/m*3 -6.8 C 0 km/h
1524 25-12-2010 16:44:01 -7.3 C 2.07 g/m*3 -7.3 C 0 km/h
1525 25-12-2010 16:56:01 -6.9 C 2.19 g/m*3 -6.9 C 0 km/h
Sensor: Nr:Datum:Temp:Abs-Feuchte:Windchill:Wind:
Aussen-T/F 1526 25-12-2010 17:08:01 -7.4 C 2.12 g/m*3 -7.4 C 0 km/h
1527 25-12-2010 17:20:02 -7.6 C 2.11 g/m*3 -7.6 C 0 km/h
1528 25-12-2010 17:32:01 -7.8 C 2.08 g/m*3 -7.8 C 0 km/h
1529 25-12-2010 17:44:01 -7.3 C 2.19 g/m*3 -7.3 C 0 km/h
1530 25-12-2010 17:56:02 -7.5 C 2.13 g/m*3 -7.5 C 0 km/h
1531 25-12-2010 18:08:01 -7.6 C 2.14 g/m*3 -7.6 C 0 km/h
1532 25-12-2010 18:20:02 -7.5 C 2.16 g/m*3 -7.5 C 0 km/h
1533 25-12-2010 18:32:01 -7.4 C 2.2 g/m*3 -7.4 C 0 km/h
1534 25-12-2010 18:44:01 -7.4 C 2.17 g/m*3 -7.4 C 0 km/h
1535 25-12-2010 18:56:02 -7.4 C 2.17 g/m*3 -7.4 C 0 km/h
1536 25-12-2010 19:08:02 -7.4 C 2.17 g/m*3 -7.4 C 0 km/h
1537 25-12-2010 19:20:02 -7.4 C 2.17 g/m*3 -7.4 C 0 km/h
1538 25-12-2010 19:32:03 -7.4 C 2.17 g/m*3 -7.4 C 0 km/h
1539 25-12-2010 19:44:03 -7.4 C 2.17 g/m*3 -7.4 C 0 km/h
1540 25-12-2010 19:56:02 -7.4 C 2.17 g/m*3 -7.4 C 0 km/h
1541 25-12-2010 20:08:01 -7.4 C 2.17 g/m*3 -7.4 C 0 km/h
1542 25-12-2010 20:20:02 -8.8 C 2.04 g/m*3 -8.8 C 0 km/h
1543 25-12-2010 20:32:02 -9.2 C 1.98 g/m*3 -9.2 C 0 km/h
1544 25-12-2010 20:44:02 -8.6 C 2.09 g/m*3 -8.6 C 0 km/h
1545 25-12-2010 20:56:02 -7.7 C 2.26 g/m*3 -7.7 C 0 km/h
1546 25-12-2010 21:08:02 -7.6 C 2.31 g/m*3 -7.6 C 0 km/h
1547 25-12-2010 21:20:02 -7.7 C 2.26 g/m*3 -7.7 C 0 km/h
1548 25-12-2010 21:32:02 -7.6 C 2.28 g/m*3 -7.6 C 0 km/h
1549 25-12-2010 21:44:02 -7.2 C 2.35 g/m*3 -7.2 C 0 km/h
1550 25-12-2010 21:56:01 -6.9 C 2.37 g/m*3 -6.9 C 0 km/h
Sensor: Nr:Datum:Temp:Abs-Feuchte:Windchill:Wind:
Aussen-T/F 1551 25-12-2010 22:08:02 -6.8 C 2.36 g/m*3 -6.8 C 0 km/h
1552 25-12-2010 22:20:01 -6.9 C 2.31 g/m*3 -6.9 C 0 km/h
1553 25-12-2010 22:32:01 -6.8 C 2.33 g/m*3 -6.8 C 0 km/h
1554 25-12-2010 22:44:01 -6.8 C 2.27 g/m*3 -6.8 C 0 km/h
1555 25-12-2010 22:56:01 -6.7 C 2.26 g/m*3 -6.7 C 0 km/h
1556 25-12-2010 23:08:02 -6.8 C 2.18 g/m*3 -6.8 C 0 km/h
1557 25-12-2010 23:20:02 -6.8 C 2.18 g/m*3 -6.8 C 0 km/h
1558 25-12-2010 23:32:01 -6.9 C 2.16 g/m*3 -6.9 C 0 km/h
1559 25-12-2010 23:44:01 -6.8 C 2.18 g/m*3 -6.8 C 0 km/h
1560 25-12-2010 23:56:02 -6.8 C 2.18 g/m*3 -6.8 C 0 km/h
1561 26-12-2010 00:08:01 -6.8 C 2.18 g/m*3 -6.8 C 0 km/h
1562 26-12-2010 00:20:01 -6.9 C 2.16 g/m*3 -6.9 C 0 km/h
1563 26-12-2010 00:32:01 -7 C 2.12 g/m*3 -7 C 0 km/h
1564 26-12-2010 00:44:01 -7.3 C 2.07 g/m*3 -7.3 C 0 km/h
1565 26-12-2010 00:56:01 -7.4 C 2.09 g/m*3 -7.4 C 0 km/h
1566 26-12-2010 01:08:02 -7.8 C 2 g/m*3 -7.8 C 0 km/h
1567 26-12-2010 01:20:02 -7.9 C 2.01 g/m*3 -7.9 C 0 km/h
1568 26-12-2010 01:32:01 -8 C 2 g/m*3 -8 C 0 km/h
1569 26-12-2010 01:44:01 -8.2 C 1.97 g/m*3 -8.2 C 0 km/h
1570 26-12-2010 01:56:01 -8.1 C 1.98 g/m*3 -8.1 C 0 km/h
1571 26-12-2010 02:08:01 -8.6 C 1.88 g/m*3 -8.6 C 0 km/h
1572 26-12-2010 02:20:02 -8.7 C 1.9 g/m*3 -8.7 C 0 km/h
1573 26-12-2010 02:32:01 -8.8 C 1.88 g/m*3 -8.8 C 0 km/h
1574 26-12-2010 02:44:01 -8.9 C 1.87 g/m*3 -8.9 C 0 km/h
1575 26-12-2010 02:57:05 -8.9 C 1.87 g/m*3 -8.9 C 0 km/h
Sensor: Nr:Datum:Temp:Abs-Feuchte:Windchill:Wind:
Aussen-T/F 1576 26-12-2010 03:09:05 -9 C 1.83 g/m*3 -9 C 0 km/h
1577 26-12-2010 03:21:04 -9.1 C 1.81 g/m*3 -9.1 C 0 km/h
1578 26-12-2010 03:33:02 -9.1 C 1.81 g/m*3 -9.1 C 0 km/h
1579 26-12-2010 03:45:02 -9 C 1.83 g/m*3 -9 C 0 km/h
1580 26-12-2010 03:57:02 -9 C 1.83 g/m*3 -9 C 0 km/h
1581 26-12-2010 04:09:02 -9 C 1.83 g/m*3 -9 C 0 km/h
1582 26-12-2010 04:21:02 -9.2 C 1.83 g/m*3 -9.2 C 0 km/h
1583 26-12-2010 04:33:02 -9.1 C 1.86 g/m*3 -9.1 C 0 km/h
1584 26-12-2010 04:45:02 -8.9 C 1.89 g/m*3 -8.9 C 0 km/h
1585 26-12-2010 04:57:02 -9 C 1.85 g/m*3 -9 C 0 km/h
1586 26-12-2010 05:09:02 -8.8 C 1.91 g/m*3 -8.8 C 0 km/h
1587 26-12-2010 05:21:02 -8.6 C 1.91 g/m*3 -8.6 C 0 km/h
1588 26-12-2010 05:33:02 -8.6 C 1.91 g/m*3 -8.6 C 0 km/h
1589 26-12-2010 05:45:02 -8.2 C 1.97 g/m*3 -8.2 C 0 km/h
1590 26-12-2010 05:57:02 -8 C 2.02 g/m*3 -8 C 0 km/h
1591 26-12-2010 06:09:02 -7.6 C 2.06 g/m*3 -7.6 C 0 km/h
1592 26-12-2010 06:21:02 -7.4 C 2.09 g/m*3 -7.4 C 0 km/h
1593 26-12-2010 06:33:01 -7.3 C 2.1 g/m*3 -7.3 C 0 km/h
1594 26-12-2010 06:45:02 -7 C 2.15 g/m*3 -7 C 0 km/h
1595 26-12-2010 06:57:02 -6.9 C 2.16 g/m*3 -6.9 C 0 km/h
1596 26-12-2010 07:09:01 -6.7 C 2.2 g/m*3 -6.7 C 0 km/h
1597 26-12-2010 07:21:01 -6.4 C 2.25 g/m*3 -6.4 C 0 km/h
1598 26-12-2010 07:33:02 -6.2 C 2.28 g/m*3 -6.2 C 0 km/h
1599 26-12-2010 07:45:02 -6.2 C 2.25 g/m*3 -6.2 C 0 km/h
1600 26-12-2010 07:57:02 -6.2 C 2.25 g/m*3 -6.2 C 0 km/h
Sensor: Nr:Datum:Temp:Abs-Feuchte:Windchill:Wind:
Aussen-T/F 1601 26-12-2010 08:09:02 -6.1 C 2.3 g/m*3 -6.1 C 0 km/h
1602 26-12-2010 08:21:02 -5.9 C 2.36 g/m*3 -5.9 C 0 km/h
1603 26-12-2010 08:33:02 -5.8 C 2.35 g/m*3 -5.8 C 0 km/h
1604 26-12-2010 08:45:02 -5.8 C 2.38 g/m*3 -5.8 C 0 km/h
1605 26-12-2010 08:57:02 -5.6 C 2.45 g/m*3 -5.6 C 0 km/h
1606 26-12-2010 09:09:02 -5.4 C 2.51 g/m*3 -5.4 C 0 km/h
1607 26-12-2010 09:21:02 -5.2 C 2.55 g/m*3 -5.2 C 0 km/h
1608 26-12-2010 09:33:02 -4.7 C 2.64 g/m*3 -4.7 C 0 km/h
1609 26-12-2010 09:45:02 -4.6 C 2.63 g/m*3 -4.6 C 0 km/h
1610 26-12-2010 09:57:02 -4.5 C 2.65 g/m*3 -4.5 C 0 km/h
1611 26-12-2010 10:09:02 -4.5 C 2.65 g/m*3 -4.5 C 0 km/h
1612 26-12-2010 10:21:02 -4.4 C 2.67 g/m*3 -4.4 C 0 km/h
1613 26-12-2010 10:33:02 -4.4 C 2.67 g/m*3 -4.4 C 0 km/h
1614 26-12-2010 10:45:02 -4.1 C 2.69 g/m*3 -4.1 C 0 km/h
1615 26-12-2010 10:57:02 -3.8 C 2.71 g/m*3 -3.8 C 0 km/h
1616 26-12-2010 11:09:03 -3.6 C 2.71 g/m*3 -3.6 C 0 km/h
1617 26-12-2010 11:21:02 -3.5 C 2.69 g/m*3 -3.5 C 0 km/h
1618 26-12-2010 11:33:02 -3.7 C 2.65 g/m*3 -3.7 C 0 km/h
1619 26-12-2010 11:45:02 -3.5 C 2.69 g/m*3 -3.5 C 0 km/h
1620 26-12-2010 11:57:02 -3.3 C 2.69 g/m*3 -3.3 C 0 km/h
1621 26-12-2010 12:09:02 -3.4 C 2.71 g/m*3 -3.4 C 0 km/h
1622 26-12-2010 12:21:02 -3.3 C 2.73 g/m*3 -3.3 C 0 km/h
1623 26-12-2010 12:33:01 -3 C 2.83 g/m*3 -3 C 0 km/h
1624 26-12-2010 12:45:02 -3.1 C 2.81 g/m*3 -3.1 C 0 km/h
1625 26-12-2010 12:57:03 -2.9 C 2.85 g/m*3 -2.9 C 0 km/h
Sensor: Nr:Datum:Temp:Abs-Feuchte:Windchill:Wind:
Aussen-T/F 1626 26-12-2010 13:09:01 -2.8 C 2.87 g/m*3 -2.8 C 0 km/h
1627 26-12-2010 13:21:01 -2.6 C 2.87 g/m*3 -2.6 C 0 km/h
1628 26-12-2010 13:33:02 -2.7 C 2.81 g/m*3 -2.7 C 0 km/h
1629 26-12-2010 13:45:02 -2.8 C 2.83 g/m*3 -2.8 C 0 km/h
1630 26-12-2010 13:57:02 -2.7 C 2.89 g/m*3 -2.7 C 0 km/h
1631 26-12-2010 14:09:02 -2.8 C 2.91 g/m*3 -2.8 C 0 km/h
1632 26-12-2010 14:21:01 -2.7 C 2.97 g/m*3 -2.7 C 0 km/h
1633 26-12-2010 14:33:02 -2.4 C 3.07 g/m*3 -2.4 C 0 km/h
1634 26-12-2010 14:45:02 -2.7 C 3.01 g/m*3 -2.7 C 0 km/h
1635 26-12-2010 14:57:02 -2.7 C 3.05 g/m*3 -2.7 C 0 km/h
1636 26-12-2010 15:09:02 -2.6 C 3.11 g/m*3 -2.6 C 0 km/h
1637 26-12-2010 15:21:02 -2.6 C 3.15 g/m*3 -2.6 C 0 km/h
1638 26-12-2010 15:33:02 -2.8 C 3.11 g/m*3 -2.8 C 0 km/h
1639 26-12-2010 15:45:02 -2.8 C 3.15 g/m*3 -2.8 C 0 km/h
1640 26-12-2010 15:57:02 -2.8 C 3.15 g/m*3 -2.8 C 0 km/h
1641 26-12-2010 16:09:02 -2.8 C 3.15 g/m*3 -2.8 C 0 km/h
1642 26-12-2010 16:21:02 -2.8 C 3.15 g/m*3 -2.8 C 0 km/h
1643 26-12-2010 16:33:02 -2.9 C 3.16 g/m*3 -2.9 C 0 km/h
1644 26-12-2010 16:45:02 -2.9 C 3.16 g/m*3 -2.9 C 0 km/h
1645 26-12-2010 16:57:02 -2.9 C 3.16 g/m*3 -2.9 C 0 km/h
1646 26-12-2010 17:09:02 -2.8 C 3.19 g/m*3 -2.8 C 0 km/h
1647 26-12-2010 17:21:02 -2.7 C 3.17 g/m*3 -2.7 C 0 km/h
1648 26-12-2010 17:33:02 -2.8 C 3.15 g/m*3 -2.8 C 0 km/h
1649 26-12-2010 17:45:02 -2.9 C 3.16 g/m*3 -2.9 C 0 km/h
1650 26-12-2010 17:57:02 -2.9 C 3.16 g/m*3 -2.9 C 0 km/h
Sensor: Nr:Datum:Temp:Abs-Feuchte:Windchill:Wind:
Aussen-T/F 1651 26-12-2010 18:09:01 -3.2 C 3.1 g/m*3 -3.2 C 0 km/h
1652 26-12-2010 18:21:02 -3.1 C 3.16 g/m*3 -3.1 C 0 km/h
1653 26-12-2010 18:33:01 -2.8 C 3.23 g/m*3 -2.8 C 0 km/h
1654 26-12-2010 18:45:02 -2.7 C 3.21 g/m*3 -2.7 C 0 km/h
1655 26-12-2010 18:57:03 -2.7 C 3.17 g/m*3 -2.7 C 0 km/h
1656 26-12-2010 19:09:01 -2.8 C 3.15 g/m*3 -2.8 C 0 km/h
1657 26-12-2010 19:21:01 -2.7 C 3.17 g/m*3 -2.7 C 0 km/h
1658 26-12-2010 19:33:02 -2.7 C 3.17 g/m*3 -2.7 C 0 km/h
1659 26-12-2010 19:45:02 -2.7 C 3.21 g/m*3 -2.7 C 0 km/h
1660 26-12-2010 19:57:02 -2.7 C 3.21 g/m*3 -2.7 C 0 km/h
1661 26-12-2010 20:09:02 -3 C 3.14 g/m*3 -3 C 0 km/h
1662 26-12-2010 20:21:02 -3.5 C 3.03 g/m*3 -3.5 C 0 km/h
1663 26-12-2010 20:33:02 -2.9 C 3.24 g/m*3 -2.9 C 0 km/h
1664 26-12-2010 20:45:02 -2.8 C 3.23 g/m*3 -2.8 C 0 km/h
1665 26-12-2010 20:57:02 -3 C 3.14 g/m*3 -3 C 0 km/h
1666 26-12-2010 21:09:02 -3.5 C 3.03 g/m*3 -3.5 C 0 km/h
1667 26-12-2010 21:21:02 -3 C 3.18 g/m*3 -3 C 0 km/h
1668 26-12-2010 21:33:02 -3 C 3.14 g/m*3 -3 C 0 km/h
1669 26-12-2010 21:45:02 -3.5 C 3.03 g/m*3 -3.5 C 0 km/h
1670 26-12-2010 21:57:02 -3.5 C 3.03 g/m*3 -3.5 C 0 km/h
1671 26-12-2010 22:09:02 -3.2 C 3.14 g/m*3 -3.2 C 0 km/h
1672 26-12-2010 22:22:04 -3 C 3.14 g/m*3 -3 C 0 km/h
1673 26-12-2010 22:34:04 -3 C 3.1 g/m*3 -3 C 0 km/h
1674 26-12-2010 22:46:04 -2.9 C 3.13 g/m*3 -2.9 C 0 km/h
1675 26-12-2010 22:58:04 -3.1 C 3.12 g/m*3 -3.1 C 0 km/h
Sensor: Nr:Datum:Temp:Abs-Feuchte:Windchill:Wind:
Aussen-T/F 1676 26-12-2010 23:10:04 -3.1 C 3.12 g/m*3 -3.1 C 0 km/h
1677 26-12-2010 23:22:04 -2.8 C 3.19 g/m*3 -2.8 C 0 km/h
1678 26-12-2010 23:34:04 -2.6 C 3.19 g/m*3 -2.6 C 0 km/h
1679 26-12-2010 23:46:04 -2.5 C 3.21 g/m*3 -2.5 C 0 km/h
1680 26-12-2010 23:58:04 -2.6 C 3.19 g/m*3 -2.6 C 0 km/h
1681 27-12-2010 00:10:04 -2.7 C 3.17 g/m*3 -2.7 C 0 km/h
1682 27-12-2010 00:22:04 -2.8 C 3.19 g/m*3 -2.8 C 0 km/h
1683 27-12-2010 00:34:04 -2.7 C 3.21 g/m*3 -2.7 C 0 km/h
1684 27-12-2010 00:46:04 -2.6 C 3.23 g/m*3 -2.6 C 0 km/h
1685 27-12-2010 00:58:05 -2.4 C 3.28 g/m*3 -2.4 C 0 km/h
1686 27-12-2010 01:10:05 -2.3 C 3.26 g/m*3 -2.3 C 0 km/h
1687 27-12-2010 01:22:05 -1.9 C 3.35 g/m*3 -1.9 C 0 km/h
1688 27-12-2010 01:34:05 -1.9 C 3.31 g/m*3 -1.9 C 0 km/h
1689 27-12-2010 01:46:05 -1.8 C 3.33 g/m*3 -1.8 C 0 km/h
1690 27-12-2010 01:58:05 -1.7 C 3.31 g/m*3 -1.7 C 0 km/h
1691 27-12-2010 02:10:05 -1.6 C 3.34 g/m*3 -1.6 C 0 km/h
1692 27-12-2010 02:22:05 -1.5 C 3.36 g/m*3 -1.5 C 0 km/h
1693 27-12-2010 02:34:05 -1.6 C 3.34 g/m*3 -1.6 C 0 km/h
1694 27-12-2010 02:46:05 -1.5 C 3.36 g/m*3 -1.5 C 0 km/h
1695 27-12-2010 02:58:05 -1.8 C 3.33 g/m*3 -1.8 C 0 km/h
1696 27-12-2010 03:10:05 -1.5 C 3.41 g/m*3 -1.5 C 0 km/h
1697 27-12-2010 03:22:05 -1.4 C 3.43 g/m*3 -1.4 C 0 km/h
1698 27-12-2010 03:34:05 -1.4 C 3.39 g/m*3 -1.4 C 0 km/h
1699 27-12-2010 03:46:05 -1.3 C 3.41 g/m*3 -1.3 C 0 km/h
1700 27-12-2010 03:58:05 -1.3 C 3.41 g/m*3 -1.3 C 0 km/h
Sensor: Nr:Datum:Temp:Abs-Feuchte:Windchill:Wind:
Aussen-T/F 1701 27-12-2010 04:10:05 -1.3 C 3.36 g/m*3 -1.3 C 0 km/h
1702 27-12-2010 04:22:05 -1.3 C 3.36 g/m*3 -1.3 C 0 km/h
1703 27-12-2010 04:34:05 -1.3 C 3.36 g/m*3 -1.3 C 0 km/h
1704 27-12-2010 04:46:05 -1.3 C 3.36 g/m*3 -1.3 C 0 km/h
1705 27-12-2010 04:58:05 -1.3 C 3.36 g/m*3 -1.3 C 0 km/h
1706 27-12-2010 05:10:06 -1.3 C 3.36 g/m*3 -1.3 C 0 km/h
1707 27-12-2010 05:22:06 -1.3 C 3.36 g/m*3 -1.3 C 0 km/h
1708 27-12-2010 05:34:06 -1.3 C 3.36 g/m*3 -1.3 C 0 km/h
1709 27-12-2010 05:46:06 -1.3 C 3.36 g/m*3 -1.3 C 0 km/h
1710 27-12-2010 05:58:06 -1.4 C 3.39 g/m*3 -1.4 C 0 km/h
1711 27-12-2010 06:10:06 -1.4 C 3.39 g/m*3 -1.4 C 0 km/h
1712 27-12-2010 06:22:06 -1.4 C 3.39 g/m*3 -1.4 C 0 km/h
1713 27-12-2010 06:34:06 -1.5 C 3.36 g/m*3 -1.5 C 0 km/h
1714 27-12-2010 06:46:06 -1.4 C 3.39 g/m*3 -1.4 C 0 km/h
1715 27-12-2010 06:58:06 -1.5 C 3.36 g/m*3 -1.5 C 0 km/h
1716 27-12-2010 07:10:06 -1.6 C 3.34 g/m*3 -1.6 C 0 km/h
1717 27-12-2010 07:22:06 -1.5 C 3.36 g/m*3 -1.5 C 0 km/h
1718 27-12-2010 07:34:06 -1.5 C 3.36 g/m*3 -1.5 C 0 km/h
1719 27-12-2010 07:46:06 -1.7 C 3.31 g/m*3 -1.7 C 0 km/h
1720 27-12-2010 07:58:06 -1.8 C 3.29 g/m*3 -1.8 C 0 km/h
1721 27-12-2010 08:10:06 -1.8 C 3.33 g/m*3 -1.8 C 0 km/h
1722 27-12-2010 08:22:06 -1.8 C 3.29 g/m*3 -1.8 C 0 km/h
1723 27-12-2010 08:34:06 -1.9 C 3.27 g/m*3 -1.9 C 0 km/h
1724 27-12-2010 08:46:02 -1.9 C 3.27 g/m*3 -1.9 C 0 km/h
1725 27-12-2010 08:58:02 -1.9 C 3.27 g/m*3 -1.9 C 0 km/h
Sensor: Nr:Datum:Temp:Abs-Feuchte:Windchill:Wind:
Aussen-T/F 1726 27-12-2010 09:10:02 -1.8 C 3.25 g/m*3 -1.8 C 0 km/h
1727 27-12-2010 09:22:02 -1.8 C 3.25 g/m*3 -1.8 C 0 km/h
1728 27-12-2010 09:34:02 -1.8 C 3.25 g/m*3 -1.8 C 0 km/h
1729 27-12-2010 09:46:02 -1.8 C 3.25 g/m*3 -1.8 C 0 km/h
1730 27-12-2010 09:58:02 -1.7 C 3.23 g/m*3 -1.7 C 0 km/h
1731 27-12-2010 10:10:02 -1.6 C 3.25 g/m*3 -1.6 C 0 km/h
1732 27-12-2010 10:22:03 -1.4 C 3.3 g/m*3 -1.4 C 0 km/h
1733 27-12-2010 10:34:02 -1.4 C 3.3 g/m*3 -1.4 C 0 km/h
1734 27-12-2010 10:46:02 -1.4 C 3.25 g/m*3 -1.4 C 0 km/h
1735 27-12-2010 10:58:02 -1.3 C 3.28 g/m*3 -1.3 C 0 km/h
1736 27-12-2010 11:10:02 -1.2 C 3.3 g/m*3 -1.2 C 0 km/h
1737 27-12-2010 11:22:02 -1.2 C 3.25 g/m*3 -1.2 C 0 km/h
1738 27-12-2010 11:34:02 -1.2 C 3.25 g/m*3 -1.2 C 0 km/h
1739 27-12-2010 11:46:02 -1 C 3.3 g/m*3 -1 C 0 km/h
1740 27-12-2010 11:58:02 -1.2 C 3.21 g/m*3 -1.2 C 0 km/h
1741 27-12-2010 12:10:02 -0.8 C 3.25 g/m*3 -0.8 C 0 km/h
1742 27-12-2010 12:22:02 -1 C 3.21 g/m*3 -1 C 0 km/h
1743 27-12-2010 12:34:01 -1.1 C 3.19 g/m*3 -1.1 C 0 km/h
1744 27-12-2010 12:46:02 -1.1 C 3.23 g/m*3 -1.1 C 0 km/h
1745 27-12-2010 12:58:02 -1.1 C 3.23 g/m*3 -1.1 C 0 km/h
1746 27-12-2010 13:10:01 -1.2 C 3.25 g/m*3 -1.2 C 0 km/h
1747 27-12-2010 13:22:02 -0.9 C 3.32 g/m*3 -0.9 C 0 km/h
1748 27-12-2010 13:34:02 -1 C 3.25 g/m*3 -1 C 0 km/h
1749 27-12-2010 13:46:02 -0.8 C 3.3 g/m*3 -0.8 C 0 km/h
1750 27-12-2010 13:58:02 -0.5 C 3.32 g/m*3 -0.5 C 0 km/h
Sensor: Nr:Datum:Temp:Abs-Feuchte:Windchill:Wind:
Aussen-T/F 1751 27-12-2010 14:10:03 -0.9 C 3.23 g/m*3 -0.9 C 0 km/h
1752 27-12-2010 14:22:02 -1.1 C 3.23 g/m*3 -1.1 C 0 km/h
1753 27-12-2010 14:34:02 -1 C 3.3 g/m*3 -1 C 0 km/h
1754 27-12-2010 14:46:01 -1.1 C 3.28 g/m*3 -1.1 C 0 km/h
1755 27-12-2010 14:58:01 -1.1 C 3.32 g/m*3 -1.1 C 0 km/h
1756 27-12-2010 15:10:02 -1.2 C 3.3 g/m*3 -1.2 C 0 km/h
1757 27-12-2010 15:22:01 -1.3 C 3.32 g/m*3 -1.3 C 0 km/h
1758 27-12-2010 15:34:01 -1.3 C 3.36 g/m*3 -1.3 C 0 km/h
1759 27-12-2010 15:46:01 -1.2 C 3.34 g/m*3 -1.2 C 0 km/h
1760 27-12-2010 15:58:01 -1.5 C 3.32 g/m*3 -1.5 C 0 km/h
1761 27-12-2010 16:10:02 -1.9 C 3.23 g/m*3 -1.9 C 0 km/h
1762 27-12-2010 16:22:01 -2.1 C 3.26 g/m*3 -2.1 C 0 km/h
1763 27-12-2010 16:34:01 -2.3 C 3.26 g/m*3 -2.3 C 0 km/h
1764 27-12-2010 16:46:01 -2.5 C 3.26 g/m*3 -2.5 C 0 km/h
1765 27-12-2010 16:58:01 -2.7 C 3.25 g/m*3 -2.7 C 0 km/h
1766 27-12-2010 17:10:02 -3 C 3.22 g/m*3 -3 C 0 km/h
1767 27-12-2010 17:22:02 -3.3 C 3.19 g/m*3 -3.3 C 0 km/h
1768 27-12-2010 17:34:01 -3.3 C 3.23 g/m*3 -3.3 C 0 km/h
1769 27-12-2010 17:46:02 -3.1 C 3.32 g/m*3 -3.1 C 0 km/h
1770 27-12-2010 17:58:02 -3.1 C 3.32 g/m*3 -3.1 C 0 km/h
1771 27-12-2010 18:10:01 -3.1 C 3.35 g/m*3 -3.1 C 0 km/h
1772 27-12-2010 18:22:02 -3.2 C 3.33 g/m*3 -3.2 C 0 km/h
1773 27-12-2010 18:34:01 -3.2 C 3.33 g/m*3 -3.2 C 0 km/h
1774 27-12-2010 18:46:02 -3.2 C 3.33 g/m*3 -3.2 C 0 km/h
1775 27-12-2010 18:58:02 -3.2 C 3.33 g/m*3 -3.2 C 0 km/h
Sensor: Nr:Datum:Temp:Abs-Feuchte:Windchill:Wind:
Aussen-T/F 1776 27-12-2010 19:10:02 -3.4 C 3.28 g/m*3 -3.4 C 0 km/h
1777 27-12-2010 19:22:02 -3.6 C 3.24 g/m*3 -3.6 C 0 km/h
1778 27-12-2010 19:34:03 -3.7 C 3.21 g/m*3 -3.7 C 0 km/h
1779 27-12-2010 19:46:02 -4 C 3.15 g/m*3 -4 C 0 km/h
1780 27-12-2010 19:58:02 -4 C 3.15 g/m*3 -4 C 0 km/h
1781 27-12-2010 20:10:01 -4.1 C 3.16 g/m*3 -4.1 C 0 km/h
1782 27-12-2010 20:22:02 -4.1 C 3.16 g/m*3 -4.1 C 0 km/h
1783 27-12-2010 20:34:02 -4.4 C 3.09 g/m*3 -4.4 C 0 km/h
1784 27-12-2010 20:46:02 -4.3 C 3.12 g/m*3 -4.3 C 0 km/h
1785 27-12-2010 20:58:02 -4.6 C 3.05 g/m*3 -4.6 C 0 km/h
1786 27-12-2010 21:10:02 -4.6 C 3.05 g/m*3 -4.6 C 0 km/h
1787 27-12-2010 21:22:02 -4.5 C 3.07 g/m*3 -4.5 C 0 km/h
1788 27-12-2010 21:34:02 -4.5 C 3.07 g/m*3 -4.5 C 0 km/h
1789 27-12-2010 21:46:02 -4.5 C 3.07 g/m*3 -4.5 C 0 km/h
1790 27-12-2010 21:58:02 -3.9 C 3.24 g/m*3 -3.9 C 0 km/h
1791 27-12-2010 22:10:02 -3.8 C 3.27 g/m*3 -3.8 C 0 km/h
1792 27-12-2010 22:23:02 -4.5 C 3.07 g/m*3 -4.5 C 0 km/h
1793 27-12-2010 22:35:02 -4.5 C 3.07 g/m*3 -4.5 C 0 km/h
1794 27-12-2010 22:47:02 -3.9 C 3.21 g/m*3 -3.9 C 0 km/h
1795 27-12-2010 22:59:02 -4 C 3.18 g/m*3 -4 C 0 km/h
1796 27-12-2010 23:11:03 -3.9 C 3.24 g/m*3 -3.9 C 0 km/h
1797 27-12-2010 23:23:03 -3.9 C 3.21 g/m*3 -3.9 C 0 km/h
1798 27-12-2010 23:35:03 -4.3 C 3.12 g/m*3 -4.3 C 0 km/h
1799 27-12-2010 23:47:03 -4.7 C 3.03 g/m*3 -4.7 C 0 km/h
1800 27-12-2010 23:59:03 -4.9 C 2.95 g/m*3 -4.9 C 0 km/h
Sensor: Nr:Datum:Temp:Abs-Feuchte:Windchill:Wind:
Aussen-T/F 1801 28-12-2010 00:11:03 -4.7 C 3.03 g/m*3 -4.7 C 0 km/h
1802 28-12-2010 00:23:03 -4.5 C 3.07 g/m*3 -4.5 C 0 km/h
1803 28-12-2010 00:35:03 -4.5 C 3.07 g/m*3 -4.5 C 0 km/h
1804 28-12-2010 00:47:03 -4.3 C 3.12 g/m*3 -4.3 C 0 km/h
1805 28-12-2010 00:59:03 -4.3 C 3.12 g/m*3 -4.3 C 0 km/h
1806 28-12-2010 01:11:03 -4.1 C 3.16 g/m*3 -4.1 C 0 km/h
1807 28-12-2010 01:23:03 -4.4 C 3.09 g/m*3 -4.4 C 0 km/h
1808 28-12-2010 01:35:03 -4.4 C 3.09 g/m*3 -4.4 C 0 km/h
1809 28-12-2010 01:47:03 -4.3 C 3.12 g/m*3 -4.3 C 0 km/h
1810 28-12-2010 01:59:03 -4.3 C 3.12 g/m*3 -4.3 C 0 km/h
1811 28-12-2010 02:11:03 -4.1 C 3.16 g/m*3 -4.1 C 0 km/h
1812 28-12-2010 02:23:03 -4 C 3.18 g/m*3 -4 C 0 km/h
1813 28-12-2010 02:35:03 -4.1 C 3.16 g/m*3 -4.1 C 0 km/h
1814 28-12-2010 02:47:03 -4.2 C 3.14 g/m*3 -4.2 C 0 km/h
1815 28-12-2010 02:59:03 -4.4 C 3.09 g/m*3 -4.4 C 0 km/h
1816 28-12-2010 03:11:03 -4.2 C 3.14 g/m*3 -4.2 C 0 km/h
1817 28-12-2010 03:23:04 -4.2 C 3.14 g/m*3 -4.2 C 0 km/h
1818 28-12-2010 03:35:04 -4.5 C 3.04 g/m*3 -4.5 C 0 km/h
1819 28-12-2010 03:47:04 -4.5 C 3.04 g/m*3 -4.5 C 0 km/h
1820 28-12-2010 03:59:04 -4.4 C 3.06 g/m*3 -4.4 C 0 km/h
1821 28-12-2010 04:11:04 -4.2 C 3.14 g/m*3 -4.2 C 0 km/h
1822 28-12-2010 04:23:04 -4.2 C 3.14 g/m*3 -4.2 C 0 km/h
1823 28-12-2010 04:35:04 -4.2 C 3.14 g/m*3 -4.2 C 0 km/h
1824 28-12-2010 04:47:04 -4.2 C 3.14 g/m*3 -4.2 C 0 km/h
1825 28-12-2010 04:59:04 -4 C 3.18 g/m*3 -4 C 0 km/h
Sensor: Nr:Datum:Temp:Abs-Feuchte:Windchill:Wind:
Aussen-T/F 1826 28-12-2010 05:11:04 -3.9 C 3.21 g/m*3 -3.9 C 0 km/h
1827 28-12-2010 05:23:04 -3.8 C 3.23 g/m*3 -3.8 C 0 km/h
1828 28-12-2010 05:35:04 -3.8 C 3.23 g/m*3 -3.8 C 0 km/h
1829 28-12-2010 05:47:04 -3.6 C 3.27 g/m*3 -3.6 C 0 km/h
1830 28-12-2010 05:59:04 -3.8 C 3.23 g/m*3 -3.8 C 0 km/h
1831 28-12-2010 06:11:04 -3.6 C 3.27 g/m*3 -3.6 C 0 km/h
1832 28-12-2010 06:23:04 -3.7 C 3.25 g/m*3 -3.7 C 0 km/h
1833 28-12-2010 06:35:04 -3.8 C 3.23 g/m*3 -3.8 C 0 km/h
1834 28-12-2010 06:47:04 -3.8 C 3.23 g/m*3 -3.8 C 0 km/h
1835 28-12-2010 06:59:04 -3.8 C 3.23 g/m*3 -3.8 C 0 km/h
1836 28-12-2010 07:11:04 -3.7 C 3.25 g/m*3 -3.7 C 0 km/h
1837 28-12-2010 07:23:05 -3.7 C 3.21 g/m*3 -3.7 C 0 km/h
1838 28-12-2010 07:35:05 -3.7 C 3.21 g/m*3 -3.7 C 0 km/h
1839 28-12-2010 07:47:05 -3.7 C 3.21 g/m*3 -3.7 C 0 km/h
1840 28-12-2010 07:59:05 -3.8 C 3.19 g/m*3 -3.8 C 0 km/h
1841 28-12-2010 08:11:05 -3.7 C 3.21 g/m*3 -3.7 C 0 km/h
1842 28-12-2010 08:23:05 -3.7 C 3.21 g/m*3 -3.7 C 0 km/h
1843 28-12-2010 08:35:05 -3.6 C 3.24 g/m*3 -3.6 C 0 km/h
1844 28-12-2010 08:47:05 -3.5 C 3.26 g/m*3 -3.5 C 0 km/h
1845 28-12-2010 08:59:05 -3.3 C 3.31 g/m*3 -3.3 C 0 km/h
1846 28-12-2010 09:11:05 -3.1 C 3.35 g/m*3 -3.1 C 0 km/h
1847 28-12-2010 09:23:05 -3 C 3.38 g/m*3 -3 C 0 km/h
1848 28-12-2010 09:35:05 -2.7 C 3.45 g/m*3 -2.7 C 0 km/h
1849 28-12-2010 09:47:05 -2.5 C 3.46 g/m*3 -2.5 C 0 km/h
1850 28-12-2010 09:59:05 -2.1 C 3.56 g/m*3 -2.1 C 0 km/h
Sensor: Nr:Datum:Temp:Abs-Feuchte:Windchill:Wind:
Aussen-T/F 1851 28-12-2010 10:11:02 -1.7 C 3.62 g/m*3 -1.7 C 0 km/h
1852 28-12-2010 10:23:02 -1.4 C 3.65 g/m*3 -1.4 C 0 km/h
1853 28-12-2010 10:35:02 -1.1 C 3.68 g/m*3 -1.1 C 0 km/h
1854 28-12-2010 10:47:01 -0.7 C 3.6 g/m*3 -0.7 C 0 km/h
1855 28-12-2010 10:59:01 -0.7 C 3.51 g/m*3 -0.7 C 0 km/h
1856 28-12-2010 11:11:02 -0.8 C 3.44 g/m*3 -0.8 C 0 km/h
1857 28-12-2010 11:23:01 -0.7 C 3.51 g/m*3 -0.7 C 0 km/h
1858 28-12-2010 11:35:01 -0.6 C 3.49 g/m*3 -0.6 C 0 km/h
1859 28-12-2010 11:47:01 -0.3 C 3.46 g/m*3 -0.3 C 0 km/h
1860 28-12-2010 11:59:01 -0.3 C 3.42 g/m*3 -0.3 C 0 km/h
1861 28-12-2010 12:11:02 0.1 C 3.46 g/m*3 0.1 C 0 km/h
1862 28-12-2010 12:23:01 0.2 C 3.39 g/m*3 0.2 C 0 km/h
1863 28-12-2010 12:35:02 0.5 C 3.26 g/m*3 0.5 C 0 km/h
1864 28-12-2010 12:47:01 0.3 C 3.22 g/m*3 0.3 C 0 km/h
1865 28-12-2010 12:59:01 0.4 C 3.24 g/m*3 0.4 C 0 km/h
1866 28-12-2010 13:11:02 0.2 C 3.24 g/m*3 0.2 C 0 km/h
1867 28-12-2010 13:23:01 0.5 C 3.36 g/m*3 0.5 C 0 km/h
1868 28-12-2010 13:35:01 0.7 C 3.41 g/m*3 0.7 C 0 km/h
1869 28-12-2010 13:47:01 0.4 C 3.34 g/m*3 0.4 C 0 km/h
1870 28-12-2010 13:59:01 0 C 3.25 g/m*3 0 C 0 km/h
1871 28-12-2010 14:11:01 0.3 C 3.36 g/m*3 0.3 C 0 km/h
1872 28-12-2010 14:23:02 0 C 3.29 g/m*3 0 C 0 km/h
1873 28-12-2010 14:35:01 -0.1 C 3.27 g/m*3 -0.1 C 0 km/h
1874 28-12-2010 14:47:02 0 C 3.34 g/m*3 0 C 0 km/h
1875 28-12-2010 14:59:02 -0.2 C 3.39 g/m*3 -0.2 C 0 km/h
Sensor: Nr:Datum:Temp:Abs-Feuchte:Windchill:Wind:
Aussen-T/F 1876 28-12-2010 15:11:01 -0.4 C 3.39 g/m*3 -0.4 C 0 km/h
1877 28-12-2010 15:23:01 -0.5 C 3.42 g/m*3 -0.5 C 0 km/h
1878 28-12-2010 15:35:01 -0.6 C 3.44 g/m*3 -0.6 C 0 km/h
1879 28-12-2010 15:47:02 -0.6 C 3.44 g/m*3 -0.6 C 0 km/h
1880 28-12-2010 15:59:02 -0.6 C 3.39 g/m*3 -0.6 C 0 km/h
1881 28-12-2010 16:11:01 -0.6 C 3.39 g/m*3 -0.6 C 0 km/h
1882 28-12-2010 16:23:02 -0.7 C 3.37 g/m*3 -0.7 C 0 km/h
1883 28-12-2010 16:35:02 -0.7 C 3.37 g/m*3 -0.7 C 0 km/h
1884 28-12-2010 16:47:01 -0.7 C 3.42 g/m*3 -0.7 C 0 km/h
1885 28-12-2010 16:59:01 -0.7 C 3.42 g/m*3 -0.7 C 0 km/h
1886 28-12-2010 17:11:02 -0.7 C 3.42 g/m*3 -0.7 C 0 km/h
1887 28-12-2010 17:23:01 -0.7 C 3.42 g/m*3 -0.7 C 0 km/h
1888 28-12-2010 17:35:02 -0.7 C 3.42 g/m*3 -0.7 C 0 km/h
1889 28-12-2010 17:47:02 -0.7 C 3.42 g/m*3 -0.7 C 0 km/h
1890 28-12-2010 17:59:02 -0.7 C 3.42 g/m*3 -0.7 C 0 km/h
1891 28-12-2010 18:11:02 -0.8 C 3.44 g/m*3 -0.8 C 0 km/h
1892 28-12-2010 18:23:01 -0.8 C 3.44 g/m*3 -0.8 C 0 km/h
1893 28-12-2010 18:35:02 -0.8 C 3.35 g/m*3 -0.8 C 0 km/h
1894 28-12-2010 18:47:01 -0.9 C 3.32 g/m*3 -0.9 C 0 km/h
1895 28-12-2010 18:59:01 -1.1 C 3.37 g/m*3 -1.1 C 0 km/h
1896 28-12-2010 19:11:02 -1.1 C 3.41 g/m*3 -1.1 C 0 km/h
1897 28-12-2010 19:23:01 -1.1 C 3.41 g/m*3 -1.1 C 0 km/h
1898 28-12-2010 19:35:02 -1.2 C 3.43 g/m*3 -1.2 C 0 km/h
1899 28-12-2010 19:47:01 -1.2 C 3.52 g/m*3 -1.2 C 0 km/h
1900 28-12-2010 19:59:01 -1.4 C 3.47 g/m*3 -1.4 C 0 km/h
Sensor: Nr:Datum:Temp:Abs-Feuchte:Windchill:Wind:
Aussen-T/F 1901 28-12-2010 20:11:02 -1.2 C 3.48 g/m*3 -1.2 C 0 km/h
1902 28-12-2010 20:23:02 -1.2 C 3.48 g/m*3 -1.2 C 0 km/h
1903 28-12-2010 20:35:01 -1.4 C 3.43 g/m*3 -1.4 C 0 km/h
1904 28-12-2010 20:47:02 -1.5 C 3.41 g/m*3 -1.5 C 0 km/h
1905 28-12-2010 20:59:02 -1.7 C 3.36 g/m*3 -1.7 C 0 km/h
1906 28-12-2010 21:11:01 -1.9 C 3.31 g/m*3 -1.9 C 0 km/h
1907 28-12-2010 21:23:02 -2 C 3.33 g/m*3 -2 C 0 km/h
1908 28-12-2010 21:35:01 -2.1 C 3.35 g/m*3 -2.1 C 0 km/h
1909 28-12-2010 21:47:02 -1.8 C 3.46 g/m*3 -1.8 C 0 km/h
1910 28-12-2010 21:59:02 -1.5 C 3.54 g/m*3 -1.5 C 0 km/h
1911 28-12-2010 22:11:02 -1.2 C 3.61 g/m*3 -1.2 C 0 km/h
1912 28-12-2010 22:24:03 -1.3 C 3.59 g/m*3 -1.3 C 0 km/h
1913 28-12-2010 22:36:03 -1.3 C 3.59 g/m*3 -1.3 C 0 km/h
1914 28-12-2010 22:48:03 -1.3 C 3.59 g/m*3 -1.3 C 0 km/h
1915 28-12-2010 23:00:03 -1.3 C 3.54 g/m*3 -1.3 C 0 km/h
1916 28-12-2010 23:12:03 -1.3 C 3.59 g/m*3 -1.3 C 0 km/h
1917 28-12-2010 23:24:03 -1.3 C 3.59 g/m*3 -1.3 C 0 km/h
1918 28-12-2010 23:36:03 -1.3 C 3.59 g/m*3 -1.3 C 0 km/h
1919 28-12-2010 23:48:03 -1.2 C 3.61 g/m*3 -1.2 C 0 km/h
1920 29-12-2010 00:00:03 -1.3 C 3.54 g/m*3 -1.3 C 0 km/h
1921 29-12-2010 00:12:03 -1.4 C 3.52 g/m*3 -1.4 C 0 km/h
1922 29-12-2010 00:24:03 -1.3 C 3.59 g/m*3 -1.3 C 0 km/h
1923 29-12-2010 00:36:03 -1.3 C 3.59 g/m*3 -1.3 C 0 km/h
1924 29-12-2010 00:48:03 -1.3 C 3.59 g/m*3 -1.3 C 0 km/h
1925 29-12-2010 01:00:03 -1.3 C 3.59 g/m*3 -1.3 C 0 km/h
Sensor: Nr:Datum:Temp:Abs-Feuchte:Windchill:Wind:
Aussen-T/F 1926 29-12-2010 01:12:03 -1.3 C 3.63 g/m*3 -1.3 C 0 km/h
1927 29-12-2010 01:24:03 -1.3 C 3.63 g/m*3 -1.3 C 0 km/h
1928 29-12-2010 01:36:03 -1.3 C 3.63 g/m*3 -1.3 C 0 km/h
1929 29-12-2010 01:48:03 -1.3 C 3.63 g/m*3 -1.3 C 0 km/h
1930 29-12-2010 02:00:03 -1.3 C 3.63 g/m*3 -1.3 C 0 km/h
1931 29-12-2010 02:12:04 -1.3 C 3.63 g/m*3 -1.3 C 0 km/h
1932 29-12-2010 02:24:04 -1.3 C 3.63 g/m*3 -1.3 C 0 km/h
1933 29-12-2010 02:36:04 -1.3 C 3.63 g/m*3 -1.3 C 0 km/h
1934 29-12-2010 02:48:04 -1.3 C 3.67 g/m*3 -1.3 C 0 km/h
1935 29-12-2010 03:00:04 -1.2 C 3.66 g/m*3 -1.2 C 0 km/h
1936 29-12-2010 03:12:04 -1.3 C 3.63 g/m*3 -1.3 C 0 km/h
1937 29-12-2010 03:24:04 -1.2 C 3.7 g/m*3 -1.2 C 0 km/h
1938 29-12-2010 03:36:04 -1.2 C 3.7 g/m*3 -1.2 C 0 km/h
1939 29-12-2010 03:48:04 -1.2 C 3.7 g/m*3 -1.2 C 0 km/h
1940 29-12-2010 04:00:04 -1.2 C 3.7 g/m*3 -1.2 C 0 km/h
1941 29-12-2010 04:12:04 -1.2 C 3.7 g/m*3 -1.2 C 0 km/h
1942 29-12-2010 04:24:04 -1.3 C 3.63 g/m*3 -1.3 C 0 km/h
1943 29-12-2010 04:36:04 -1.3 C 3.63 g/m*3 -1.3 C 0 km/h
1944 29-12-2010 04:48:04 -1.4 C 3.65 g/m*3 -1.4 C 0 km/h
1945 29-12-2010 05:00:04 -1.4 C 3.65 g/m*3 -1.4 C 0 km/h
1946 29-12-2010 05:12:04 -1.3 C 3.67 g/m*3 -1.3 C 0 km/h
1947 29-12-2010 05:24:04 -1.3 C 3.67 g/m*3 -1.3 C 0 km/h
1948 29-12-2010 05:36:04 -1.3 C 3.67 g/m*3 -1.3 C 0 km/h
1949 29-12-2010 05:48:04 -1.2 C 3.7 g/m*3 -1.2 C 0 km/h
1950 29-12-2010 06:00:04 -1.2 C 3.7 g/m*3 -1.2 C 0 km/h
Sensor: Nr:Datum:Temp:Abs-Feuchte:Windchill:Wind:
Aussen-T/F 1951 29-12-2010 06:12:05 -1.3 C 3.67 g/m*3 -1.3 C 0 km/h
1952 29-12-2010 06:24:05 -1.2 C 3.74 g/m*3 -1.2 C 0 km/h
1953 29-12-2010 06:36:05 -1.2 C 3.74 g/m*3 -1.2 C 0 km/h
1954 29-12-2010 06:48:05 -1.1 C 3.77 g/m*3 -1.1 C 0 km/h
1955 29-12-2010 07:00:05 -1.1 C 3.77 g/m*3 -1.1 C 0 km/h
1956 29-12-2010 07:12:05 -1.1 C 3.77 g/m*3 -1.1 C 0 km/h
1957 29-12-2010 07:24:05 -1.1 C 3.77 g/m*3 -1.1 C 0 km/h
1958 29-12-2010 07:36:05 -1.1 C 3.82 g/m*3 -1.1 C 0 km/h
1959 29-12-2010 07:48:01 -1.1 C 3.82 g/m*3 -1.1 C 0 km/h
1960 29-12-2010 08:00:01 -1.1 C 3.82 g/m*3 -1.1 C 0 km/h
1961 29-12-2010 08:12:02 -1.1 C 3.82 g/m*3 -1.1 C 0 km/h
1962 29-12-2010 08:24:01 -1.2 C 3.79 g/m*3 -1.2 C 0 km/h
1963 29-12-2010 08:36:01 -1.1 C 3.86 g/m*3 -1.1 C 0 km/h
1964 29-12-2010 08:48:01 -1 C 3.89 g/m*3 -1 C 0 km/h
1965 29-12-2010 09:00:01 -0.9 C 3.91 g/m*3 -0.9 C 0 km/h
1966 29-12-2010 09:12:02 -0.9 C 3.87 g/m*3 -0.9 C 0 km/h
1967 29-12-2010 09:24:02 -0.7 C 3.92 g/m*3 -0.7 C 0 km/h
1968 29-12-2010 09:36:01 -0.7 C 3.88 g/m*3 -0.7 C 0 km/h
1969 29-12-2010 09:48:01 -0.5 C 3.84 g/m*3 -0.5 C 0 km/h
1970 29-12-2010 10:00:01 -0.2 C 3.87 g/m*3 -0.2 C 0 km/h
1971 29-12-2010 10:12:02 0 C 3.78 g/m*3 0 C 0 km/h
1972 29-12-2010 10:24:01 0.2 C 3.73 g/m*3 0.2 C 0 km/h
1973 29-12-2010 10:36:01 0.3 C 3.71 g/m*3 0.3 C 0 km/h
1974 29-12-2010 10:48:01 0.4 C 3.64 g/m*3 0.4 C 0 km/h
1975 29-12-2010 11:00:01 0.4 C 3.64 g/m*3 0.4 C 0 km/h
Sensor: Nr:Datum:Temp:Abs-Feuchte:Windchill:Wind:
Aussen-T/F 1976 29-12-2010 11:12:02 0.6 C 3.64 g/m*3 0.6 C 0 km/h
1977 29-12-2010 11:24:01 0.6 C 3.59 g/m*3 0.6 C 0 km/h
1978 29-12-2010 11:36:01 0.7 C 3.61 g/m*3 0.7 C 0 km/h
1979 29-12-2010 11:48:01 0.6 C 3.53 g/m*3 0.6 C 0 km/h
1980 29-12-2010 12:00:01 0.9 C 3.66 g/m*3 0.9 C 0 km/h
1981 29-12-2010 12:12:01 0.9 C 3.61 g/m*3 0.9 C 0 km/h
1982 29-12-2010 12:24:02 0.7 C 3.56 g/m*3 0.7 C 0 km/h
1983 29-12-2010 12:36:01 1 C 3.53 g/m*3 1 C 0 km/h
1984 29-12-2010 12:48:03 0.9 C 3.56 g/m*3 0.9 C 0 km/h
1985 29-12-2010 13:00:03 1.3 C 3.66 g/m*3 1.3 C 0 km/h
1986 29-12-2010 13:12:02 1.2 C 3.58 g/m*3 1.2 C 0 km/h
1987 29-12-2010 13:24:02 1.4 C 3.63 g/m*3 1.4 C 0 km/h
1988 29-12-2010 13:36:02 1.5 C 3.6 g/m*3 1.5 C 0 km/h
1989 29-12-2010 13:48:02 1.3 C 3.6 g/m*3 1.3 C 0 km/h
1990 29-12-2010 14:00:02 1.6 C 3.68 g/m*3 1.6 C 0 km/h
1991 29-12-2010 14:12:01 1.7 C 3.65 g/m*3 1.7 C 0 km/h
1992 29-12-2010 14:24:02 1.7 C 3.65 g/m*3 1.7 C 0 km/h
1993 29-12-2010 14:36:02 2.1 C 3.69 g/m*3 2.1 C 0 km/h
1994 29-12-2010 14:48:01 1.7 C 3.65 g/m*3 1.7 C 0 km/h
1995 29-12-2010 15:00:01 1.3 C 3.66 g/m*3 1.3 C 0 km/h
1996 29-12-2010 15:12:02 1.3 C 3.71 g/m*3 1.3 C 0 km/h
1997 29-12-2010 15:24:01 1.2 C 3.74 g/m*3 1.2 C 0 km/h
1998 29-12-2010 15:36:01 1.1 C 3.76 g/m*3 1.1 C 0 km/h
1999 29-12-2010 15:48:01 1 C 3.79 g/m*3 1 C 0 km/h
2000 29-12-2010 16:00:01 0.8 C 3.84 g/m*3 0.8 C 0 km/h
Sensor: Nr:Datum:Temp:Abs-Feuchte:Windchill:Wind:
Aussen-T/F 2001 29-12-2010 16:12:02 0.7 C 3.81 g/m*3 0.7 C 0 km/h
2002 29-12-2010 16:24:01 0.6 C 3.89 g/m*3 0.6 C 0 km/h
2003 29-12-2010 16:36:02 0.5 C 3.86 g/m*3 0.5 C 0 km/h
2004 29-12-2010 16:48:01 0.5 C 3.86 g/m*3 0.5 C 0 km/h
2005 29-12-2010 17:00:01 0.4 C 3.84 g/m*3 0.4 C 0 km/h
2006 29-12-2010 17:12:02 0.3 C 3.81 g/m*3 0.3 C 0 km/h
2007 29-12-2010 17:24:01 0.3 C 3.86 g/m*3 0.3 C 0 km/h
2008 29-12-2010 17:36:02 0.2 C 3.88 g/m*3 0.2 C 0 km/h
2009 29-12-2010 17:48:01 0.2 C 3.88 g/m*3 0.2 C 0 km/h
2010 29-12-2010 18:00:01 0.2 C 3.88 g/m*3 0.2 C 0 km/h
2011 29-12-2010 18:12:02 0.2 C 3.88 g/m*3 0.2 C 0 km/h
2012 29-12-2010 18:24:02 0.1 C 3.85 g/m*3 0.1 C 0 km/h
2013 29-12-2010 18:36:01 0.1 C 3.9 g/m*3 0.1 C 0 km/h
2014 29-12-2010 18:48:02 0.1 C 3.95 g/m*3 0.1 C 0 km/h
2015 29-12-2010 19:00:02 0.1 C 3.95 g/m*3 0.1 C 0 km/h
2016 29-12-2010 19:12:01 0.1 C 3.95 g/m*3 0.1 C 0 km/h
2017 29-12-2010 19:24:02 0.1 C 4 g/m*3 0.1 C 0 km/h
2018 29-12-2010 19:36:01 0 C 3.97 g/m*3 0 C 0 km/h
2019 29-12-2010 19:48:02 0 C 3.97 g/m*3 0 C 0 km/h
2020 29-12-2010 20:00:02 0 C 3.97 g/m*3 0 C 0 km/h
2021 29-12-2010 20:12:01 0 C 3.97 g/m*3 0 C 0 km/h
2022 29-12-2010 20:24:01 0 C 3.97 g/m*3 0 C 0 km/h
2023 29-12-2010 20:36:01 -0.1 C 3.95 g/m*3 -0.1 C 0 km/h
2024 29-12-2010 20:48:02 -0.1 C 3.95 g/m*3 -0.1 C 0 km/h
2025 29-12-2010 21:00:02 -0.1 C 3.95 g/m*3 -0.1 C 0 km/h
Sensor: Nr:Datum:Temp:Abs-Feuchte:Windchill:Wind:
Aussen-T/F 2026 29-12-2010 21:12:02 -0.2 C 3.92 g/m*3 -0.2 C 0 km/h
2027 29-12-2010 21:24:02 -0.2 C 3.92 g/m*3 -0.2 C 0 km/h
2028 29-12-2010 21:36:02 -0.2 C 3.92 g/m*3 -0.2 C 0 km/h
2029 29-12-2010 21:48:01 -0.2 C 3.92 g/m*3 -0.2 C 0 km/h
2030 29-12-2010 22:00:01 -0.2 C 3.92 g/m*3 -0.2 C 0 km/h
2031 29-12-2010 22:12:02 -0.3 C 3.89 g/m*3 -0.3 C 0 km/h
2032 29-12-2010 22:24:01 -0.3 C 3.84 g/m*3 -0.3 C 0 km/h
2033 29-12-2010 22:36:01 -0.3 C 3.8 g/m*3 -0.3 C 0 km/h
2034 29-12-2010 22:48:01 -0.5 C 3.74 g/m*3 -0.5 C 0 km/h
2035 29-12-2010 23:00:01 -0.6 C 3.76 g/m*3 -0.6 C 0 km/h
2036 29-12-2010 23:12:02 -0.6 C 3.81 g/m*3 -0.6 C 0 km/h
2037 29-12-2010 23:24:02 -0.7 C 3.78 g/m*3 -0.7 C 0 km/h
2038 29-12-2010 23:36:01 -0.7 C 3.83 g/m*3 -0.7 C 0 km/h
2039 29-12-2010 23:49:59 -0.9 C 3.78 g/m*3 -0.9 C 0 km/h
2040 30-12-2010 00:12:59 -0.9 C 3.78 g/m*3 -0.9 C 0 km/h
2041 30-12-2010 00:24:59 -0.9 C 3.82 g/m*3 -0.9 C 0 km/h
2042 30-12-2010 00:36:59 -0.9 C 3.82 g/m*3 -0.9 C 0 km/h
2043 30-12-2010 00:48:59 -1 C 3.75 g/m*3 -1 C 0 km/h
2044 30-12-2010 01:00:59 -1.1 C 3.73 g/m*3 -1.1 C 0 km/h
2045 30-12-2010 01:12:59 -1.4 C 3.65 g/m*3 -1.4 C 0 km/h
2046 30-12-2010 01:24:59 -1.3 C 3.72 g/m*3 -1.3 C 0 km/h
2047 30-12-2010 01:36:59 -1.3 C 3.72 g/m*3 -1.3 C 0 km/h
2048 30-12-2010 01:49:00 -1.5 C 3.67 g/m*3 -1.5 C 0 km/h
2049 30-12-2010 02:01:00 -1.5 C 3.71 g/m*3 -1.5 C 0 km/h
2050 30-12-2010 02:13:00 -1.6 C 3.68 g/m*3 -1.6 C 0 km/h
Sensor: Nr:Datum:Temp:Abs-Feuchte:Windchill:Wind:
Aussen-T/F 2051 30-12-2010 02:25:00 -1.5 C 3.75 g/m*3 -1.5 C 0 km/h
2052 30-12-2010 02:37:00 -1.4 C 3.78 g/m*3 -1.4 C 0 km/h
2053 30-12-2010 02:49:00 -1.3 C 3.81 g/m*3 -1.3 C 0 km/h
2054 30-12-2010 03:01:00 -1.2 C 3.83 g/m*3 -1.2 C 0 km/h
2055 30-12-2010 03:13:00 -1.2 C 3.83 g/m*3 -1.2 C 0 km/h
2056 30-12-2010 03:25:00 -1.1 C 3.86 g/m*3 -1.1 C 0 km/h
2057 30-12-2010 03:37:00 -1.1 C 3.86 g/m*3 -1.1 C 0 km/h
2058 30-12-2010 03:49:00 -1.1 C 3.86 g/m*3 -1.1 C 0 km/h
2059 30-12-2010 04:01:00 -1.1 C 3.82 g/m*3 -1.1 C 0 km/h
2060 30-12-2010 04:13:00 -1.1 C 3.82 g/m*3 -1.1 C 0 km/h
2061 30-12-2010 04:25:00 -1.1 C 3.77 g/m*3 -1.1 C 0 km/h
2062 30-12-2010 04:37:00 -1.2 C 3.7 g/m*3 -1.2 C 0 km/h
2063 30-12-2010 04:49:00 -1.2 C 3.7 g/m*3 -1.2 C 0 km/h
2064 30-12-2010 05:01:00 -1.2 C 3.7 g/m*3 -1.2 C 0 km/h
2065 30-12-2010 05:13:00 -1.2 C 3.66 g/m*3 -1.2 C 0 km/h
2066 30-12-2010 05:25:00 -1.2 C 3.61 g/m*3 -1.2 C 0 km/h
2067 30-12-2010 05:37:00 -1.2 C 3.61 g/m*3 -1.2 C 0 km/h
2068 30-12-2010 05:49:01 -9.3 C 2.01 g/m*3 -9.3 C 0 km/h
2069 30-12-2010 06:01:01 -1.2 C 3.57 g/m*3 -1.2 C 0 km/h
2070 30-12-2010 06:13:01 -1.2 C 3.57 g/m*3 -1.2 C 0 km/h
2071 30-12-2010 06:25:01 -1.2 C 3.52 g/m*3 -1.2 C 0 km/h
2072 30-12-2010 06:37:01 -1.3 C 3.5 g/m*3 -1.3 C 0 km/h
2073 30-12-2010 06:49:01 -1.3 C 3.5 g/m*3 -1.3 C 0 km/h
2074 30-12-2010 07:01:01 -1.3 C 3.45 g/m*3 -1.3 C 0 km/h
2075 30-12-2010 07:13:01 -1.3 C 3.45 g/m*3 -1.3 C 0 km/h
Sensor: Nr:Datum:Temp:Abs-Feuchte:Windchill:Wind:
Aussen-T/F 2076 30-12-2010 07:25:01 -1.3 C 3.45 g/m*3 -1.3 C 0 km/h
2077 30-12-2010 07:37:01 -1.4 C 3.43 g/m*3 -1.4 C 0 km/h
2078 30-12-2010 07:49:01 -1.4 C 3.43 g/m*3 -1.4 C 0 km/h
2079 30-12-2010 08:01:01 -1.4 C 3.43 g/m*3 -1.4 C 0 km/h
2080 30-12-2010 08:13:01 -1.4 C 3.43 g/m*3 -1.4 C 0 km/h
2081 30-12-2010 08:25:01 -1.4 C 3.43 g/m*3 -1.4 C 0 km/h
2082 30-12-2010 08:37:01 -1.4 C 3.47 g/m*3 -1.4 C 0 km/h
2083 30-12-2010 08:49:01 -1.4 C 3.47 g/m*3 -1.4 C 0 km/h
2084 30-12-2010 09:01:01 -1.3 C 3.45 g/m*3 -1.3 C 0 km/h
2085 30-12-2010 09:13:01 -1.2 C 3.48 g/m*3 -1.2 C 0 km/h
2086 30-12-2010 09:25:01 -1.1 C 3.5 g/m*3 -1.1 C 0 km/h
2087 30-12-2010 09:37:01 -1 C 3.44 g/m*3 -1 C 0 km/h
2088 30-12-2010 09:49:02 -0.9 C 3.46 g/m*3 -0.9 C 0 km/h
2089 30-12-2010 10:01:02 -0.7 C 3.46 g/m*3 -0.7 C 0 km/h
2090 30-12-2010 10:01:03 -0.8 C 3.39 g/m*3 -0.8 C 0 km/h
2091 30-12-2010 10:13:03 -0.6 C 3.44 g/m*3 -0.6 C 0 km/h
2092 30-12-2010 10:25:02 -0.3 C 3.51 g/m*3 -0.3 C 0 km/h
2093 30-12-2010 10:37:03 -0.3 C 3.46 g/m*3 -0.3 C 0 km/h
2094 30-12-2010 10:49:01 0 C 3.49 g/m*3 0 C 0 km/h
2095 30-12-2010 11:01:02 0.1 C 3.51 g/m*3 0.1 C 0 km/h
2096 30-12-2010 11:13:02 -0.1 C 3.51 g/m*3 -0.1 C 0 km/h
2097 30-12-2010 11:25:02 0 C 3.54 g/m*3 0 C 0 km/h
2098 30-12-2010 11:37:02 0.1 C 3.51 g/m*3 0.1 C 0 km/h
2099 30-12-2010 11:49:02 0.3 C 3.56 g/m*3 0.3 C 0 km/h
2100 30-12-2010 12:01:02 0.4 C 3.59 g/m*3 0.4 C 0 km/h
Sensor: Nr:Datum:Temp:Abs-Feuchte:Windchill:Wind:
Aussen-T/F 2101 30-12-2010 12:13:02 0.3 C 3.56 g/m*3 0.3 C 0 km/h
2102 30-12-2010 12:25:02 0.5 C 3.61 g/m*3 0.5 C 0 km/h
2103 30-12-2010 12:37:01 0.7 C 3.56 g/m*3 0.7 C 0 km/h
2104 30-12-2010 12:49:02 1.1 C 3.61 g/m*3 1.1 C 0 km/h
2105 30-12-2010 13:01:01 0.9 C 3.51 g/m*3 0.9 C 0 km/h
2106 30-12-2010 13:13:01 1 C 3.58 g/m*3 1 C 0 km/h
2107 30-12-2010 13:25:02 1.1 C 3.61 g/m*3 1.1 C 0 km/h
2108 30-12-2010 13:37:02 1.5 C 3.65 g/m*3 1.5 C 0 km/h
2109 30-12-2010 13:49:02 1.5 C 3.6 g/m*3 1.5 C 0 km/h
2110 30-12-2010 14:01:02 1.5 C 3.6 g/m*3 1.5 C 0 km/h
2111 30-12-2010 14:13:02 1.4 C 3.57 g/m*3 1.4 C 0 km/h
2112 30-12-2010 14:25:02 1 C 3.53 g/m*3 1 C 0 km/h
2113 30-12-2010 14:37:02 1.3 C 3.66 g/m*3 1.3 C 0 km/h
2114 30-12-2010 14:49:01 1.4 C 3.68 g/m*3 1.4 C 0 km/h
2115 30-12-2010 15:01:02 1.4 C 3.68 g/m*3 1.4 C 0 km/h
2116 30-12-2010 15:13:02 1.1 C 3.61 g/m*3 1.1 C 0 km/h
2117 30-12-2010 15:25:01 0.9 C 3.66 g/m*3 0.9 C 0 km/h
2118 30-12-2010 15:37:02 0.8 C 3.69 g/m*3 0.8 C 0 km/h
2119 30-12-2010 15:49:01 0.7 C 3.71 g/m*3 0.7 C 0 km/h
2120 30-12-2010 16:01:02 0.6 C 3.74 g/m*3 0.6 C 0 km/h
2121 30-12-2010 16:13:03 0.3 C 3.71 g/m*3 0.3 C 0 km/h
2122 30-12-2010 16:25:01 0.3 C 3.76 g/m*3 0.3 C 0 km/h
2123 30-12-2010 16:37:02 0.2 C 3.68 g/m*3 0.2 C 0 km/h
2124 30-12-2010 16:49:01 0.1 C 3.76 g/m*3 0.1 C 0 km/h
2125 30-12-2010 17:01:02 0.1 C 3.76 g/m*3 0.1 C 0 km/h
Sensor: Nr:Datum:Temp:Abs-Feuchte:Windchill:Wind:
Aussen-T/F 2126 30-12-2010 17:13:02 0.1 C 3.76 g/m*3 0.1 C 0 km/h
2127 30-12-2010 17:25:02 0.1 C 3.76 g/m*3 0.1 C 0 km/h
2128 30-12-2010 17:37:01 0.1 C 3.76 g/m*3 0.1 C 0 km/h
2129 30-12-2010 17:49:02 -0.2 C 3.68 g/m*3 -0.2 C 0 km/h
2130 30-12-2010 18:01:01 -0.1 C 3.71 g/m*3 -0.1 C 0 km/h
2131 30-12-2010 18:13:01 -0.2 C 3.68 g/m*3 -0.2 C 0 km/h
2132 30-12-2010 18:25:02 -0.4 C 3.63 g/m*3 -0.4 C 0 km/h
2133 30-12-2010 18:37:01 -0.4 C 3.68 g/m*3 -0.4 C 0 km/h
2134 30-12-2010 18:49:03 -0.4 C 3.72 g/m*3 -0.4 C 0 km/h
2135 30-12-2010 19:01:02 -0.4 C 3.72 g/m*3 -0.4 C 0 km/h
2136 30-12-2010 19:13:02 -0.4 C 3.77 g/m*3 -0.4 C 0 km/h
2137 30-12-2010 19:25:02 -0.5 C 3.74 g/m*3 -0.5 C 0 km/h
2138 30-12-2010 19:37:03 -0.5 C 3.74 g/m*3 -0.5 C 0 km/h
2139 30-12-2010 19:49:02 -0.4 C 3.77 g/m*3 -0.4 C 0 km/h
2140 30-12-2010 20:01:01 -0.4 C 3.72 g/m*3 -0.4 C 0 km/h
2141 30-12-2010 20:13:01 -0.5 C 3.7 g/m*3 -0.5 C 0 km/h
2142 30-12-2010 20:25:02 -0.5 C 3.7 g/m*3 -0.5 C 0 km/h
2143 30-12-2010 20:37:02 -0.5 C 3.74 g/m*3 -0.5 C 0 km/h
2144 30-12-2010 20:49:01 -0.5 C 3.7 g/m*3 -0.5 C 0 km/h
2145 30-12-2010 21:01:02 -0.5 C 3.65 g/m*3 -0.5 C 0 km/h
2146 30-12-2010 21:13:02 -0.6 C 3.63 g/m*3 -0.6 C 0 km/h
2147 30-12-2010 21:25:01 -0.6 C 3.63 g/m*3 -0.6 C 0 km/h
2148 30-12-2010 21:37:02 -0.7 C 3.6 g/m*3 -0.7 C 0 km/h
2149 30-12-2010 21:49:02 -0.6 C 3.63 g/m*3 -0.6 C 0 km/h
2150 30-12-2010 22:01:02 -0.7 C 3.65 g/m*3 -0.7 C 0 km/h
Sensor: Nr:Datum:Temp:Abs-Feuchte:Windchill:Wind:
Aussen-T/F 2151 30-12-2010 22:13:03 -0.7 C 3.6 g/m*3 -0.7 C 0 km/h
2152 30-12-2010 22:25:01 -0.8 C 3.58 g/m*3 -0.8 C 0 km/h
2153 30-12-2010 22:37:02 -0.8 C 3.58 g/m*3 -0.8 C 0 km/h
2154 30-12-2010 22:49:01 -0.9 C 3.55 g/m*3 -0.9 C 0 km/h
2155 30-12-2010 23:01:02 -0.9 C 3.55 g/m*3 -0.9 C 0 km/h
2156 30-12-2010 23:13:02 -0.9 C 3.55 g/m*3 -0.9 C 0 km/h
2157 30-12-2010 23:25:02 -0.9 C 3.51 g/m*3 -0.9 C 0 km/h
2158 30-12-2010 23:37:01 -1 C 3.48 g/m*3 -1 C 0 km/h
2159 30-12-2010 23:49:02 -1.1 C 3.46 g/m*3 -1.1 C 0 km/h
2160 31-12-2010 00:01:01 -1.1 C 3.46 g/m*3 -1.1 C 0 km/h
2161 31-12-2010 00:13:01 -1.1 C 3.5 g/m*3 -1.1 C 0 km/h
2162 31-12-2010 00:25:02 -1.1 C 3.5 g/m*3 -1.1 C 0 km/h
2163 31-12-2010 00:37:01 -1.1 C 3.5 g/m*3 -1.1 C 0 km/h
2164 31-12-2010 00:49:03 -1.1 C 3.5 g/m*3 -1.1 C 0 km/h
2165 31-12-2010 01:01:02 -1.1 C 3.55 g/m*3 -1.1 C 0 km/h
2166 31-12-2010 01:13:02 -1.1 C 3.55 g/m*3 -1.1 C 0 km/h
2167 31-12-2010 01:25:02 -1.1 C 3.55 g/m*3 -1.1 C 0 km/h
2168 31-12-2010 01:37:03 -1.2 C 3.52 g/m*3 -1.2 C 0 km/h
2169 31-12-2010 01:49:02 -1.2 C 3.52 g/m*3 -1.2 C 0 km/h
2170 31-12-2010 02:01:02 -1.3 C 3.5 g/m*3 -1.3 C 0 km/h
2171 31-12-2010 02:13:02 -1.3 C 3.5 g/m*3 -1.3 C 0 km/h
2172 31-12-2010 02:25:02 -1.2 C 3.52 g/m*3 -1.2 C 0 km/h
2173 31-12-2010 02:37:02 -1.4 C 3.47 g/m*3 -1.4 C 0 km/h
2174 31-12-2010 02:50:04 -1.5 C 3.45 g/m*3 -1.5 C 0 km/h
2175 31-12-2010 03:02:04 -1.6 C 3.42 g/m*3 -1.6 C 0 km/h
Sensor: Nr:Datum:Temp:Abs-Feuchte:Windchill:Wind:
Aussen-T/F 2176 31-12-2010 03:14:05 -1.6 C 3.42 g/m*3 -1.6 C 0 km/h
2177 31-12-2010 03:26:05 -1.8 C 3.38 g/m*3 -1.8 C 0 km/h
2178 31-12-2010 03:38:02 -1.9 C 3.4 g/m*3 -1.9 C 0 km/h
2179 31-12-2010 03:50:03 -1.9 C 3.4 g/m*3 -1.9 C 0 km/h
2180 31-12-2010 04:02:01 -1.9 C 3.4 g/m*3 -1.9 C 0 km/h
2181 31-12-2010 04:14:01 -2 C 3.37 g/m*3 -2 C 0 km/h
2182 31-12-2010 04:26:02 -2 C 3.37 g/m*3 -2 C 0 km/h
2183 31-12-2010 04:38:02 -2 C 3.37 g/m*3 -2 C 0 km/h
2184 31-12-2010 04:50:01 -2 C 3.37 g/m*3 -2 C 0 km/h
2185 31-12-2010 05:02:02 -2.1 C 3.35 g/m*3 -2.1 C 0 km/h
2186 31-12-2010 05:14:02 -2.1 C 3.35 g/m*3 -2.1 C 0 km/h
2187 31-12-2010 05:26:01 -2.1 C 3.35 g/m*3 -2.1 C 0 km/h
2188 31-12-2010 05:38:02 -2.1 C 3.35 g/m*3 -2.1 C 0 km/h
2189 31-12-2010 05:50:02 -2.2 C 3.28 g/m*3 -2.2 C 0 km/h
2190 31-12-2010 06:02:02 -2.3 C 3.26 g/m*3 -2.3 C 0 km/h
2191 31-12-2010 06:14:02 -2.3 C 3.26 g/m*3 -2.3 C 0 km/h
2192 31-12-2010 06:26:01 -2.3 C 3.3 g/m*3 -2.3 C 0 km/h
2193 31-12-2010 06:38:02 -2.2 C 3.33 g/m*3 -2.2 C 0 km/h
2194 31-12-2010 06:50:02 -2.2 C 3.33 g/m*3 -2.2 C 0 km/h
2195 31-12-2010 07:02:02 -2.2 C 3.33 g/m*3 -2.2 C 0 km/h
2196 31-12-2010 07:14:02 -2.1 C 3.35 g/m*3 -2.1 C 0 km/h
2197 31-12-2010 07:26:01 -2 C 3.41 g/m*3 -2 C 0 km/h
2198 31-12-2010 07:38:02 -2.1 C 3.39 g/m*3 -2.1 C 0 km/h
2199 31-12-2010 07:50:01 -2.2 C 3.33 g/m*3 -2.2 C 0 km/h
2200 31-12-2010 08:02:02 -2.2 C 3.37 g/m*3 -2.2 C 0 km/h
Sensor: Nr:Datum:Temp:Abs-Feuchte:Windchill:Wind:
Aussen-T/F 2201 31-12-2010 08:14:02 -2.1 C 3.39 g/m*3 -2.1 C 0 km/h
2202 31-12-2010 08:26:02 -2.1 C 3.39 g/m*3 -2.1 C 0 km/h
2203 31-12-2010 08:38:01 -2.1 C 3.39 g/m*3 -2.1 C 0 km/h
2204 31-12-2010 08:50:02 -2.1 C 3.39 g/m*3 -2.1 C 0 km/h
2205 31-12-2010 09:02:01 -2 C 3.41 g/m*3 -2 C 0 km/h
2206 31-12-2010 09:14:01 -2.1 C 3.39 g/m*3 -2.1 C 0 km/h
2207 31-12-2010 09:26:01 -2.2 C 3.37 g/m*3 -2.2 C 0 km/h
2208 31-12-2010 09:38:01 -2.3 C 3.3 g/m*3 -2.3 C 0 km/h
2209 31-12-2010 09:50:02 -2.3 C 3.3 g/m*3 -2.3 C 0 km/h
2210 31-12-2010 10:02:01 -2.1 C 3.35 g/m*3 -2.1 C 0 km/h
2211 31-12-2010 10:14:01 -2.1 C 3.35 g/m*3 -2.1 C 0 km/h
2212 31-12-2010 10:26:02 -1.9 C 3.35 g/m*3 -1.9 C 0 km/h
2213 31-12-2010 10:38:02 -1.7 C 3.36 g/m*3 -1.7 C 0 km/h
2214 31-12-2010 10:50:02 -1.7 C 3.36 g/m*3 -1.7 C 0 km/h
2215 31-12-2010 11:02:02 -1.5 C 3.36 g/m*3 -1.5 C 0 km/h
2216 31-12-2010 11:14:02 -1.5 C 3.32 g/m*3 -1.5 C 0 km/h
2217 31-12-2010 11:26:02 -1.2 C 3.39 g/m*3 -1.2 C 0 km/h
2218 31-12-2010 11:38:02 -1 C 3.44 g/m*3 -1 C 0 km/h
2219 31-12-2010 11:50:02 -0.9 C 3.41 g/m*3 -0.9 C 0 km/h
2220 31-12-2010 12:02:02 -1.2 C 3.34 g/m*3 -1.2 C 0 km/h
2221 31-12-2010 12:14:02 -1.1 C 3.41 g/m*3 -1.1 C 0 km/h
2222 31-12-2010 12:26:02 -1.1 C 3.37 g/m*3 -1.1 C 0 km/h
2223 31-12-2010 12:38:02 -0.7 C 3.42 g/m*3 -0.7 C 0 km/h
2224 31-12-2010 12:50:01 -0.5 C 3.51 g/m*3 -0.5 C 0 km/h
2225 31-12-2010 13:02:01 -0.6 C 3.44 g/m*3 -0.6 C 0 km/h
Sensor: Nr:Datum:Temp:Abs-Feuchte:Windchill:Wind:
Aussen-T/F 2226 31-12-2010 13:14:01 -0.6 C 3.39 g/m*3 -0.6 C 0 km/h
2227 31-12-2010 13:26:01 -0.2 C 3.49 g/m*3 -0.2 C 0 km/h
2228 31-12-2010 13:38:01 0.1 C 3.51 g/m*3 0.1 C 0 km/h
2229 31-12-2010 13:50:01 0.4 C 3.49 g/m*3 0.4 C 0 km/h
2230 31-12-2010 14:02:01 0.2 C 3.29 g/m*3 0.2 C 0 km/h
2231 31-12-2010 14:14:01 0.7 C 3.46 g/m*3 0.7 C 0 km/h
2232 31-12-2010 14:26:02 0.4 C 3.39 g/m*3 0.4 C 0 km/h
2233 31-12-2010 14:38:01 0.1 C 3.37 g/m*3 0.1 C 0 km/h
2234 31-12-2010 14:50:02 -0.2 C 3.35 g/m*3 -0.2 C 0 km/h
2235 31-12-2010 15:02:02 -0.3 C 3.37 g/m*3 -0.3 C 0 km/h
2236 31-12-2010 15:14:02 -0.4 C 3.39 g/m*3 -0.4 C 0 km/h
2237 31-12-2010 15:26:02 -0.4 C 3.44 g/m*3 -0.4 C 0 km/h
2238 31-12-2010 15:38:01 -0.3 C 3.46 g/m*3 -0.3 C 0 km/h
2239 31-12-2010 15:50:02 -0.3 C 3.46 g/m*3 -0.3 C 0 km/h
2240 31-12-2010 16:02:01 -0.5 C 3.46 g/m*3 -0.5 C 0 km/h
2241 31-12-2010 16:14:01 -0.5 C 3.51 g/m*3 -0.5 C 0 km/h
2242 31-12-2010 16:26:02 -0.6 C 3.53 g/m*3 -0.6 C 0 km/h
2243 31-12-2010 16:38:02 -0.6 C 3.53 g/m*3 -0.6 C 0 km/h
2244 31-12-2010 16:50:02 -0.6 C 3.58 g/m*3 -0.6 C 0 km/h
2245 31-12-2010 17:02:02 -0.6 C 3.58 g/m*3 -0.6 C 0 km/h
2246 31-12-2010 17:14:02 -0.6 C 3.58 g/m*3 -0.6 C 0 km/h
2247 31-12-2010 17:26:02 -0.6 C 3.63 g/m*3 -0.6 C 0 km/h
2248 31-12-2010 17:38:03 -0.6 C 3.67 g/m*3 -0.6 C 0 km/h
2249 31-12-2010 17:50:02 -0.6 C 3.67 g/m*3 -0.6 C 0 km/h
2250 31-12-2010 18:02:02 -0.6 C 3.67 g/m*3 -0.6 C 0 km/h
Sensor: Nr:Datum:Temp:Abs-Feuchte:Windchill:Wind:
Aussen-T/F 2251 31-12-2010 18:14:02 -0.6 C 3.72 g/m*3 -0.6 C 0 km/h
2252 31-12-2010 18:26:02 -0.5 C 3.79 g/m*3 -0.5 C 0 km/h
2253 31-12-2010 18:38:02 -0.5 C 3.79 g/m*3 -0.5 C 0 km/h
2254 31-12-2010 18:50:02 -0.5 C 3.84 g/m*3 -0.5 C 0 km/h
2255 31-12-2010 19:02:02 -0.5 C 3.84 g/m*3 -0.5 C 0 km/h
2256 31-12-2010 19:14:02 -0.6 C 3.81 g/m*3 -0.6 C 0 km/h
2257 31-12-2010 19:26:02 -0.6 C 3.81 g/m*3 -0.6 C 0 km/h
2258 31-12-2010 19:38:02 -0.6 C 3.81 g/m*3 -0.6 C 0 km/h
2259 31-12-2010 19:50:02 -0.7 C 3.83 g/m*3 -0.7 C 0 km/h
2260 31-12-2010 20:02:02 -0.7 C 3.88 g/m*3 -0.7 C 0 km/h
2261 31-12-2010 20:14:03 -0.7 C 3.92 g/m*3 -0.7 C 0 km/h
2262 31-12-2010 20:26:02 -0.7 C 3.92 g/m*3 -0.7 C 0 km/h
2263 31-12-2010 20:38:02 -0.6 C 3.95 g/m*3 -0.6 C 0 km/h
2264 31-12-2010 20:50:01 -0.5 C 4.03 g/m*3 -0.5 C 0 km/h
2265 31-12-2010 21:02:01 -0.6 C 4 g/m*3 -0.6 C 0 km/h
2266 31-12-2010 21:14:01 -0.6 C 4 g/m*3 -0.6 C 0 km/h
2267 31-12-2010 21:26:02 -0.6 C 4 g/m*3 -0.6 C 0 km/h
2268 31-12-2010 21:38:01 -0.6 C 4.04 g/m*3 -0.6 C 0 km/h
2269 31-12-2010 21:50:02 -0.5 C 4.07 g/m*3 -0.5 C 0 km/h
2270 31-12-2010 22:02:02 -0.4 C 4.1 g/m*3 -0.4 C 0 km/h
2271 31-12-2010 22:14:02 -0.4 C 4.1 g/m*3 -0.4 C 0 km/h
2272 31-12-2010 22:26:01 -0.4 C 4.1 g/m*3 -0.4 C 0 km/h
2273 31-12-2010 22:38:01 -0.4 C 4.1 g/m*3 -0.4 C 0 km/h
2274 31-12-2010 22:50:01 -0.3 C 4.13 g/m*3 -0.3 C 0 km/h
2275 31-12-2010 23:02:02 -0.3 C 4.13 g/m*3 -0.3 C 0 km/h
Sensor: Nr:Datum:Temp:Abs-Feuchte:Windchill:Wind:
Aussen-T/F 2276 31-12-2010 23:14:02 -0.3 C 4.13 g/m*3 -0.3 C 0 km/h
2277 31-12-2010 23:26:01 -0.3 C 4.13 g/m*3 -0.3 C 0 km/h
2278 31-12-2010 23:38:02 -0.3 C 4.13 g/m*3 -0.3 C 0 km/h
2279 31-12-2010 23:38:02 -0.4 C 4.1 g/m*3 -0.4 C 0 km/h
2280 31-12-2010 23:38:02 -0.3 C 4.13 g/m*3 -0.3 C 0 km/h
2281 31-12-2010 23:38:02 -0.4 C 4.1 g/m*3 -0.4 C 0 km/h
2282 31-12-2010 23:50:02 -0.3 C 4.13 g/m*3 -0.3 C 0 km/h
2283 01-01-2011 00:02:02 -0.3 C 4.13 g/m*3 -0.3 C 0 km/h
2284 01-01-2011 00:14:02 -0.3 C 4.13 g/m*3 -0.3 C 0 km/h
2285 01-01-2011 00:26:02 -0.3 C 4.13 g/m*3 -0.3 C 0 km/h
2286 01-01-2011 00:38:02 -0.3 C 4.13 g/m*3 -0.3 C 0 km/h
2287 01-01-2011 00:50:02 -0.4 C 4.1 g/m*3 -0.4 C 0 km/h
2288 01-01-2011 01:02:02 -0.4 C 4.15 g/m*3 -0.4 C 0 km/h
2289 01-01-2011 01:14:02 -0.3 C 4.18 g/m*3 -0.3 C 0 km/h
2290 01-01-2011 01:26:02 -0.3 C 4.18 g/m*3 -0.3 C 0 km/h
2291 01-01-2011 01:38:02 -0.2 C 4.21 g/m*3 -0.2 C 0 km/h
2292 01-01-2011 01:50:02 -0.2 C 4.21 g/m*3 -0.2 C 0 km/h
2293 01-01-2011 02:02:02 -0.2 C 4.21 g/m*3 -0.2 C 0 km/h
2294 01-01-2011 02:14:02 -0.2 C 4.21 g/m*3 -0.2 C 0 km/h
2295 01-01-2011 02:26:02 -0.1 C 4.23 g/m*3 -0.1 C 0 km/h
2296 01-01-2011 02:38:02 -0.1 C 4.23 g/m*3 -0.1 C 0 km/h
2297 01-01-2011 02:50:03 -0.1 C 4.23 g/m*3 -0.1 C 0 km/h
2298 01-01-2011 03:02:03 -0.2 C 4.21 g/m*3 -0.2 C 0 km/h
2299 01-01-2011 03:12:01 -0.1 C 4.23 g/m*3 -0.1 C 0 km/h
2300 01-01-2011 03:24:01 -0.1 C 4.23 g/m*3 -0.1 C 0 km/h
Sensor: Nr:Datum:Temp:Abs-Feuchte:Windchill:Wind:
Aussen-T/F 2301 01-01-2011 03:34:02 -0.1 C 4.23 g/m*3 -0.1 C 0 km/h
2302 01-01-2011 03:46:02 -0.2 C 4.21 g/m*3 -0.2 C 0 km/h
2303 01-01-2011 03:58:02 -0.1 C 4.23 g/m*3 -0.1 C 0 km/h
2304 01-01-2011 04:08:01 -0.2 C 4.21 g/m*3 -0.2 C 0 km/h
2305 01-01-2011 04:19:01 -0.2 C 4.21 g/m*3 -0.2 C 0 km/h
2306 01-01-2011 04:51:59 -0.2 C 4.21 g/m*3 -0.2 C 0 km/h
2307 01-01-2011 05:03:59 -0.2 C 4.25 g/m*3 -0.2 C 0 km/h
2308 01-01-2011 05:15:25 -0.2 C 4.25 g/m*3 -0.2 C 0 km/h
2309 01-01-2011 05:27:41 0 C 4.31 g/m*3 0 C 0 km/h
2310 01-01-2011 05:39:09 0.1 C 4.34 g/m*3 0.1 C 0 km/h
2311 01-01-2011 05:51:09 0.2 C 4.32 g/m*3 0.2 C 0 km/h
2312 01-01-2011 06:03:26 0.3 C 4.35 g/m*3 0.3 C 0 km/h
2313 01-01-2011 06:15:52 0.3 C 4.3 g/m*3 0.3 C 0 km/h
2314 01-01-2011 06:27:48 0.4 C 4.28 g/m*3 0.4 C 0 km/h
2315 01-01-2011 06:39:48 0.4 C 4.28 g/m*3 0.4 C 0 km/h
2316 01-01-2011 06:51:33 0.4 C 4.23 g/m*3 0.4 C 0 km/h
2317 01-01-2011 07:03:29 0.4 C 4.23 g/m*3 0.4 C 0 km/h
2318 01-01-2011 07:15:15 0.5 C 4.26 g/m*3 0.5 C 0 km/h
2319 01-01-2011 07:27:11 0.5 C 4.26 g/m*3 0.5 C 0 km/h
2320 01-01-2011 07:39:56 0.5 C 4.26 g/m*3 0.5 C 0 km/h
2321 01-01-2011 07:51:52 0.6 C 4.24 g/m*3 0.6 C 0 km/h
2322 01-01-2011 08:03:38 0.6 C 4.24 g/m*3 0.6 C 0 km/h
2323 01-01-2011 08:15:38 0.7 C 4.27 g/m*3 0.7 C 0 km/h
2324 01-01-2011 08:27:34 0.8 C 4.3 g/m*3 0.8 C 0 km/h
2325 01-01-2011 08:39:19 1 C 4.36 g/m*3 1 C 0 km/h
Sensor: Nr:Datum:Temp:Abs-Feuchte:Windchill:Wind:
Aussen-T/F 2326 01-01-2011 08:51:15 1 C 4.31 g/m*3 1 C 0 km/h
2327 01-01-2011 09:03:01 0.8 C 4.3 g/m*3 0.8 C 0 km/h
2328 01-01-2011 09:15:57 0.9 C 4.38 g/m*3 0.9 C 0 km/h
2329 01-01-2011 09:27:43 1.2 C 4.42 g/m*3 1.2 C 0 km/h
2330 01-01-2011 09:39:43 1.3 C 4.4 g/m*3 1.3 C 0 km/h
2331 01-01-2011 09:51:38 1.2 C 4.42 g/m*3 1.2 C 0 km/h
2332 01-01-2011 10:03:25 1.2 C 4.47 g/m*3 1.2 C 0 km/h
2333 01-01-2011 10:15:19 1.3 C 4.56 g/m*3 1.3 C 0 km/h
2334 01-01-2011 10:27:06 1.2 C 4.58 g/m*3 1.2 C 0 km/h
2335 01-01-2011 10:39:01 1.5 C 4.67 g/m*3 1.5 C 0 km/h
2336 01-01-2011 10:51:48 1.6 C 4.65 g/m*3 1.6 C 0 km/h
2337 01-01-2011 11:03:48 1.8 C 4.71 g/m*3 1.8 C 0 km/h
2338 01-01-2011 11:15:42 1.8 C 4.66 g/m*3 1.8 C 0 km/h
2339 01-01-2011 11:27:29 1.8 C 4.66 g/m*3 1.8 C 0 km/h
2340 01-01-2011 11:39:24 2 C 4.67 g/m*3 2 C 0 km/h
2341 01-01-2011 11:51:01 2.3 C 4.71 g/m*3 2.3 C 0 km/h
2342 01-01-2011 12:03:02 2.4 C 4.68 g/m*3 2.4 C 0 km/h
2343 01-01-2011 12:15:01 2.5 C 4.66 g/m*3 2.5 C 0 km/h
2344 01-01-2011 12:27:01 2.6 C 4.63 g/m*3 2.6 C 0 km/h
2345 01-01-2011 12:39:02 2.4 C 4.57 g/m*3 2.4 C 0 km/h
2346 01-01-2011 12:51:01 2.3 C 4.59 g/m*3 2.3 C 0 km/h
2347 01-01-2011 13:03:02 2.6 C 4.69 g/m*3 2.6 C 0 km/h
2348 01-01-2011 13:15:01 3 C 4.7 g/m*3 3 C 0 km/h
2349 01-01-2011 13:27:01 3 C 4.58 g/m*3 3 C 0 km/h
2350 01-01-2011 13:39:02 2.9 C 4.61 g/m*3 2.9 C 0 km/h
Sensor: Nr:Datum:Temp:Abs-Feuchte:Windchill:Wind:
Aussen-T/F 2351 01-01-2011 13:51:01 3.1 C 4.55 g/m*3 3.1 C 0 km/h
2352 01-01-2011 14:03:02 2.8 C 4.58 g/m*3 2.8 C 0 km/h
2353 01-01-2011 14:15:02 2.7 C 4.6 g/m*3 2.7 C 0 km/h
2354 01-01-2011 14:27:02 2.3 C 4.59 g/m*3 2.3 C 0 km/h
2355 01-01-2011 14:39:02 2.5 C 4.71 g/m*3 2.5 C 0 km/h
2356 01-01-2011 14:51:01 2.4 C 4.68 g/m*3 2.4 C 0 km/h
2357 01-01-2011 15:03:01 2.4 C 4.68 g/m*3 2.4 C 0 km/h
2358 01-01-2011 15:15:02 2.1 C 4.59 g/m*3 2.1 C 0 km/h
2359 01-01-2011 15:27:02 2 C 4.61 g/m*3 2 C 0 km/h
2360 01-01-2011 15:39:01 1.8 C 4.6 g/m*3 1.8 C 0 km/h
2361 01-01-2011 15:51:01 1.8 C 4.71 g/m*3 1.8 C 0 km/h
2362 01-01-2011 16:03:01 1.7 C 4.68 g/m*3 1.7 C 0 km/h
2363 01-01-2011 16:15:02 1.6 C 4.7 g/m*3 1.6 C 0 km/h
2364 01-01-2011 16:27:02 1.7 C 4.79 g/m*3 1.7 C 0 km/h
2365 01-01-2011 16:39:01 1.4 C 4.69 g/m*3 1.4 C 0 km/h
2366 01-01-2011 16:51:01 1.5 C 4.78 g/m*3 1.5 C 0 km/h
2367 01-01-2011 17:03:01 1.5 C 4.78 g/m*3 1.5 C 0 km/h
2368 01-01-2011 17:15:02 1.4 C 4.75 g/m*3 1.4 C 0 km/h
2369 01-01-2011 17:27:02 1.3 C 4.72 g/m*3 1.3 C 0 km/h
2370 01-01-2011 17:39:01 1.3 C 4.77 g/m*3 1.3 C 0 km/h
2371 01-01-2011 17:51:03 1.2 C 4.74 g/m*3 1.2 C 0 km/h
2372 01-01-2011 18:03:02 1.4 C 4.8 g/m*3 1.4 C 0 km/h
2373 01-01-2011 18:15:02 1.4 C 4.85 g/m*3 1.4 C 0 km/h
2374 01-01-2011 18:27:02 1.3 C 4.82 g/m*3 1.3 C 0 km/h
2375 01-01-2011 18:39:02 1.4 C 4.85 g/m*3 1.4 C 0 km/h
Sensor: Nr:Datum:Temp:Abs-Feuchte:Windchill:Wind:
Aussen-T/F 2376 01-01-2011 18:51:02 1.8 C 5.04 g/m*3 1.8 C 0 km/h
2377 01-01-2011 19:03:02 2 C 5.06 g/m*3 2 C 0 km/h
2378 01-01-2011 19:15:02 2 C 5.06 g/m*3 2 C 0 km/h
2379 01-01-2011 19:27:02 2 C 5.06 g/m*3 2 C 0 km/h
2380 01-01-2011 19:39:02 1.9 C 5.08 g/m*3 1.9 C 0 km/h
2381 01-01-2011 19:51:02 1.9 C 5.02 g/m*3 1.9 C 0 km/h
2382 01-01-2011 20:03:01 1.9 C 5.02 g/m*3 1.9 C 0 km/h
2383 01-01-2011 20:15:01 1.7 C 4.95 g/m*3 1.7 C 0 km/h
2384 01-01-2011 20:27:01 1.7 C 4.9 g/m*3 1.7 C 0 km/h
2385 01-01-2011 20:39:02 1.8 C 4.93 g/m*3 1.8 C 0 km/h
2386 01-01-2011 20:51:02 1.5 C 4.83 g/m*3 1.5 C 0 km/h
2387 01-01-2011 21:03:02 1.4 C 4.8 g/m*3 1.4 C 0 km/h
2388 01-01-2011 21:15:02 1.2 C 4.74 g/m*3 1.2 C 0 km/h
2389 01-01-2011 21:27:02 1.2 C 4.74 g/m*3 1.2 C 0 km/h
2390 01-01-2011 21:39:02 1.1 C 4.7 g/m*3 1.1 C 0 km/h
2391 01-01-2011 21:52:23 1 C 4.67 g/m*3 1 C 0 km/h
2392 01-01-2011 22:04:23 1 C 4.67 g/m*3 1 C 0 km/h
2393 01-01-2011 22:16:23 1 C 4.72 g/m*3 1 C 0 km/h
2394 01-01-2011 22:28:23 1.3 C 4.82 g/m*3 1.3 C 0 km/h
2395 01-01-2011 22:40:24 1.4 C 4.85 g/m*3 1.4 C 0 km/h
2396 01-01-2011 22:52:24 0.6 C 4.6 g/m*3 0.6 C 0 km/h
2397 01-01-2011 23:04:24 0.3 C 4.5 g/m*3 0.3 C 0 km/h
2398 01-01-2011 23:16:01 0.6 C 4.6 g/m*3 0.6 C 0 km/h
2399 01-01-2011 23:28:01 0.2 C 4.47 g/m*3 0.2 C 0 km/h
2400 01-01-2011 23:40:01 0.2 C 4.47 g/m*3 0.2 C 0 km/h
Sensor: Nr:Datum:Temp:Abs-Feuchte:Windchill:Wind:
Aussen-T/F 2401 01-01-2011 23:52:01 0.2 C 4.47 g/m*3 0.2 C 0 km/h
2402 02-01-2011 00:04:01 -0.1 C 4.38 g/m*3 -0.1 C 0 km/h
2403 02-01-2011 00:16:01 0.1 C 4.49 g/m*3 0.1 C 0 km/h
2404 02-01-2011 00:28:01 0.3 C 4.55 g/m*3 0.3 C 0 km/h
2405 02-01-2011 00:40:01 0.3 C 4.55 g/m*3 0.3 C 0 km/h
2406 02-01-2011 00:52:01 0.3 C 4.55 g/m*3 0.3 C 0 km/h
2407 02-01-2011 01:04:01 0.3 C 4.55 g/m*3 0.3 C 0 km/h
2408 02-01-2011 01:16:01 0.4 C 4.58 g/m*3 0.4 C 0 km/h
2409 02-01-2011 01:28:02 0.2 C 4.52 g/m*3 0.2 C 0 km/h
2410 02-01-2011 01:40:02 0.3 C 4.55 g/m*3 0.3 C 0 km/h
2411 02-01-2011 01:52:02 0.4 C 4.63 g/m*3 0.4 C 0 km/h
2412 02-01-2011 02:04:02 0.5 C 4.66 g/m*3 0.5 C 0 km/h
2413 02-01-2011 02:16:02 0.4 C 4.63 g/m*3 0.4 C 0 km/h
2414 02-01-2011 02:28:02 0 C 4.46 g/m*3 0 C 0 km/h
2415 02-01-2011 02:40:02 0.3 C 4.6 g/m*3 0.3 C 0 km/h
2416 02-01-2011 02:52:02 0.6 C 4.7 g/m*3 0.6 C 0 km/h
2417 02-01-2011 03:04:02 0.6 C 4.7 g/m*3 0.6 C 0 km/h
2418 02-01-2011 03:16:02 0.3 C 4.6 g/m*3 0.3 C 0 km/h
2419 02-01-2011 03:28:02 0.3 C 4.6 g/m*3 0.3 C 0 km/h
2420 02-01-2011 03:40:02 0.4 C 4.63 g/m*3 0.4 C 0 km/h
2421 02-01-2011 03:52:02 0.6 C 4.7 g/m*3 0.6 C 0 km/h
2422 02-01-2011 04:04:02 0.5 C 4.66 g/m*3 0.5 C 0 km/h
2423 02-01-2011 04:16:02 0.5 C 4.66 g/m*3 0.5 C 0 km/h
2424 02-01-2011 04:28:02 0.6 C 4.7 g/m*3 0.6 C 0 km/h
2425 02-01-2011 04:40:02 0.6 C 4.7 g/m*3 0.6 C 0 km/h
Sensor: Nr:Datum:Temp:Abs-Feuchte:Windchill:Wind:
Aussen-T/F 2426 02-01-2011 04:52:02 0.3 C 4.55 g/m*3 0.3 C 0 km/h
2427 02-01-2011 05:04:02 0.2 C 4.52 g/m*3 0.2 C 0 km/h
2428 02-01-2011 05:16:02 0.3 C 4.55 g/m*3 0.3 C 0 km/h
2429 02-01-2011 05:28:03 0.2 C 4.52 g/m*3 0.2 C 0 km/h
2430 02-01-2011 05:40:03 0.3 C 4.55 g/m*3 0.3 C 0 km/h
2431 02-01-2011 05:52:03 0.4 C 4.58 g/m*3 0.4 C 0 km/h
2432 02-01-2011 06:04:03 0.3 C 4.55 g/m*3 0.3 C 0 km/h
2433 02-01-2011 06:16:03 0.3 C 4.55 g/m*3 0.3 C 0 km/h
2434 02-01-2011 06:28:03 0.5 C 4.61 g/m*3 0.5 C 0 km/h
2435 02-01-2011 06:40:03 0.4 C 4.58 g/m*3 0.4 C 0 km/h
2436 02-01-2011 06:52:03 0 C 4.41 g/m*3 0 C 0 km/h
2437 02-01-2011 07:04:03 0.2 C 4.47 g/m*3 0.2 C 0 km/h
2438 02-01-2011 07:16:03 0.4 C 4.53 g/m*3 0.4 C 0 km/h
2439 02-01-2011 07:28:03 0.4 C 4.48 g/m*3 0.4 C 0 km/h
2440 02-01-2011 07:40:03 0.2 C 4.42 g/m*3 0.2 C 0 km/h
2441 02-01-2011 07:52:03 0.3 C 4.45 g/m*3 0.3 C 0 km/h
2442 02-01-2011 08:04:03 0.4 C 4.43 g/m*3 0.4 C 0 km/h
2443 02-01-2011 08:16:03 0 C 4.31 g/m*3 0 C 0 km/h
2444 02-01-2011 08:28:03 -0.4 C 4.15 g/m*3 -0.4 C 0 km/h
2445 02-01-2011 08:40:03 0.2 C 4.37 g/m*3 0.2 C 0 km/h
2446 02-01-2011 08:52:03 0.4 C 4.43 g/m*3 0.4 C 0 km/h
2447 02-01-2011 09:04:03 0.3 C 4.4 g/m*3 0.3 C 0 km/h
2448 02-01-2011 09:16:03 0.3 C 4.4 g/m*3 0.3 C 0 km/h
2449 02-01-2011 09:28:04 0.5 C 4.46 g/m*3 0.5 C 0 km/h
2450 02-01-2011 09:40:04 0.7 C 4.53 g/m*3 0.7 C 0 km/h
Sensor: Nr:Datum:Temp:Abs-Feuchte:Windchill:Wind:
Aussen-T/F 2451 02-01-2011 09:52:02 0.9 C 4.59 g/m*3 0.9 C 0 km/h
2452 02-01-2011 10:04:02 1.1 C 4.6 g/m*3 1.1 C 0 km/h
2453 02-01-2011 10:16:02 1.5 C 4.67 g/m*3 1.5 C 0 km/h
2454 02-01-2011 10:28:02 1.3 C 4.45 g/m*3 1.3 C 0 km/h
2455 02-01-2011 10:40:02 1.6 C 4.38 g/m*3 1.6 C 0 km/h
2456 02-01-2011 10:52:01 1.6 C 4.22 g/m*3 1.6 C 0 km/h
2457 02-01-2011 11:04:02 1.9 C 4.19 g/m*3 1.9 C 0 km/h
2458 02-01-2011 11:16:01 1.5 C 4.08 g/m*3 1.5 C 0 km/h
2459 02-01-2011 11:28:01 1.5 C 4.14 g/m*3 1.5 C 0 km/h
2460 02-01-2011 11:40:01 2.1 C 4.25 g/m*3 2.1 C 0 km/h
2461 02-01-2011 11:52:02 2 C 4.11 g/m*3 2 C 0 km/h
2462 02-01-2011 12:04:01 1.9 C 4.19 g/m*3 1.9 C 0 km/h
2463 02-01-2011 12:16:02 1.9 C 4.19 g/m*3 1.9 C 0 km/h
2464 02-01-2011 12:28:02 2.2 C 4.11 g/m*3 2.2 C 0 km/h
2465 02-01-2011 12:40:01 2.1 C 4.14 g/m*3 2.1 C 0 km/h
2466 02-01-2011 12:52:03 2.2 C 4.17 g/m*3 2.2 C 0 km/h
2467 02-01-2011 13:04:02 2 C 4.06 g/m*3 2 C 0 km/h
2468 02-01-2011 13:16:02 2.6 C 4.28 g/m*3 2.6 C 0 km/h
2469 02-01-2011 13:28:02 2.7 C 4.2 g/m*3 2.7 C 0 km/h
2470 02-01-2011 13:40:02 2.6 C 4.11 g/m*3 2.6 C 0 km/h
2471 02-01-2011 13:52:02 2.6 C 4.05 g/m*3 2.6 C 0 km/h
2472 02-01-2011 14:04:02 2.5 C 4.08 g/m*3 2.5 C 0 km/h
2473 02-01-2011 14:16:02 2.1 C 3.97 g/m*3 2.1 C 0 km/h
2474 02-01-2011 14:28:02 1.6 C 4 g/m*3 1.6 C 0 km/h
2475 02-01-2011 14:40:03 2.2 C 4.17 g/m*3 2.2 C 0 km/h
Sensor: Nr:Datum:Temp:Abs-Feuchte:Windchill:Wind:
Aussen-T/F 2476 02-01-2011 14:52:02 2.7 C 4.14 g/m*3 2.7 C 0 km/h
2477 02-01-2011 15:04:02 2.2 C 4 g/m*3 2.2 C 0 km/h
2478 02-01-2011 15:16:03 2.2 C 4.06 g/m*3 2.2 C 0 km/h
2479 02-01-2011 15:28:03 1.9 C 4.03 g/m*3 1.9 C 0 km/h
2480 02-01-2011 15:40:02 0.6 C 3.79 g/m*3 0.6 C 0 km/h
2481 02-01-2011 15:52:02 1.6 C 4.27 g/m*3 1.6 C 0 km/h
2482 02-01-2011 16:04:02 1.8 C 4.28 g/m*3 1.8 C 0 km/h
2483 02-01-2011 16:16:02 1.8 C 4.22 g/m*3 1.8 C 0 km/h
2484 02-01-2011 16:28:02 1.5 C 4.14 g/m*3 1.5 C 0 km/h
2485 02-01-2011 16:40:03 1.3 C 4.13 g/m*3 1.3 C 0 km/h
2486 02-01-2011 16:52:03 0.8 C 4.2 g/m*3 0.8 C 0 km/h
2487 02-01-2011 17:04:02 0.6 C 4.24 g/m*3 0.6 C 0 km/h
2488 02-01-2011 17:16:01 0.8 C 4.4 g/m*3 0.8 C 0 km/h
2489 02-01-2011 17:28:01 0.7 C 4.37 g/m*3 0.7 C 0 km/h
2490 02-01-2011 17:40:02 0.7 C 4.42 g/m*3 0.7 C 0 km/h
2491 02-01-2011 17:52:02 0.5 C 4.36 g/m*3 0.5 C 0 km/h
2492 02-01-2011 18:04:02 0.5 C 4.41 g/m*3 0.5 C 0 km/h
2493 02-01-2011 18:16:01 0.6 C 4.44 g/m*3 0.6 C 0 km/h
2494 02-01-2011 18:28:01 0.6 C 4.44 g/m*3 0.6 C 0 km/h
2495 02-01-2011 18:40:02 0.7 C 4.47 g/m*3 0.7 C 0 km/h
2496 02-01-2011 18:52:02 0.7 C 4.47 g/m*3 0.7 C 0 km/h
2497 02-01-2011 19:04:02 0.5 C 4.41 g/m*3 0.5 C 0 km/h
2498 02-01-2011 19:16:03 0.6 C 4.44 g/m*3 0.6 C 0 km/h
2499 02-01-2011 19:28:03 0.6 C 4.44 g/m*3 0.6 C 0 km/h
2500 02-01-2011 19:40:02 0.7 C 4.47 g/m*3 0.7 C 0 km/h
Sensor: Nr:Datum:Temp:Abs-Feuchte:Windchill:Wind:
Aussen-T/F 2501 02-01-2011 19:52:02 0.5 C 4.41 g/m*3 0.5 C 0 km/h
2502 02-01-2011 20:04:02 0.6 C 4.44 g/m*3 0.6 C 0 km/h
2503 02-01-2011 20:16:02 0.6 C 4.44 g/m*3 0.6 C 0 km/h
2504 02-01-2011 20:28:02 0.5 C 4.36 g/m*3 0.5 C 0 km/h
2505 02-01-2011 20:40:02 0.3 C 4.3 g/m*3 0.3 C 0 km/h
2506 02-01-2011 20:52:02 0.1 C 4.24 g/m*3 0.1 C 0 km/h
2507 02-01-2011 21:04:02 0.2 C 4.32 g/m*3 0.2 C 0 km/h
2508 02-01-2011 21:16:02 0.3 C 4.35 g/m*3 0.3 C 0 km/h
2509 02-01-2011 21:28:03 0.3 C 4.35 g/m*3 0.3 C 0 km/h
2510 02-01-2011 21:40:02 0.1 C 4.29 g/m*3 0.1 C 0 km/h
2511 02-01-2011 21:52:02 0 C 4.26 g/m*3 0 C 0 km/h
2512 02-01-2011 22:04:02 0.3 C 4.35 g/m*3 0.3 C 0 km/h
2513 02-01-2011 22:17:03 0.3 C 4.35 g/m*3 0.3 C 0 km/h
2514 02-01-2011 22:29:03 0.1 C 4.24 g/m*3 0.1 C 0 km/h
2515 02-01-2011 22:41:03 0.2 C 4.27 g/m*3 0.2 C 0 km/h
2516 02-01-2011 22:53:03 0.1 C 4.24 g/m*3 0.1 C 0 km/h
2517 02-01-2011 23:05:03 0.2 C 4.32 g/m*3 0.2 C 0 km/h
2518 02-01-2011 23:17:03 0.1 C 4.29 g/m*3 0.1 C 0 km/h
2519 02-01-2011 23:29:03 0.1 C 4.29 g/m*3 0.1 C 0 km/h
2520 02-01-2011 23:41:03 0.1 C 4.29 g/m*3 0.1 C 0 km/h
2521 02-01-2011 23:53:03 0.1 C 4.29 g/m*3 0.1 C 0 km/h
2522 03-01-2011 00:05:03 0.1 C 4.34 g/m*3 0.1 C 0 km/h
2523 03-01-2011 00:17:03 0.1 C 4.34 g/m*3 0.1 C 0 km/h
2524 03-01-2011 00:29:03 0.2 C 4.37 g/m*3 0.2 C 0 km/h
2525 03-01-2011 00:41:03 0.1 C 4.34 g/m*3 0.1 C 0 km/h
Sensor: Nr:Datum:Temp:Abs-Feuchte:Windchill:Wind:
Aussen-T/F 2526 03-01-2011 00:53:03 0.1 C 4.29 g/m*3 0.1 C 0 km/h
2527 03-01-2011 01:05:03 0 C 4.26 g/m*3 0 C 0 km/h
2528 03-01-2011 01:17:03 0.1 C 4.29 g/m*3 0.1 C 0 km/h
2529 03-01-2011 01:29:03 0.1 C 4.29 g/m*3 0.1 C 0 km/h
2530 03-01-2011 01:41:03 0 C 4.26 g/m*3 0 C 0 km/h
2531 03-01-2011 01:53:03 0.1 C 4.29 g/m*3 0.1 C 0 km/h
2532 03-01-2011 02:05:04 0 C 4.26 g/m*3 0 C 0 km/h
2533 03-01-2011 02:17:04 0 C 4.26 g/m*3 0 C 0 km/h
2534 03-01-2011 02:29:04 -0.2 C 4.21 g/m*3 -0.2 C 0 km/h
2535 03-01-2011 02:41:04 -0.2 C 4.21 g/m*3 -0.2 C 0 km/h
2536 03-01-2011 02:53:04 -0.4 C 4.15 g/m*3 -0.4 C 0 km/h
2537 03-01-2011 03:05:04 -0.2 C 4.21 g/m*3 -0.2 C 0 km/h
2538 03-01-2011 03:17:04 -0.2 C 4.21 g/m*3 -0.2 C 0 km/h
2539 03-01-2011 03:29:04 -0.3 C 4.13 g/m*3 -0.3 C 0 km/h
2540 03-01-2011 03:41:04 -0.4 C 4.05 g/m*3 -0.4 C 0 km/h
2541 03-01-2011 03:53:04 -0.4 C 4.01 g/m*3 -0.4 C 0 km/h
2542 03-01-2011 04:05:04 -0.6 C 3.9 g/m*3 -0.6 C 0 km/h
2543 03-01-2011 04:17:04 -1.1 C 3.77 g/m*3 -1.1 C 0 km/h
2544 03-01-2011 04:29:04 -0.9 C 3.87 g/m*3 -0.9 C 0 km/h
2545 03-01-2011 04:41:04 -0.9 C 3.82 g/m*3 -0.9 C 0 km/h
2546 03-01-2011 04:53:04 -0.9 C 3.87 g/m*3 -0.9 C 0 km/h
2547 03-01-2011 05:05:04 -0.9 C 3.87 g/m*3 -0.9 C 0 km/h
2548 03-01-2011 05:17:04 -1 C 3.89 g/m*3 -1 C 0 km/h
2549 03-01-2011 05:29:04 -1.1 C 3.82 g/m*3 -1.1 C 0 km/h
2550 03-01-2011 05:41:04 -1.1 C 3.82 g/m*3 -1.1 C 0 km/h
Sensor: Nr:Datum:Temp:Abs-Feuchte:Windchill:Wind:
Aussen-T/F 2551 03-01-2011 05:53:04 -1.1 C 3.82 g/m*3 -1.1 C 0 km/h
2552 03-01-2011 06:05:04 -1.1 C 3.82 g/m*3 -1.1 C 0 km/h
2553 03-01-2011 06:17:05 -1.1 C 3.86 g/m*3 -1.1 C 0 km/h
2554 03-01-2011 06:29:05 -1.1 C 3.91 g/m*3 -1.1 C 0 km/h
2555 03-01-2011 06:41:05 -1.2 C 3.88 g/m*3 -1.2 C 0 km/h
2556 03-01-2011 06:53:05 -1.1 C 3.95 g/m*3 -1.1 C 0 km/h
2557 03-01-2011 07:05:05 -1.1 C 3.95 g/m*3 -1.1 C 0 km/h
2558 03-01-2011 07:17:03 -1.1 C 4 g/m*3 -1.1 C 0 km/h
2559 03-01-2011 07:29:03 -1.1 C 4 g/m*3 -1.1 C 0 km/h
2560 03-01-2011 07:41:03 -1 C 4.02 g/m*3 -1 C 0 km/h
2561 03-01-2011 07:53:02 -1.1 C 4 g/m*3 -1.1 C 0 km/h
2562 03-01-2011 08:05:03 -1.4 C 3.87 g/m*3 -1.4 C 0 km/h
2563 03-01-2011 08:17:02 -1.4 C 3.87 g/m*3 -1.4 C 0 km/h
2564 03-01-2011 08:29:02 -1.3 C 3.94 g/m*3 -1.3 C 0 km/h
2565 03-01-2011 08:41:02 -1.2 C 3.92 g/m*3 -1.2 C 0 km/h
2566 03-01-2011 08:53:02 -1.2 C 3.92 g/m*3 -1.2 C 0 km/h
2567 03-01-2011 09:05:02 -1.3 C 3.94 g/m*3 -1.3 C 0 km/h
2568 03-01-2011 09:17:01 -1.3 C 3.94 g/m*3 -1.3 C 0 km/h
2569 03-01-2011 09:29:01 -1.2 C 3.92 g/m*3 -1.2 C 0 km/h
2570 03-01-2011 09:41:02 -1.2 C 3.92 g/m*3 -1.2 C 0 km/h
2571 03-01-2011 09:53:02 -1.1 C 3.91 g/m*3 -1.1 C 0 km/h
2572 03-01-2011 10:05:03 -1.1 C 3.91 g/m*3 -1.1 C 0 km/h
2573 03-01-2011 10:17:02 -1.1 C 3.86 g/m*3 -1.1 C 0 km/h
2574 03-01-2011 10:29:02 -1.2 C 3.79 g/m*3 -1.2 C 0 km/h
2575 03-01-2011 10:41:02 -0.8 C 3.9 g/m*3 -0.8 C 0 km/h
Sensor: Nr:Datum:Temp:Abs-Feuchte:Windchill:Wind:
Aussen-T/F 2576 03-01-2011 10:53:02 -0.9 C 3.82 g/m*3 -0.9 C 0 km/h
2577 03-01-2011 11:05:02 -0.6 C 3.81 g/m*3 -0.6 C 0 km/h
2578 03-01-2011 11:17:01 -0.4 C 3.77 g/m*3 -0.4 C 0 km/h
2579 03-01-2011 11:29:01 -0.2 C 3.73 g/m*3 -0.2 C 0 km/h
2580 03-01-2011 11:41:02 -0.2 C 3.63 g/m*3 -0.2 C 0 km/h
2581 03-01-2011 11:53:02 -0.1 C 3.71 g/m*3 -0.1 C 0 km/h
2582 03-01-2011 12:05:02 0 C 3.68 g/m*3 0 C 0 km/h
2583 03-01-2011 12:17:01 0.2 C 3.73 g/m*3 0.2 C 0 km/h
2584 03-01-2011 12:29:01 0.3 C 3.76 g/m*3 0.3 C 0 km/h
2585 03-01-2011 12:41:02 0.3 C 3.71 g/m*3 0.3 C 0 km/h
2586 03-01-2011 12:53:01 0.5 C 3.76 g/m*3 0.5 C 0 km/h
2587 03-01-2011 13:05:02 1 C 3.84 g/m*3 1 C 0 km/h
2588 03-01-2011 13:17:02 0.9 C 3.81 g/m*3 0.9 C 0 km/h
2589 03-01-2011 13:29:02 0.9 C 3.81 g/m*3 0.9 C 0 km/h
2590 03-01-2011 13:41:02 1.1 C 3.81 g/m*3 1.1 C 0 km/h
2591 03-01-2011 13:53:02 0.7 C 3.76 g/m*3 0.7 C 0 km/h
2592 03-01-2011 14:05:01 0.8 C 3.84 g/m*3 0.8 C 0 km/h
2593 03-01-2011 14:17:02 0.7 C 3.81 g/m*3 0.7 C 0 km/h
2594 03-01-2011 14:29:03 0.7 C 3.86 g/m*3 0.7 C 0 km/h
2595 03-01-2011 14:41:01 1.1 C 3.92 g/m*3 1.1 C 0 km/h
2596 03-01-2011 14:53:02 1 C 3.84 g/m*3 1 C 0 km/h
2597 03-01-2011 15:05:02 1 C 3.84 g/m*3 1 C 0 km/h
2598 03-01-2011 15:17:02 0.4 C 3.79 g/m*3 0.4 C 0 km/h
2599 03-01-2011 15:29:02 -0.1 C 3.75 g/m*3 -0.1 C 0 km/h
2600 03-01-2011 15:41:03 -0.6 C 3.67 g/m*3 -0.6 C 0 km/h
Sensor: Nr:Datum:Temp:Abs-Feuchte:Windchill:Wind:
Aussen-T/F 2601 03-01-2011 15:53:02 -1.1 C 3.64 g/m*3 -1.1 C 0 km/h
2602 03-01-2011 16:05:02 -1.3 C 3.63 g/m*3 -1.3 C 0 km/h
2603 03-01-2011 16:17:01 -1.5 C 3.62 g/m*3 -1.5 C 0 km/h
2604 03-01-2011 16:29:01 -2 C 3.5 g/m*3 -2 C 0 km/h
2605 03-01-2011 16:41:02 -1.7 C 3.66 g/m*3 -1.7 C 0 km/h
2606 03-01-2011 16:53:02 -1.2 C 3.83 g/m*3 -1.2 C 0 km/h
2607 03-01-2011 17:05:02 -1.9 C 3.65 g/m*3 -1.9 C 0 km/h
2608 03-01-2011 17:17:02 -2.6 C 3.48 g/m*3 -2.6 C 0 km/h
2609 03-01-2011 17:29:02 -2.5 C 3.5 g/m*3 -2.5 C 0 km/h
2610 03-01-2011 17:41:02 -2.9 C 3.44 g/m*3 -2.9 C 0 km/h
2611 03-01-2011 17:53:02 -2.4 C 3.57 g/m*3 -2.4 C 0 km/h
2612 03-01-2011 18:05:01 -1.7 C 3.79 g/m*3 -1.7 C 0 km/h
2613 03-01-2011 18:17:01 -1.4 C 3.91 g/m*3 -1.4 C 0 km/h
2614 03-01-2011 18:29:01 -1.3 C 3.94 g/m*3 -1.3 C 0 km/h
2615 03-01-2011 18:41:02 -1.1 C 4 g/m*3 -1.1 C 0 km/h
2616 03-01-2011 18:53:02 -1 C 4.02 g/m*3 -1 C 0 km/h
2617 03-01-2011 19:05:02 -1.1 C 4 g/m*3 -1.1 C 0 km/h
2618 03-01-2011 19:17:02 -1.1 C 4 g/m*3 -1.1 C 0 km/h
2619 03-01-2011 19:29:02 -1.1 C 4.04 g/m*3 -1.1 C 0 km/h
2620 03-01-2011 19:41:02 -1.2 C 4.01 g/m*3 -1.2 C 0 km/h
2621 03-01-2011 19:53:02 -1.6 C 3.86 g/m*3 -1.6 C 0 km/h
2622 03-01-2011 20:05:02 -2.1 C 3.73 g/m*3 -2.1 C 0 km/h
2623 03-01-2011 20:17:02 -2.3 C 3.67 g/m*3 -2.3 C 0 km/h
2624 03-01-2011 20:29:02 -1.8 C 3.8 g/m*3 -1.8 C 0 km/h
2625 03-01-2011 20:41:01 -1.8 C 3.85 g/m*3 -1.8 C 0 km/h
Sensor: Nr:Datum:Temp:Abs-Feuchte:Windchill:Wind:
Aussen-T/F 2626 03-01-2011 20:53:02 -2 C 3.75 g/m*3 -2 C 0 km/h
2627 03-01-2011 21:05:02 -2.3 C 3.67 g/m*3 -2.3 C 0 km/h
2628 03-01-2011 21:17:03 -2.7 C 3.57 g/m*3 -2.7 C 0 km/h
2629 03-01-2011 21:29:03 -3 C 3.5 g/m*3 -3 C 0 km/h
2630 03-01-2011 21:41:02 -2.5 C 3.62 g/m*3 -2.5 C 0 km/h
2631 03-01-2011 21:53:02 -2 C 3.79 g/m*3 -2 C 0 km/h
2632 03-01-2011 22:05:02 -1.7 C 3.87 g/m*3 -1.7 C 0 km/h
2633 03-01-2011 22:18:03 -1.4 C 3.96 g/m*3 -1.4 C 0 km/h
2634 03-01-2011 22:30:03 -1.5 C 3.93 g/m*3 -1.5 C 0 km/h
2635 03-01-2011 22:42:03 -1.6 C 3.9 g/m*3 -1.6 C 0 km/h
2636 03-01-2011 22:54:03 -1.8 C 3.85 g/m*3 -1.8 C 0 km/h
2637 03-01-2011 23:06:03 -2.4 C 3.69 g/m*3 -2.4 C 0 km/h
2638 03-01-2011 23:18:03 -2.9 C 3.56 g/m*3 -2.9 C 0 km/h
2639 03-01-2011 23:30:03 -3.1 C 3.51 g/m*3 -3.1 C 0 km/h
2640 03-01-2011 23:42:03 -3.2 C 3.49 g/m*3 -3.2 C 0 km/h
2641 03-01-2011 23:54:03 -3.4 C 3.4 g/m*3 -3.4 C 0 km/h
2642 04-01-2011 00:06:03 -3.4 C 3.44 g/m*3 -3.4 C 0 km/h
2643 04-01-2011 00:18:03 -3.4 C 3.44 g/m*3 -3.4 C 0 km/h
2644 04-01-2011 00:30:03 -3.8 C 3.34 g/m*3 -3.8 C 0 km/h
2645 04-01-2011 00:42:03 -3.8 C 3.34 g/m*3 -3.8 C 0 km/h
2646 04-01-2011 00:54:03 -3.8 C 3.34 g/m*3 -3.8 C 0 km/h
2647 04-01-2011 01:06:03 -3.4 C 3.44 g/m*3 -3.4 C 0 km/h
2648 04-01-2011 01:18:03 -3.9 C 3.32 g/m*3 -3.9 C 0 km/h
2649 04-01-2011 01:30:04 -4.3 C 3.19 g/m*3 -4.3 C 0 km/h
2650 04-01-2011 01:42:04 -4.2 C 3.21 g/m*3 -4.2 C 0 km/h
Sensor: Nr:Datum:Temp:Abs-Feuchte:Windchill:Wind:
Aussen-T/F 2651 04-01-2011 01:54:04 -3.9 C 3.32 g/m*3 -3.9 C 0 km/h
2652 04-01-2011 02:06:04 -3.4 C 3.44 g/m*3 -3.4 C 0 km/h
2653 04-01-2011 02:18:04 -3.4 C 3.44 g/m*3 -3.4 C 0 km/h
2654 04-01-2011 02:30:04 -3 C 3.54 g/m*3 -3 C 0 km/h
2655 04-01-2011 02:42:04 -3.4 C 3.44 g/m*3 -3.4 C 0 km/h
2656 04-01-2011 02:54:04 -3.3 C 3.46 g/m*3 -3.3 C 0 km/h
2657 04-01-2011 03:06:04 -3.2 C 3.49 g/m*3 -3.2 C 0 km/h
2658 04-01-2011 03:18:04 -3.4 C 3.4 g/m*3 -3.4 C 0 km/h
2659 04-01-2011 03:30:04 -3.2 C 3.45 g/m*3 -3.2 C 0 km/h
2660 04-01-2011 03:42:04 -3.1 C 3.51 g/m*3 -3.1 C 0 km/h
2661 04-01-2011 03:54:04 -3 C 3.54 g/m*3 -3 C 0 km/h
2662 04-01-2011 04:06:04 -3 C 3.54 g/m*3 -3 C 0 km/h
2663 04-01-2011 04:18:04 -3.2 C 3.45 g/m*3 -3.2 C 0 km/h
2664 04-01-2011 04:30:04 -3.5 C 3.37 g/m*3 -3.5 C 0 km/h
2665 04-01-2011 04:42:04 -3.7 C 3.33 g/m*3 -3.7 C 0 km/h
2666 04-01-2011 04:54:04 -3.8 C 3.3 g/m*3 -3.8 C 0 km/h
2667 04-01-2011 05:06:04 -3.5 C 3.37 g/m*3 -3.5 C 0 km/h
2668 04-01-2011 05:18:04 -3.4 C 3.4 g/m*3 -3.4 C 0 km/h
2669 04-01-2011 05:30:04 -3.5 C 3.37 g/m*3 -3.5 C 0 km/h
2670 04-01-2011 05:42:05 -4 C 3.22 g/m*3 -4 C 0 km/h
2671 04-01-2011 05:54:05 -4.3 C 3.15 g/m*3 -4.3 C 0 km/h
2672 04-01-2011 06:06:05 -4.5 C 3.11 g/m*3 -4.5 C 0 km/h
2673 04-01-2011 06:18:05 -4.3 C 3.15 g/m*3 -4.3 C 0 km/h
2674 04-01-2011 06:30:05 -4.1 C 3.2 g/m*3 -4.1 C 0 km/h
2675 04-01-2011 06:42:05 -3.2 C 3.45 g/m*3 -3.2 C 0 km/h
Sensor: Nr:Datum:Temp:Abs-Feuchte:Windchill:Wind:
Aussen-T/F 2676 04-01-2011 06:54:05 -3.1 C 3.47 g/m*3 -3.1 C 0 km/h
2677 04-01-2011 07:06:05 -2.9 C 3.52 g/m*3 -2.9 C 0 km/h
2678 04-01-2011 07:18:05 -2.9 C 3.52 g/m*3 -2.9 C 0 km/h
2679 04-01-2011 07:30:05 -2.7 C 3.57 g/m*3 -2.7 C 0 km/h
2680 04-01-2011 07:42:03 -2.6 C 3.6 g/m*3 -2.6 C 0 km/h
2681 04-01-2011 07:54:02 -2.5 C 3.62 g/m*3 -2.5 C 0 km/h
2682 04-01-2011 08:06:02 -2.3 C 3.71 g/m*3 -2.3 C 0 km/h
2683 04-01-2011 08:18:02 -2.2 C 3.74 g/m*3 -2.2 C 0 km/h
2684 04-01-2011 08:30:02 -2.1 C 3.77 g/m*3 -2.1 C 0 km/h
2685 04-01-2011 08:42:02 -2.1 C 3.77 g/m*3 -2.1 C 0 km/h
2686 04-01-2011 08:54:02 -2 C 3.79 g/m*3 -2 C 0 km/h
2687 04-01-2011 09:06:02 -2 C 3.79 g/m*3 -2 C 0 km/h
2688 04-01-2011 09:18:02 -1.9 C 3.82 g/m*3 -1.9 C 0 km/h
2689 04-01-2011 09:30:02 -1.8 C 3.85 g/m*3 -1.8 C 0 km/h
2690 04-01-2011 09:42:02 -1.9 C 3.82 g/m*3 -1.9 C 0 km/h
2691 04-01-2011 09:54:02 -1.8 C 3.85 g/m*3 -1.8 C 0 km/h
2692 04-01-2011 10:06:02 -1.4 C 3.96 g/m*3 -1.4 C 0 km/h
2693 04-01-2011 10:18:02 -1.4 C 3.96 g/m*3 -1.4 C 0 km/h
2694 04-01-2011 10:30:03 -1 C 4.07 g/m*3 -1 C 0 km/h
2695 04-01-2011 10:42:02 -0.7 C 4.15 g/m*3 -0.7 C 0 km/h
2696 04-01-2011 10:54:02 -0.6 C 4.18 g/m*3 -0.6 C 0 km/h
2697 04-01-2011 11:06:01 -0.4 C 4.19 g/m*3 -0.4 C 0 km/h
2698 04-01-2011 11:18:02 -0.3 C 4.22 g/m*3 -0.3 C 0 km/h
2699 04-01-2011 11:30:02 -0.7 C 4.02 g/m*3 -0.7 C 0 km/h
2700 04-01-2011 11:42:02 -0.3 C 3.99 g/m*3 -0.3 C 0 km/h
Sensor: Nr:Datum:Temp:Abs-Feuchte:Windchill:Wind:
Aussen-T/F 2701 04-01-2011 11:54:03 -0.4 C 3.82 g/m*3 -0.4 C 0 km/h
2702 04-01-2011 12:06:03 -0.4 C 3.63 g/m*3 -0.4 C 0 km/h
2703 04-01-2011 12:18:03 -0.2 C 3.54 g/m*3 -0.2 C 0 km/h
2704 04-01-2011 12:30:03 -0.2 C 3.44 g/m*3 -0.2 C 0 km/h
2705 04-01-2011 12:42:03 -0.3 C 3.37 g/m*3 -0.3 C 0 km/h
2706 04-01-2011 12:54:03 -0.2 C 3.35 g/m*3 -0.2 C 0 km/h
2707 04-01-2011 13:06:03 -0.2 C 3.35 g/m*3 -0.2 C 0 km/h
2708 04-01-2011 13:18:03 0 C 3.34 g/m*3 0 C 0 km/h
2709 04-01-2011 13:30:03 0 C 3.39 g/m*3 0 C 0 km/h
2710 04-01-2011 13:42:03 0.2 C 3.39 g/m*3 0.2 C 0 km/h
2711 04-01-2011 13:54:03 0.5 C 3.51 g/m*3 0.5 C 0 km/h
2712 04-01-2011 14:06:04 0.2 C 3.39 g/m*3 0.2 C 0 km/h
2713 04-01-2011 14:18:04 0.2 C 3.34 g/m*3 0.2 C 0 km/h
2714 04-01-2011 14:30:04 0.2 C 3.34 g/m*3 0.2 C 0 km/h
2715 04-01-2011 14:42:04 0 C 3.29 g/m*3 0 C 0 km/h
2716 04-01-2011 14:54:04 -0.3 C 3.27 g/m*3 -0.3 C 0 km/h
2717 04-01-2011 15:06:04 -0.4 C 3.3 g/m*3 -0.4 C 0 km/h
2718 04-01-2011 15:18:04 -0.9 C 3.19 g/m*3 -0.9 C 0 km/h
2719 04-01-2011 15:30:04 -1.1 C 3.23 g/m*3 -1.1 C 0 km/h
2720 04-01-2011 15:42:04 -1.1 C 3.28 g/m*3 -1.1 C 0 km/h
2721 04-01-2011 15:54:04 -1.1 C 3.28 g/m*3 -1.1 C 0 km/h
2722 04-01-2011 16:06:04 -1.1 C 3.28 g/m*3 -1.1 C 0 km/h
2723 04-01-2011 16:18:04 -1.1 C 3.28 g/m*3 -1.1 C 0 km/h
2724 04-01-2011 16:30:04 -1.2 C 3.25 g/m*3 -1.2 C 0 km/h
2725 04-01-2011 16:42:04 -1.2 C 3.25 g/m*3 -1.2 C 0 km/h
Sensor: Nr:Datum:Temp:Abs-Feuchte:Windchill:Wind:
Aussen-T/F 2726 04-01-2011 16:54:04 -1.3 C 3.23 g/m*3 -1.3 C 0 km/h
2727 04-01-2011 17:06:04 -1.5 C 3.23 g/m*3 -1.5 C 0 km/h
2728 04-01-2011 17:18:04 -1.9 C 3.18 g/m*3 -1.9 C 0 km/h
2729 04-01-2011 17:30:04 -2.3 C 3.14 g/m*3 -2.3 C 0 km/h
2730 04-01-2011 17:42:04 -2.2 C 3.24 g/m*3 -2.2 C 0 km/h
2731 04-01-2011 17:54:03 -2.1 C 3.26 g/m*3 -2.1 C 0 km/h
2732 04-01-2011 18:06:02 -2.1 C 3.22 g/m*3 -2.1 C 0 km/h
2733 04-01-2011 18:18:03 -2.2 C 3.2 g/m*3 -2.2 C 0 km/h
2734 04-01-2011 18:30:03 -2.1 C 3.22 g/m*3 -2.1 C 0 km/h
2735 04-01-2011 18:42:03 -2.3 C 3.14 g/m*3 -2.3 C 0 km/h
2736 04-01-2011 18:54:02 -2.4 C 3.11 g/m*3 -2.4 C 0 km/h
2737 04-01-2011 19:06:02 -2.7 C 3.05 g/m*3 -2.7 C 0 km/h
2738 04-01-2011 19:18:02 -3.4 C 2.94 g/m*3 -3.4 C 0 km/h
2739 04-01-2011 19:30:02 -3.8 C 2.89 g/m*3 -3.8 C 0 km/h
2740 04-01-2011 19:42:03 -4 C 2.89 g/m*3 -4 C 0 km/h
2741 04-01-2011 19:54:02 -3.9 C 2.95 g/m*3 -3.9 C 0 km/h
2742 04-01-2011 20:06:02 -3.7 C 2.99 g/m*3 -3.7 C 0 km/h
2743 04-01-2011 20:18:02 -4 C 2.93 g/m*3 -4 C 0 km/h
2744 04-01-2011 20:30:02 -4.2 C 2.89 g/m*3 -4.2 C 0 km/h
2745 04-01-2011 20:42:02 -4.4 C 2.84 g/m*3 -4.4 C 0 km/h
2746 04-01-2011 20:54:02 -4.7 C 2.78 g/m*3 -4.7 C 0 km/h
2747 04-01-2011 21:06:03 -4.8 C 2.76 g/m*3 -4.8 C 0 km/h
2748 04-01-2011 21:18:02 -4.1 C 2.98 g/m*3 -4.1 C 0 km/h
2749 04-01-2011 21:30:02 -3.5 C 3.11 g/m*3 -3.5 C 0 km/h
2750 04-01-2011 21:43:03 -3.2 C 3.06 g/m*3 -3.2 C 0 km/h
Sensor: Nr:Datum:Temp:Abs-Feuchte:Windchill:Wind:
Aussen-T/F 2751 04-01-2011 21:55:03 -3 C 2.99 g/m*3 -3 C 0 km/h
2752 04-01-2011 22:07:03 -2.9 C 2.93 g/m*3 -2.9 C 0 km/h
2753 04-01-2011 22:19:03 -2.8 C 2.87 g/m*3 -2.8 C 0 km/h
2754 04-01-2011 22:31:03 -2.8 C 2.87 g/m*3 -2.8 C 0 km/h
2755 04-01-2011 22:43:03 -2.8 C 2.83 g/m*3 -2.8 C 0 km/h
2756 04-01-2011 22:55:03 -2.8 C 2.83 g/m*3 -2.8 C 0 km/h
2757 04-01-2011 23:07:03 -2.8 C 2.83 g/m*3 -2.8 C 0 km/h
2758 04-01-2011 23:19:03 -2.8 C 2.83 g/m*3 -2.8 C 0 km/h
2759 04-01-2011 23:31:03 -2.8 C 2.83 g/m*3 -2.8 C 0 km/h
2760 04-01-2011 23:43:04 -2.8 C 2.83 g/m*3 -2.8 C 0 km/h
2761 04-01-2011 23:55:04 -2.9 C 2.85 g/m*3 -2.9 C 0 km/h
2762 05-01-2011 00:07:04 -2.8 C 2.87 g/m*3 -2.8 C 0 km/h
2763 05-01-2011 00:19:04 -2.8 C 2.87 g/m*3 -2.8 C 0 km/h
2764 05-01-2011 00:31:04 -2.9 C 2.89 g/m*3 -2.9 C 0 km/h
2765 05-01-2011 00:43:04 -2.9 C 2.89 g/m*3 -2.9 C 0 km/h
2766 05-01-2011 00:55:04 -3 C 2.87 g/m*3 -3 C 0 km/h
2767 05-01-2011 01:07:04 -3 C 2.83 g/m*3 -3 C 0 km/h
2768 05-01-2011 01:19:04 -3 C 2.75 g/m*3 -3 C 0 km/h
2769 05-01-2011 01:31:04 -2.9 C 2.73 g/m*3 -2.9 C 0 km/h
2770 05-01-2011 01:43:04 -3 C 2.67 g/m*3 -3 C 0 km/h
2771 05-01-2011 01:55:04 -3 C 2.71 g/m*3 -3 C 0 km/h
2772 05-01-2011 02:07:04 -3 C 2.75 g/m*3 -3 C 0 km/h
2773 05-01-2011 02:19:04 -2.9 C 2.73 g/m*3 -2.9 C 0 km/h
2774 05-01-2011 02:31:04 -2.9 C 2.73 g/m*3 -2.9 C 0 km/h
2775 05-01-2011 02:43:04 -2.9 C 2.77 g/m*3 -2.9 C 0 km/h
Sensor: Nr:Datum:Temp:Abs-Feuchte:Windchill:Wind:
Aussen-T/F 2776 05-01-2011 02:55:04 -2.9 C 2.77 g/m*3 -2.9 C 0 km/h
2777 05-01-2011 03:07:04 -3 C 2.75 g/m*3 -3 C 0 km/h
2778 05-01-2011 03:19:04 -3 C 2.79 g/m*3 -3 C 0 km/h
2779 05-01-2011 03:31:04 -2.9 C 2.77 g/m*3 -2.9 C 0 km/h
2780 05-01-2011 03:43:05 -2.9 C 2.77 g/m*3 -2.9 C 0 km/h
2781 05-01-2011 03:55:05 -3 C 2.71 g/m*3 -3 C 0 km/h
2782 05-01-2011 04:07:05 -3.2 C 2.63 g/m*3 -3.2 C 0 km/h
2783 05-01-2011 04:19:05 -3.4 C 2.6 g/m*3 -3.4 C 0 km/h
2784 05-01-2011 04:31:05 -3.7 C 2.5 g/m*3 -3.7 C 0 km/h
2785 05-01-2011 04:43:05 -3.7 C 2.5 g/m*3 -3.7 C 0 km/h
2786 05-01-2011 04:55:05 -3.8 C 2.49 g/m*3 -3.8 C 0 km/h
2787 05-01-2011 05:07:05 -3.9 C 2.51 g/m*3 -3.9 C 0 km/h
2788 05-01-2011 05:19:05 -3.9 C 2.54 g/m*3 -3.9 C 0 km/h
2789 05-01-2011 05:31:05 -4 C 2.52 g/m*3 -4 C 0 km/h
2790 05-01-2011 05:43:05 -4.1 C 2.51 g/m*3 -4.1 C 0 km/h
2791 05-01-2011 05:55:05 -4.4 C 2.42 g/m*3 -4.4 C 0 km/h
2792 05-01-2011 06:07:05 -4.5 C 2.4 g/m*3 -4.5 C 0 km/h
2793 05-01-2011 06:19:05 -4.7 C 2.37 g/m*3 -4.7 C 0 km/h
2794 05-01-2011 06:31:05 -4.8 C 2.38 g/m*3 -4.8 C 0 km/h
2795 05-01-2011 06:43:05 -5.2 C 2.32 g/m*3 -5.2 C 0 km/h
2796 05-01-2011 06:55:05 -5.2 C 2.35 g/m*3 -5.2 C 0 km/h
2797 05-01-2011 07:07:05 -5.3 C 2.33 g/m*3 -5.3 C 0 km/h
2798 05-01-2011 07:19:05 -5.7 C 2.27 g/m*3 -5.7 C 0 km/h
2799 05-01-2011 07:31:03 -6.1 C 2.2 g/m*3 -6.1 C 0 km/h
2800 05-01-2011 07:43:03 -6.2 C 2.25 g/m*3 -6.2 C 0 km/h
Sensor: Nr:Datum:Temp:Abs-Feuchte:Windchill:Wind:
Aussen-T/F 2801 05-01-2011 07:55:02 -6.9 C 2.14 g/m*3 -6.9 C 0 km/h
2802 05-01-2011 08:07:02 -7.1 C 2.16 g/m*3 -7.1 C 0 km/h
2803 05-01-2011 08:19:02 -7.2 C 2.18 g/m*3 -7.2 C 0 km/h
2804 05-01-2011 08:31:02 -7.4 C 2.17 g/m*3 -7.4 C 0 km/h
2805 05-01-2011 08:43:02 -7.6 C 2.17 g/m*3 -7.6 C 0 km/h
2806 05-01-2011 08:55:02 -8 C 2.11 g/m*3 -8 C 0 km/h
2807 05-01-2011 09:07:01 -7.5 C 2.21 g/m*3 -7.5 C 0 km/h
2808 05-01-2011 09:19:02 -7.4 C 2.23 g/m*3 -7.4 C 0 km/h
2809 05-01-2011 09:31:02 -6.6 C 2.36 g/m*3 -6.6 C 0 km/h
2810 05-01-2011 09:43:02 -6.1 C 2.45 g/m*3 -6.1 C 0 km/h
2811 05-01-2011 09:55:01 -5.6 C 2.48 g/m*3 -5.6 C 0 km/h
2812 05-01-2011 10:07:02 -5 C 2.49 g/m*3 -5 C 0 km/h
2813 05-01-2011 10:19:02 -4.7 C 2.44 g/m*3 -4.7 C 0 km/h
2814 05-01-2011 10:31:01 -4.2 C 2.42 g/m*3 -4.2 C 0 km/h
2815 05-01-2011 10:43:01 -3.9 C 2.43 g/m*3 -3.9 C 0 km/h
2816 05-01-2011 10:55:02 -3.5 C 2.43 g/m*3 -3.5 C 0 km/h
2817 05-01-2011 11:07:01 -3.3 C 2.42 g/m*3 -3.3 C 0 km/h
2818 05-01-2011 11:19:02 -2.8 C 2.43 g/m*3 -2.8 C 0 km/h
2819 05-01-2011 11:31:01 -3.4 C 2.33 g/m*3 -3.4 C 0 km/h
2820 05-01-2011 11:43:01 -3.5 C 2.31 g/m*3 -3.5 C 0 km/h
2821 05-01-2011 11:55:03 -3 C 2.4 g/m*3 -3 C 0 km/h
2822 05-01-2011 12:07:02 -3.2 C 2.28 g/m*3 -3.2 C 0 km/h
2823 05-01-2011 12:19:02 -3.7 C 2.32 g/m*3 -3.7 C 0 km/h
2824 05-01-2011 12:31:03 -3.8 C 2.34 g/m*3 -3.8 C 0 km/h
2825 05-01-2011 12:43:03 -3.9 C 2.36 g/m*3 -3.9 C 0 km/h
Sensor: Nr:Datum:Temp:Abs-Feuchte:Windchill:Wind:
Aussen-T/F 2826 05-01-2011 12:55:02 -3.8 C 2.41 g/m*3 -3.8 C 0 km/h
2827 05-01-2011 13:07:02 -3.7 C 2.47 g/m*3 -3.7 C 0 km/h
2828 05-01-2011 13:19:02 -3.6 C 2.41 g/m*3 -3.6 C 0 km/h
2829 05-01-2011 13:31:02 -3.7 C 2.39 g/m*3 -3.7 C 0 km/h
2830 05-01-2011 13:43:02 -4 C 2.41 g/m*3 -4 C 0 km/h
2831 05-01-2011 13:55:02 -3.8 C 2.45 g/m*3 -3.8 C 0 km/h
2832 05-01-2011 14:07:02 -3.7 C 2.47 g/m*3 -3.7 C 0 km/h
2833 05-01-2011 14:19:02 -3.3 C 2.54 g/m*3 -3.3 C 0 km/h
2834 05-01-2011 14:31:02 -3.3 C 2.54 g/m*3 -3.3 C 0 km/h
2835 05-01-2011 14:43:02 -3.3 C 2.54 g/m*3 -3.3 C 0 km/h
2836 05-01-2011 14:55:01 -3.3 C 2.54 g/m*3 -3.3 C 0 km/h
2837 05-01-2011 15:07:02 -3.6 C 2.52 g/m*3 -3.6 C 0 km/h
2838 05-01-2011 15:19:01 -3.8 C 2.52 g/m*3 -3.8 C 0 km/h
2839 05-01-2011 15:31:02 -3.8 C 2.6 g/m*3 -3.8 C 0 km/h
2840 05-01-2011 15:43:02 -3.7 C 2.62 g/m*3 -3.7 C 0 km/h
2841 05-01-2011 15:55:01 -3.8 C 2.56 g/m*3 -3.8 C 0 km/h
2842 05-01-2011 16:07:02 -3.9 C 2.54 g/m*3 -3.9 C 0 km/h
2843 05-01-2011 16:19:01 -4.2 C 2.56 g/m*3 -4.2 C 0 km/h
2844 05-01-2011 16:31:02 -4.5 C 2.54 g/m*3 -4.5 C 0 km/h
2845 05-01-2011 16:43:02 -4.8 C 2.56 g/m*3 -4.8 C 0 km/h
2846 05-01-2011 16:55:01 -4.8 C 2.59 g/m*3 -4.8 C 0 km/h
2847 05-01-2011 17:07:02 -5.1 C 2.57 g/m*3 -5.1 C 0 km/h
2848 05-01-2011 17:19:02 -5.8 C 2.47 g/m*3 -5.8 C 0 km/h
2849 05-01-2011 17:31:01 -6 C 2.47 g/m*3 -6 C 0 km/h
2850 05-01-2011 17:43:01 -5.8 C 2.54 g/m*3 -5.8 C 0 km/h
Sensor: Nr:Datum:Temp:Abs-Feuchte:Windchill:Wind:
Aussen-T/F 2851 05-01-2011 17:55:02 -5.8 C 2.57 g/m*3 -5.8 C 0 km/h
2852 05-01-2011 18:07:01 -5.7 C 2.59 g/m*3 -5.7 C 0 km/h
2853 05-01-2011 18:19:02 -6 C 2.53 g/m*3 -6 C 0 km/h
2854 05-01-2011 18:31:01 -6.1 C 2.52 g/m*3 -6.1 C 0 km/h
2855 05-01-2011 18:43:01 -5.5 C 2.66 g/m*3 -5.5 C 0 km/h
2856 05-01-2011 18:55:03 -5.2 C 2.72 g/m*3 -5.2 C 0 km/h
2857 05-01-2011 19:07:02 -5.4 C 2.65 g/m*3 -5.4 C 0 km/h
2858 05-01-2011 19:19:02 -4.3 C 2.9 g/m*3 -4.3 C 0 km/h
2859 05-01-2011 19:31:02 -3.4 C 3.05 g/m*3 -3.4 C 0 km/h
2860 05-01-2011 19:43:02 -3.2 C 3.02 g/m*3 -3.2 C 0 km/h
2861 05-01-2011 19:55:02 -3 C 3.02 g/m*3 -3 C 0 km/h
2862 05-01-2011 20:07:02 -2.8 C 3.07 g/m*3 -2.8 C 0 km/h
2863 05-01-2011 20:19:02 -2.8 C 3.07 g/m*3 -2.8 C 0 km/h
2864 05-01-2011 20:31:02 -2.7 C 3.09 g/m*3 -2.7 C 0 km/h
2865 05-01-2011 20:43:02 -2.5 C 3.05 g/m*3 -2.5 C 0 km/h
2866 05-01-2011 20:55:02 -2.5 C 3.05 g/m*3 -2.5 C 0 km/h
2867 05-01-2011 21:07:01 -2.4 C 3.11 g/m*3 -2.4 C 0 km/h
2868 05-01-2011 21:19:01 -1.8 C 3.16 g/m*3 -1.8 C 0 km/h
2869 05-01-2011 21:31:02 -1.5 C 3.19 g/m*3 -1.5 C 0 km/h
2870 05-01-2011 21:43:02 -1.4 C 3.25 g/m*3 -1.4 C 0 km/h
2871 05-01-2011 21:55:02 -1.3 C 3.32 g/m*3 -1.3 C 0 km/h
2872 05-01-2011 22:07:02 -1.3 C 3.36 g/m*3 -1.3 C 0 km/h
2873 05-01-2011 22:20:04 -1.2 C 3.43 g/m*3 -1.2 C 0 km/h
2874 05-01-2011 22:32:04 -1.1 C 3.5 g/m*3 -1.1 C 0 km/h
2875 05-01-2011 22:44:04 -1 C 3.57 g/m*3 -1 C 0 km/h
Sensor: Nr:Datum:Temp:Abs-Feuchte:Windchill:Wind:
Aussen-T/F 2876 05-01-2011 22:56:04 -0.7 C 3.65 g/m*3 -0.7 C 0 km/h
2877 05-01-2011 23:08:04 -0.5 C 3.74 g/m*3 -0.5 C 0 km/h
2878 05-01-2011 23:20:04 -0.3 C 3.8 g/m*3 -0.3 C 0 km/h
2879 05-01-2011 23:32:04 -0.3 C 3.8 g/m*3 -0.3 C 0 km/h
2880 05-01-2011 23:44:04 -0.8 C 3.71 g/m*3 -0.8 C 0 km/h
2881 05-01-2011 23:56:04 -0.9 C 3.73 g/m*3 -0.9 C 0 km/h
2882 06-01-2011 00:08:04 -0.7 C 3.83 g/m*3 -0.7 C 0 km/h
2883 06-01-2011 00:20:04 -0.5 C 3.84 g/m*3 -0.5 C 0 km/h
2884 06-01-2011 00:32:04 -0.5 C 3.84 g/m*3 -0.5 C 0 km/h
2885 06-01-2011 00:44:04 -0.6 C 3.81 g/m*3 -0.6 C 0 km/h
2886 06-01-2011 00:56:04 -0.6 C 3.81 g/m*3 -0.6 C 0 km/h
2887 06-01-2011 01:08:04 -0.5 C 3.88 g/m*3 -0.5 C 0 km/h
2888 06-01-2011 01:20:04 -0.3 C 3.94 g/m*3 -0.3 C 0 km/h
2889 06-01-2011 01:32:04 -0.3 C 3.94 g/m*3 -0.3 C 0 km/h
2890 06-01-2011 01:44:04 -0.1 C 3.99 g/m*3 -0.1 C 0 km/h
2891 06-01-2011 01:56:04 0.1 C 4.1 g/m*3 0.1 C 0 km/h
2892 06-01-2011 02:08:04 0.2 C 4.18 g/m*3 0.2 C 0 km/h
2893 06-01-2011 02:20:05 0.3 C 4.25 g/m*3 0.3 C 0 km/h
2894 06-01-2011 02:32:05 0.3 C 4.3 g/m*3 0.3 C 0 km/h
2895 06-01-2011 02:44:05 0.3 C 4.35 g/m*3 0.3 C 0 km/h
2896 06-01-2011 02:56:05 0.4 C 4.38 g/m*3 0.4 C 0 km/h
2897 06-01-2011 03:08:05 0.5 C 4.46 g/m*3 0.5 C 0 km/h
2898 06-01-2011 03:20:05 0.5 C 4.46 g/m*3 0.5 C 0 km/h
2899 06-01-2011 03:32:05 0.8 C 4.61 g/m*3 0.8 C 0 km/h
2900 06-01-2011 03:44:05 0.7 C 4.58 g/m*3 0.7 C 0 km/h
Sensor: Nr:Datum:Temp:Abs-Feuchte:Windchill:Wind:
Aussen-T/F 2901 06-01-2011 03:56:05 0.7 C 4.58 g/m*3 0.7 C 0 km/h
2902 06-01-2011 04:08:05 0.8 C 4.66 g/m*3 0.8 C 0 km/h
2903 06-01-2011 04:20:05 0.9 C 4.69 g/m*3 0.9 C 0 km/h
2904 06-01-2011 04:32:05 0.9 C 4.69 g/m*3 0.9 C 0 km/h
2905 06-01-2011 04:44:05 0.9 C 4.69 g/m*3 0.9 C 0 km/h
2906 06-01-2011 04:56:05 0.9 C 4.69 g/m*3 0.9 C 0 km/h
2907 06-01-2011 05:08:05 1 C 4.72 g/m*3 1 C 0 km/h
2908 06-01-2011 05:20:05 1 C 4.72 g/m*3 1 C 0 km/h
2909 06-01-2011 05:32:05 1 C 4.72 g/m*3 1 C 0 km/h
2910 06-01-2011 05:44:05 1.1 C 4.76 g/m*3 1.1 C 0 km/h
2911 06-01-2011 05:56:05 1.1 C 4.76 g/m*3 1.1 C 0 km/h
2912 06-01-2011 06:08:05 1.3 C 4.87 g/m*3 1.3 C 0 km/h
2913 06-01-2011 06:20:05 1.2 C 4.84 g/m*3 1.2 C 0 km/h
2914 06-01-2011 06:32:06 1.2 C 4.84 g/m*3 1.2 C 0 km/h
2915 06-01-2011 06:44:06 1.3 C 4.87 g/m*3 1.3 C 0 km/h
2916 06-01-2011 06:56:02 1.3 C 4.87 g/m*3 1.3 C 0 km/h
2917 06-01-2011 07:08:03 1.4 C 4.91 g/m*3 1.4 C 0 km/h
2918 06-01-2011 07:20:02 1.4 C 4.91 g/m*3 1.4 C 0 km/h
2919 06-01-2011 07:32:02 1.3 C 4.87 g/m*3 1.3 C 0 km/h
2920 06-01-2011 07:44:02 1.4 C 4.91 g/m*3 1.4 C 0 km/h
2921 06-01-2011 07:56:02 1.4 C 4.91 g/m*3 1.4 C 0 km/h
2922 06-01-2011 08:08:02 1.4 C 4.91 g/m*3 1.4 C 0 km/h
2923 06-01-2011 08:20:01 1.4 C 4.91 g/m*3 1.4 C 0 km/h
2924 06-01-2011 08:32:02 1.5 C 4.94 g/m*3 1.5 C 0 km/h
2925 06-01-2011 08:44:02 1.5 C 4.94 g/m*3 1.5 C 0 km/h
Sensor: Nr:Datum:Temp:Abs-Feuchte:Windchill:Wind:
Aussen-T/F 2926 06-01-2011 08:56:02 1.9 C 5.13 g/m*3 1.9 C 0 km/h
2927 06-01-2011 09:08:02 2 C 5.11 g/m*3 2 C 0 km/h
2928 06-01-2011 09:20:01 2.2 C 5.18 g/m*3 2.2 C 0 km/h
2929 06-01-2011 09:32:02 2.3 C 5.22 g/m*3 2.3 C 0 km/h
2930 06-01-2011 09:44:02 2.5 C 5.29 g/m*3 2.5 C 0 km/h
2931 06-01-2011 09:56:02 3.7 C 5.73 g/m*3 3.7 C 0 km/h
2932 06-01-2011 10:08:03 3.8 C 5.83 g/m*3 3.8 C 0 km/h
2933 06-01-2011 10:20:02 4.1 C 5.89 g/m*3 4.1 C 0 km/h
2934 06-01-2011 10:32:02 4.4 C 6.01 g/m*3 4.4 C 0 km/h
2935 06-01-2011 10:44:02 5.1 C 6.22 g/m*3 5.1 C 0 km/h
2936 06-01-2011 10:56:01 5.1 C 6.22 g/m*3 5.1 C 0 km/h
2937 06-01-2011 11:08:02 5.5 C 6.32 g/m*3 5.5 C 0 km/h
2938 06-01-2011 11:20:01 5.9 C 6.35 g/m*3 5.9 C 0 km/h
2939 06-01-2011 11:32:01 6.1 C 6.21 g/m*3 6.1 C 0 km/h
2940 06-01-2011 11:44:01 6.3 C 6.22 g/m*3 6.3 C 0 km/h
2941 06-01-2011 11:56:01 6.6 C 6.27 g/m*3 6.6 C 0 km/h
2942 06-01-2011 12:08:01 5.5 C 5.69 g/m*3 5.5 C 0 km/h
2943 06-01-2011 12:20:02 5.2 C 5.71 g/m*3 5.2 C 0 km/h
2944 06-01-2011 12:32:01 5.6 C 5.94 g/m*3 5.6 C 0 km/h
2945 06-01-2011 12:44:01 5.2 C 5.78 g/m*3 5.2 C 0 km/h
2946 06-01-2011 12:56:03 5.2 C 5.85 g/m*3 5.2 C 0 km/h
2947 06-01-2011 13:08:02 4.9 C 5.81 g/m*3 4.9 C 0 km/h
2948 06-01-2011 13:20:02 4.8 C 5.83 g/m*3 4.8 C 0 km/h
2949 06-01-2011 13:32:02 4.5 C 5.65 g/m*3 4.5 C 0 km/h
2950 06-01-2011 13:44:02 4.2 C 5.61 g/m*3 4.2 C 0 km/h
Sensor: Nr:Datum:Temp:Abs-Feuchte:Windchill:Wind:
Aussen-T/F 2951 06-01-2011 13:56:02 4.1 C 5.57 g/m*3 4.1 C 0 km/h
2952 06-01-2011 14:08:01 4.3 C 5.64 g/m*3 4.3 C 0 km/h
2953 06-01-2011 14:20:02 4.2 C 5.61 g/m*3 4.2 C 0 km/h
2954 06-01-2011 14:32:02 4.3 C 5.64 g/m*3 4.3 C 0 km/h
2955 06-01-2011 14:44:02 4 C 5.53 g/m*3 4 C 0 km/h
2956 06-01-2011 14:56:02 3.8 C 5.52 g/m*3 3.8 C 0 km/h
2957 06-01-2011 15:08:03 3.9 C 5.62 g/m*3 3.9 C 0 km/h
2958 06-01-2011 15:20:02 3.8 C 5.58 g/m*3 3.8 C 0 km/h
2959 06-01-2011 15:32:02 4 C 5.59 g/m*3 4 C 0 km/h
2960 06-01-2011 15:44:02 4 C 5.66 g/m*3 4 C 0 km/h
2961 06-01-2011 15:56:01 4 C 5.66 g/m*3 4 C 0 km/h
2962 06-01-2011 16:08:02 4 C 5.66 g/m*3 4 C 0 km/h
2963 06-01-2011 16:20:01 4.2 C 5.73 g/m*3 4.2 C 0 km/h
2964 06-01-2011 16:32:01 4 C 5.66 g/m*3 4 C 0 km/h
2965 06-01-2011 16:44:01 3.7 C 5.61 g/m*3 3.7 C 0 km/h
2966 06-01-2011 16:56:01 3.7 C 5.61 g/m*3 3.7 C 0 km/h
2967 06-01-2011 17:08:02 3.8 C 5.65 g/m*3 3.8 C 0 km/h
2968 06-01-2011 17:20:02 4 C 5.72 g/m*3 4 C 0 km/h
2969 06-01-2011 17:32:01 4.2 C 5.8 g/m*3 4.2 C 0 km/h
2970 06-01-2011 17:44:01 4.1 C 5.76 g/m*3 4.1 C 0 km/h
2971 06-01-2011 17:56:01 4.6 C 6.02 g/m*3 4.6 C 0 km/h
2972 06-01-2011 18:08:01 4.6 C 6.02 g/m*3 4.6 C 0 km/h
2973 06-01-2011 18:20:02 4.3 C 5.9 g/m*3 4.3 C 0 km/h
2974 06-01-2011 18:32:01 4.6 C 6.02 g/m*3 4.6 C 0 km/h
2975 06-01-2011 18:44:01 4.5 C 5.98 g/m*3 4.5 C 0 km/h
Sensor: Nr:Datum:Temp:Abs-Feuchte:Windchill:Wind:
Aussen-T/F 2976 06-01-2011 18:56:02 5 C 6.18 g/m*3 5 C 0 km/h
2977 06-01-2011 19:08:02 4.7 C 6.13 g/m*3 4.7 C 0 km/h
2978 06-01-2011 19:20:02 4.6 C 6.09 g/m*3 4.6 C 0 km/h
2979 06-01-2011 19:32:03 4.9 C 6.21 g/m*3 4.9 C 0 km/h
2980 06-01-2011 19:44:03 5.3 C 6.31 g/m*3 5.3 C 0 km/h
2981 06-01-2011 19:56:02 5.6 C 6.43 g/m*3 5.6 C 0 km/h
2982 06-01-2011 20:08:01 7 C 7.05 g/m*3 7 C 0 km/h
2983 06-01-2011 20:20:01 8 C 7.44 g/m*3 8 C 0 km/h
2984 06-01-2011 20:32:02 6.7 C 6.91 g/m*3 6.7 C 0 km/h
2985 06-01-2011 20:44:02 8.1 C 7.41 g/m*3 8.1 C 0 km/h
2986 06-01-2011 20:56:02 7 C 6.9 g/m*3 7 C 0 km/h
2987 06-01-2011 21:08:02 7.3 C 7.03 g/m*3 7.3 C 0 km/h
2988 06-01-2011 21:20:02 8.2 C 7.37 g/m*3 8.2 C 0 km/h
2989 06-01-2011 21:32:02 9 C 7.58 g/m*3 9 C 0 km/h
2990 06-01-2011 21:44:02 8.9 C 7.36 g/m*3 8.9 C 0 km/h
2991 06-01-2011 21:56:02 9.4 C 7.42 g/m*3 9.4 C 0 km/h
2992 06-01-2011 22:08:03 9.2 C 7.14 g/m*3 9.2 C 0 km/h
2993 06-01-2011 22:21:04 10 C 7.24 g/m*3 10 C 0 km/h
2994 06-01-2011 22:33:04 9.8 C 7.33 g/m*3 9.8 C 0 km/h
2995 06-01-2011 22:45:04 9.1 C 6.92 g/m*3 9.1 C 0 km/h
2996 06-01-2011 22:57:04 9.4 C 7.05 g/m*3 9.4 C 0 km/h
2997 06-01-2011 23:09:04 8.8 C 6.7 g/m*3 8.8 C 0 km/h
2998 06-01-2011 23:21:04 9.1 C 6.83 g/m*3 9.1 C 0 km/h
2999 06-01-2011 23:33:04 9 C 7.14 g/m*3 9 C 0 km/h
3000 06-01-2011 23:45:04 9.7 C 7.47 g/m*3 9.7 C 0 km/h
Sensor: Nr:Datum:Temp:Abs-Feuchte:Windchill:Wind:
Aussen-T/F 3001 06-01-2011 23:57:04 8.8 C 6.88 g/m*3 8.8 C 0 km/h
3002 07-01-2011 00:09:04 8.5 C 6.83 g/m*3 8.5 C 0 km/h
3003 07-01-2011 00:21:04 7.6 C 6.61 g/m*3 7.6 C 0 km/h
3004 07-01-2011 00:33:04 7 C 6.51 g/m*3 7 C 0 km/h
3005 07-01-2011 00:45:04 7.3 C 6.79 g/m*3 7.3 C 0 km/h
3006 07-01-2011 00:57:04 6.5 C 6.45 g/m*3 6.5 C 0 km/h
3007 07-01-2011 01:09:04 6.4 C 6.48 g/m*3 6.4 C 0 km/h
3008 07-01-2011 01:21:04 6.5 C 6.52 g/m*3 6.5 C 0 km/h
3009 07-01-2011 01:33:04 6.8 C 6.73 g/m*3 6.8 C 0 km/h
3010 07-01-2011 01:45:05 6.9 C 6.85 g/m*3 6.9 C 0 km/h
3011 07-01-2011 01:57:05 6.6 C 6.72 g/m*3 6.6 C 0 km/h
3012 07-01-2011 02:09:05 6 C 6.46 g/m*3 6 C 0 km/h
3013 07-01-2011 02:21:05 5.8 C 6.45 g/m*3 5.8 C 0 km/h
3014 07-01-2011 02:33:05 5.7 C 6.4 g/m*3 5.7 C 0 km/h
3015 07-01-2011 02:45:05 5.8 C 6.45 g/m*3 5.8 C 0 km/h
3016 07-01-2011 02:57:05 5.8 C 6.52 g/m*3 5.8 C 0 km/h
3017 07-01-2011 03:09:05 5.7 C 6.48 g/m*3 5.7 C 0 km/h
3018 07-01-2011 03:21:05 5.6 C 6.43 g/m*3 5.6 C 0 km/h
3019 07-01-2011 03:33:05 5.6 C 6.43 g/m*3 5.6 C 0 km/h
3020 07-01-2011 03:45:05 5.6 C 6.43 g/m*3 5.6 C 0 km/h
3021 07-01-2011 03:57:05 5.6 C 6.43 g/m*3 5.6 C 0 km/h
3022 07-01-2011 04:09:05 5.6 C 6.43 g/m*3 5.6 C 0 km/h
3023 07-01-2011 04:21:05 5.5 C 6.39 g/m*3 5.5 C 0 km/h
3024 07-01-2011 04:33:05 5.2 C 6.27 g/m*3 5.2 C 0 km/h
3025 07-01-2011 04:45:05 5.2 C 6.27 g/m*3 5.2 C 0 km/h
Sensor: Nr:Datum:Temp:Abs-Feuchte:Windchill:Wind:
Aussen-T/F 3026 07-01-2011 04:57:05 5.3 C 6.31 g/m*3 5.3 C 0 km/h
3027 07-01-2011 05:09:05 5.6 C 6.5 g/m*3 5.6 C 0 km/h
3028 07-01-2011 05:21:05 5.2 C 6.27 g/m*3 5.2 C 0 km/h
3029 07-01-2011 05:33:05 5.3 C 6.38 g/m*3 5.3 C 0 km/h
3030 07-01-2011 05:45:05 5.2 C 6.33 g/m*3 5.2 C 0 km/h
3031 07-01-2011 05:57:06 5.1 C 6.22 g/m*3 5.1 C 0 km/h
3032 07-01-2011 06:09:06 4.8 C 6.17 g/m*3 4.8 C 0 km/h
3033 07-01-2011 06:21:06 4.9 C 6.21 g/m*3 4.9 C 0 km/h
3034 07-01-2011 06:33:06 5 C 6.18 g/m*3 5 C 0 km/h
3035 07-01-2011 06:45:06 5 C 6.18 g/m*3 5 C 0 km/h
3036 07-01-2011 06:57:06 4.8 C 6.17 g/m*3 4.8 C 0 km/h
3037 07-01-2011 07:09:06 5 C 6.25 g/m*3 5 C 0 km/h
3038 07-01-2011 07:21:06 5 C 6.25 g/m*3 5 C 0 km/h
3039 07-01-2011 07:33:06 5 C 6.25 g/m*3 5 C 0 km/h
3040 07-01-2011 07:45:03 5.1 C 6.29 g/m*3 5.1 C 0 km/h
3041 07-01-2011 07:57:03 5.1 C 6.29 g/m*3 5.1 C 0 km/h
3042 07-01-2011 08:09:02 4.8 C 6.17 g/m*3 4.8 C 0 km/h
3043 07-01-2011 08:21:03 4.9 C 6.21 g/m*3 4.9 C 0 km/h
3044 07-01-2011 08:33:02 5 C 6.25 g/m*3 5 C 0 km/h
3045 07-01-2011 08:45:03 4.9 C 6.21 g/m*3 4.9 C 0 km/h
3046 07-01-2011 08:57:03 4.8 C 6.17 g/m*3 4.8 C 0 km/h
3047 07-01-2011 09:09:02 4.7 C 6.13 g/m*3 4.7 C 0 km/h
3048 07-01-2011 09:21:02 4.7 C 6.13 g/m*3 4.7 C 0 km/h
3049 07-01-2011 09:33:02 4.9 C 6.21 g/m*3 4.9 C 0 km/h
3050 07-01-2011 09:45:02 5 C 6.25 g/m*3 5 C 0 km/h
Sensor: Nr:Datum:Temp:Abs-Feuchte:Windchill:Wind:
Aussen-T/F 3051 07-01-2011 09:57:02 5.2 C 6.33 g/m*3 5.2 C 0 km/h
3052 07-01-2011 10:09:02 5.3 C 6.38 g/m*3 5.3 C 0 km/h
3053 07-01-2011 10:21:03 5.3 C 6.38 g/m*3 5.3 C 0 km/h
3054 07-01-2011 10:33:02 5.6 C 6.5 g/m*3 5.6 C 0 km/h
3055 07-01-2011 10:45:03 5.6 C 6.43 g/m*3 5.6 C 0 km/h
3056 07-01-2011 10:57:03 5.7 C 6.48 g/m*3 5.7 C 0 km/h
3057 07-01-2011 11:09:02 6 C 6.6 g/m*3 6 C 0 km/h
3058 07-01-2011 11:21:02 6.7 C 6.91 g/m*3 6.7 C 0 km/h
3059 07-01-2011 11:33:02 7.1 C 7.1 g/m*3 7.1 C 0 km/h
3060 07-01-2011 11:45:02 7 C 7.05 g/m*3 7 C 0 km/h
3061 07-01-2011 11:57:02 7 C 7.05 g/m*3 7 C 0 km/h
3062 07-01-2011 12:09:02 7.2 C 7.14 g/m*3 7.2 C 0 km/h
3063 07-01-2011 12:21:02 7.2 C 7.06 g/m*3 7.2 C 0 km/h
3064 07-01-2011 12:33:02 7.3 C 7.11 g/m*3 7.3 C 0 km/h
3065 07-01-2011 12:45:02 7.3 C 7.11 g/m*3 7.3 C 0 km/h
3066 07-01-2011 12:57:02 7.4 C 7.16 g/m*3 7.4 C 0 km/h
3067 07-01-2011 13:09:01 7.5 C 7.2 g/m*3 7.5 C 0 km/h
3068 07-01-2011 13:21:01 7.4 C 7.16 g/m*3 7.4 C 0 km/h
3069 07-01-2011 13:33:02 7.3 C 7.11 g/m*3 7.3 C 0 km/h
3070 07-01-2011 13:45:02 7.4 C 7.08 g/m*3 7.4 C 0 km/h
3071 07-01-2011 13:57:02 7.3 C 7.03 g/m*3 7.3 C 0 km/h
3072 07-01-2011 14:09:02 7.4 C 7.08 g/m*3 7.4 C 0 km/h
3073 07-01-2011 14:21:02 7.5 C 7.12 g/m*3 7.5 C 0 km/h
3074 07-01-2011 14:33:02 7.5 C 7.2 g/m*3 7.5 C 0 km/h
3075 07-01-2011 14:45:02 7.4 C 7.16 g/m*3 7.4 C 0 km/h
Sensor: Nr:Datum:Temp:Abs-Feuchte:Windchill:Wind:
Aussen-T/F 3076 07-01-2011 14:57:02 7.3 C 7.11 g/m*3 7.3 C 0 km/h
3077 07-01-2011 15:09:02 7.3 C 7.11 g/m*3 7.3 C 0 km/h
3078 07-01-2011 15:21:02 7.3 C 7.11 g/m*3 7.3 C 0 km/h
3079 07-01-2011 15:33:02 7.1 C 7.02 g/m*3 7.1 C 0 km/h
3080 07-01-2011 15:45:02 7.1 C 7.02 g/m*3 7.1 C 0 km/h
3081 07-01-2011 15:57:02 7.1 C 7.02 g/m*3 7.1 C 0 km/h
3082 07-01-2011 16:09:02 6.9 C 7.01 g/m*3 6.9 C 0 km/h
3083 07-01-2011 16:21:02 7.2 C 7.06 g/m*3 7.2 C 0 km/h
3084 07-01-2011 16:33:03 7.1 C 7.02 g/m*3 7.1 C 0 km/h
3085 07-01-2011 16:45:02 7 C 6.97 g/m*3 7 C 0 km/h
3086 07-01-2011 16:57:02 7.1 C 7.02 g/m*3 7.1 C 0 km/h
3087 07-01-2011 17:09:03 7.3 C 7.19 g/m*3 7.3 C 0 km/h
3088 07-01-2011 17:21:02 7.3 C 7.19 g/m*3 7.3 C 0 km/h
3089 07-01-2011 17:33:02 7.5 C 7.28 g/m*3 7.5 C 0 km/h
3090 07-01-2011 17:45:01 7.7 C 7.38 g/m*3 7.7 C 0 km/h
3091 07-01-2011 17:57:01 7.8 C 7.43 g/m*3 7.8 C 0 km/h
3092 07-01-2011 18:09:02 8.3 C 7.67 g/m*3 8.3 C 0 km/h
3093 07-01-2011 18:21:01 9.3 C 8.09 g/m*3 9.3 C 0 km/h
3094 07-01-2011 18:33:01 9.3 C 8.09 g/m*3 9.3 C 0 km/h
3095 07-01-2011 18:45:01 10 C 8.36 g/m*3 10 C 0 km/h
3096 07-01-2011 18:57:01 9.7 C 8.2 g/m*3 9.7 C 0 km/h
3097 07-01-2011 19:09:01 10.3 C 8.33 g/m*3 10.3 C 0 km/h
3098 07-01-2011 19:21:02 9.8 C 7.98 g/m*3 9.8 C 0 km/h
3099 07-01-2011 19:33:01 9.6 C 7.88 g/m*3 9.6 C 0 km/h
3100 07-01-2011 19:45:03 8.9 C 7.53 g/m*3 8.9 C 0 km/h
Sensor: Nr:Datum:Temp:Abs-Feuchte:Windchill:Wind:
Aussen-T/F 3101 07-01-2011 19:57:03 8.6 C 7.48 g/m*3 8.6 C 0 km/h
3102 07-01-2011 20:09:03 8.5 C 7.51 g/m*3 8.5 C 0 km/h
3103 07-01-2011 20:21:02 8.9 C 7.8 g/m*3 8.9 C 0 km/h
3104 07-01-2011 20:33:03 9.2 C 7.95 g/m*3 9.2 C 0 km/h
3105 07-01-2011 20:45:02 9 C 7.85 g/m*3 9 C 0 km/h
3106 07-01-2011 20:57:03 8.9 C 7.8 g/m*3 8.9 C 0 km/h
3107 07-01-2011 21:09:01 8.9 C 7.8 g/m*3 8.9 C 0 km/h
3108 07-01-2011 21:21:02 8.9 C 7.88 g/m*3 8.9 C 0 km/h
3109 07-01-2011 21:33:02 9 C 7.85 g/m*3 9 C 0 km/h
3110 07-01-2011 21:45:02 9.1 C 7.9 g/m*3 9.1 C 0 km/h
3111 07-01-2011 21:57:02 9.1 C 7.9 g/m*3 9.1 C 0 km/h
3112 07-01-2011 22:09:02 9 C 7.76 g/m*3 9 C 0 km/h
3113 07-01-2011 22:22:03 8.8 C 7.75 g/m*3 8.8 C 0 km/h
3114 07-01-2011 22:34:03 8.6 C 7.65 g/m*3 8.6 C 0 km/h
3115 07-01-2011 22:46:03 8.5 C 7.51 g/m*3 8.5 C 0 km/h
3116 07-01-2011 22:58:03 8.6 C 7.65 g/m*3 8.6 C 0 km/h
3117 07-01-2011 23:10:03 8.6 C 7.65 g/m*3 8.6 C 0 km/h
3118 07-01-2011 23:22:03 8.5 C 7.6 g/m*3 8.5 C 0 km/h
3119 07-01-2011 23:34:03 8.8 C 7.75 g/m*3 8.8 C 0 km/h
3120 07-01-2011 23:46:03 8.9 C 7.8 g/m*3 8.9 C 0 km/h
3121 07-01-2011 23:58:03 9 C 7.76 g/m*3 9 C 0 km/h
3122 08-01-2011 00:10:03 9.2 C 7.77 g/m*3 9.2 C 0 km/h
3123 08-01-2011 00:22:03 8.9 C 7.62 g/m*3 8.9 C 0 km/h
3124 08-01-2011 00:34:03 8.7 C 7.52 g/m*3 8.7 C 0 km/h
3125 08-01-2011 00:46:03 8.3 C 7.33 g/m*3 8.3 C 0 km/h
Sensor: Nr:Datum:Temp:Abs-Feuchte:Windchill:Wind:
Aussen-T/F 3126 08-01-2011 00:58:03 8.1 C 7.24 g/m*3 8.1 C 0 km/h
3127 08-01-2011 01:10:03 8 C 7.28 g/m*3 8 C 0 km/h
3128 08-01-2011 01:22:03 7.7 C 7.22 g/m*3 7.7 C 0 km/h
3129 08-01-2011 01:34:03 7.5 C 7.12 g/m*3 7.5 C 0 km/h
3130 08-01-2011 01:46:03 7.1 C 6.94 g/m*3 7.1 C 0 km/h
3131 08-01-2011 01:58:04 7 C 6.9 g/m*3 7 C 0 km/h
3132 08-01-2011 02:10:04 6.9 C 6.93 g/m*3 6.9 C 0 km/h
3133 08-01-2011 02:22:04 6.6 C 6.79 g/m*3 6.6 C 0 km/h
3134 08-01-2011 02:34:04 6.7 C 6.91 g/m*3 6.7 C 0 km/h
3135 08-01-2011 02:46:04 6.6 C 6.87 g/m*3 6.6 C 0 km/h
3136 08-01-2011 02:58:04 6.8 C 6.96 g/m*3 6.8 C 0 km/h
3137 08-01-2011 03:10:04 7 C 7.05 g/m*3 7 C 0 km/h
3138 08-01-2011 03:22:04 7.9 C 7.56 g/m*3 7.9 C 0 km/h
3139 08-01-2011 03:34:04 8.1 C 7.57 g/m*3 8.1 C 0 km/h
3140 08-01-2011 03:46:04 8.5 C 7.77 g/m*3 8.5 C 0 km/h
3141 08-01-2011 03:58:04 8.1 C 7.57 g/m*3 8.1 C 0 km/h
3142 08-01-2011 04:10:04 7.9 C 7.56 g/m*3 7.9 C 0 km/h
3143 08-01-2011 04:22:04 8.2 C 7.62 g/m*3 8.2 C 0 km/h
3144 08-01-2011 04:34:04 8.1 C 7.57 g/m*3 8.1 C 0 km/h
3145 08-01-2011 04:46:04 7.9 C 7.56 g/m*3 7.9 C 0 km/h
3146 08-01-2011 04:58:04 7.3 C 7.27 g/m*3 7.3 C 0 km/h
3147 08-01-2011 05:10:04 7.5 C 7.36 g/m*3 7.5 C 0 km/h
3148 08-01-2011 05:22:04 8 C 7.52 g/m*3 8 C 0 km/h
3149 08-01-2011 05:34:04 7.9 C 7.56 g/m*3 7.9 C 0 km/h
3150 08-01-2011 05:46:04 8.1 C 7.66 g/m*3 8.1 C 0 km/h
Sensor: Nr:Datum:Temp:Abs-Feuchte:Windchill:Wind:
Aussen-T/F 3151 08-01-2011 05:58:05 8.2 C 7.7 g/m*3 8.2 C 0 km/h
3152 08-01-2011 06:10:05 8.2 C 7.7 g/m*3 8.2 C 0 km/h
3153 08-01-2011 06:22:05 8.2 C 7.7 g/m*3 8.2 C 0 km/h
3154 08-01-2011 06:34:05 8 C 7.61 g/m*3 8 C 0 km/h
3155 08-01-2011 06:46:05 7.8 C 7.59 g/m*3 7.8 C 0 km/h
3156 08-01-2011 06:58:05 7.7 C 7.54 g/m*3 7.7 C 0 km/h
3157 08-01-2011 07:10:05 8 C 7.61 g/m*3 8 C 0 km/h
3158 08-01-2011 07:22:05 8 C 7.61 g/m*3 8 C 0 km/h
3159 08-01-2011 07:34:05 7.9 C 7.64 g/m*3 7.9 C 0 km/h
3160 08-01-2011 07:46:05 8.3 C 7.75 g/m*3 8.3 C 0 km/h
3161 08-01-2011 07:58:05 8.6 C 7.91 g/m*3 8.6 C 0 km/h
3162 08-01-2011 08:10:05 8.5 C 7.85 g/m*3 8.5 C 0 km/h
3163 08-01-2011 08:22:05 8.2 C 7.7 g/m*3 8.2 C 0 km/h
3164 08-01-2011 08:34:05 7.9 C 7.64 g/m*3 7.9 C 0 km/h
3165 08-01-2011 08:46:02 8.3 C 7.75 g/m*3 8.3 C 0 km/h
3166 08-01-2011 08:58:02 8.8 C 8.09 g/m*3 8.8 C 0 km/h
3167 08-01-2011 09:10:02 8.9 C 8.06 g/m*3 8.9 C 0 km/h
3168 08-01-2011 09:22:02 9.1 C 8.07 g/m*3 9.1 C 0 km/h
3169 08-01-2011 09:34:02 8.7 C 7.96 g/m*3 8.7 C 0 km/h
3170 08-01-2011 09:46:02 8.5 C 7.85 g/m*3 8.5 C 0 km/h
3171 08-01-2011 09:58:02 8.3 C 7.75 g/m*3 8.3 C 0 km/h
3172 08-01-2011 10:10:01 8 C 7.61 g/m*3 8 C 0 km/h
3173 08-01-2011 10:22:02 7.7 C 7.46 g/m*3 7.7 C 0 km/h
3174 08-01-2011 10:34:01 7.6 C 7.41 g/m*3 7.6 C 0 km/h
3175 08-01-2011 10:46:02 7.6 C 7.41 g/m*3 7.6 C 0 km/h
Sensor: Nr:Datum:Temp:Abs-Feuchte:Windchill:Wind:
Aussen-T/F 3176 08-01-2011 10:58:03 8 C 7.52 g/m*3 8 C 0 km/h
3177 08-01-2011 11:10:02 8.6 C 7.82 g/m*3 8.6 C 0 km/h
3178 08-01-2011 11:22:02 9.3 C 8.09 g/m*3 9.3 C 0 km/h
3179 08-01-2011 11:34:03 10.2 C 8.09 g/m*3 10.2 C 0 km/h
3180 08-01-2011 11:46:02 10.9 C 7.96 g/m*3 10.9 C 0 km/h
3181 08-01-2011 11:58:02 12 C 7.25 g/m*3 12 C 0 km/h
3182 08-01-2011 12:10:02 12.1 C 6.97 g/m*3 12.1 C 0 km/h
3183 08-01-2011 12:22:01 12.7 C 6.57 g/m*3 12.7 C 0 km/h
3184 08-01-2011 12:34:02 13.1 C 6.39 g/m*3 13.1 C 0 km/h
3185 08-01-2011 12:46:02 13.8 C 6.55 g/m*3 13.8 C 0 km/h
3186 08-01-2011 12:58:02 13.8 C 6.43 g/m*3 13.8 C 0 km/h
3187 08-01-2011 13:10:02 13.9 C 6.35 g/m*3 13.9 C 0 km/h
3188 08-01-2011 13:22:01 14 C 6.27 g/m*3 14 C 0 km/h
3189 08-01-2011 13:34:02 14.1 C 5.95 g/m*3 14.1 C 0 km/h
3190 08-01-2011 13:46:02 14.4 C 5.93 g/m*3 14.4 C 0 km/h
3191 08-01-2011 13:58:02 14.5 C 5.85 g/m*3 14.5 C 0 km/h
3192 08-01-2011 14:10:02 14.5 C 5.85 g/m*3 14.5 C 0 km/h
3193 08-01-2011 14:22:02 14.7 C 5.79 g/m*3 14.7 C 0 km/h
3194 08-01-2011 14:34:02 14.5 C 5.85 g/m*3 14.5 C 0 km/h
3195 08-01-2011 14:46:02 14.3 C 5.9 g/m*3 14.3 C 0 km/h
3196 08-01-2011 14:58:02 14 C 5.91 g/m*3 14 C 0 km/h
3197 08-01-2011 15:10:02 14.3 C 5.9 g/m*3 14.3 C 0 km/h
3198 08-01-2011 15:22:02 14 C 6.03 g/m*3 14 C 0 km/h
3199 08-01-2011 15:34:01 14 C 5.79 g/m*3 14 C 0 km/h
3200 08-01-2011 15:46:02 14.2 C 5.74 g/m*3 14.2 C 0 km/h
Sensor: Nr:Datum:Temp:Abs-Feuchte:Windchill:Wind:
Aussen-T/F 3201 08-01-2011 15:58:02 14.1 C 5.83 g/m*3 14.1 C 0 km/h
3202 08-01-2011 16:10:01 14 C 5.79 g/m*3 14 C 0 km/h
3203 08-01-2011 16:22:02 13.8 C 5.96 g/m*3 13.8 C 0 km/h
3204 08-01-2011 16:34:02 12.8 C 6.05 g/m*3 12.8 C 0 km/h
3205 08-01-2011 16:46:02 13.7 C 5.8 g/m*3 13.7 C 0 km/h
3206 08-01-2011 16:58:02 13.7 C 5.68 g/m*3 13.7 C 0 km/h
3207 08-01-2011 17:10:02 13.2 C 5.86 g/m*3 13.2 C 0 km/h
3208 08-01-2011 17:22:02 13.4 C 5.93 g/m*3 13.4 C 0 km/h
3209 08-01-2011 17:34:02 13.3 C 6.01 g/m*3 13.3 C 0 km/h
3210 08-01-2011 17:46:01 13.5 C 5.85 g/m*3 13.5 C 0 km/h
3211 08-01-2011 17:58:01 13 C 5.9 g/m*3 13 C 0 km/h
3212 08-01-2011 18:10:02 13.5 C 5.97 g/m*3 13.5 C 0 km/h
3213 08-01-2011 18:22:01 13.2 C 5.86 g/m*3 13.2 C 0 km/h
3214 08-01-2011 18:34:01 13.7 C 5.8 g/m*3 13.7 C 0 km/h
3215 08-01-2011 18:46:01 13.5 C 5.85 g/m*3 13.5 C 0 km/h
3216 08-01-2011 18:58:01 13.3 C 5.89 g/m*3 13.3 C 0 km/h
3217 08-01-2011 19:10:02 13 C 6.01 g/m*3 13 C 0 km/h
3218 08-01-2011 19:22:01 13.1 C 5.93 g/m*3 13.1 C 0 km/h
3219 08-01-2011 19:34:01 13.3 C 5.89 g/m*3 13.3 C 0 km/h
3220 08-01-2011 19:46:01 13.2 C 5.86 g/m*3 13.2 C 0 km/h
3221 08-01-2011 19:58:01 13.2 C 5.97 g/m*3 13.2 C 0 km/h
3222 08-01-2011 20:10:02 13.2 C 5.97 g/m*3 13.2 C 0 km/h
3223 08-01-2011 20:22:02 12.7 C 6.12 g/m*3 12.7 C 0 km/h
3224 08-01-2011 20:34:01 11.8 C 6.53 g/m*3 11.8 C 0 km/h
3225 08-01-2011 20:46:02 12.1 C 6.54 g/m*3 12.1 C 0 km/h
Sensor: Nr:Datum:Temp:Abs-Feuchte:Windchill:Wind:
Aussen-T/F 3226 08-01-2011 20:58:02 11.8 C 6.53 g/m*3 11.8 C 0 km/h
3227 08-01-2011 21:10:01 11.4 C 6.57 g/m*3 11.4 C 0 km/h
3228 08-01-2011 21:22:02 11.8 C 6.63 g/m*3 11.8 C 0 km/h
3229 08-01-2011 21:34:01 12.2 C 6.58 g/m*3 12.2 C 0 km/h
3230 08-01-2011 21:46:02 12.5 C 6.82 g/m*3 12.5 C 0 km/h
3231 08-01-2011 21:58:02 12.3 C 6.41 g/m*3 12.3 C 0 km/h
3232 08-01-2011 22:10:03 12.5 C 6.38 g/m*3 12.5 C 0 km/h
3233 08-01-2011 22:22:02 12.3 C 6.3 g/m*3 12.3 C 0 km/h
3234 08-01-2011 22:35:03 11.8 C 6.63 g/m*3 11.8 C 0 km/h
3235 08-01-2011 22:47:03 12.2 C 6.58 g/m*3 12.2 C 0 km/h
3236 08-01-2011 22:59:03 10.9 C 6.86 g/m*3 10.9 C 0 km/h
3237 08-01-2011 23:11:03